[[{"header":{"parameterUnit":"m.s-1","parameterCategory":1,"la1":30.6,"la2":29.2853,"lo1":-89.7004,"lo2":-87.6739,"dy":0.0162,"dx":0.0183,"nx":112,"ny":82,"refTime":"2023-09-27T00:00:00:Z","depth":0,"parameterNumber":2,"parameterNumberName":"U-component_of_WINDS"},"data":[0.0,0.0,0.0,0.0,0.0,0.0,0.0,0.0,0.0,0.0,0.0,0.0,0.0,0.0,0.0,0.0,0.0,0.0,0.0,0.0,0.0,0.0,0.0,0.0,0.0,0.0,0.0,0.0,0.0,0.0,0.0,0.0,0.0,0.0,0.0,0.0,0.0,0.0,0.0,0.0,0.0,0.0,0.0,0.0,0.0,0.0,0.0,0.0,0.0,0.0,0.0,0.0,0.0,0.0,0.0,0.0,0.0,0.0,0.0,0.0,0.0,0.0,0.0,0.0,0.0,0.0,0.0,0.0,0.0,0.0,0.0,0.0,0.0,0.0,0.0,0.0,0.0,0.0,0.0,0.0,0.0,0.0,0.0,0.0,0.0,0.0,0.0,0.0,0.0,0.0,1.9429,2.0349,2.152,2.2231,2.2231,2.1958,2.1266,2.0081,0.0,0.0,0.0,0.0,0.0,0.0,0.0,0.0,0.0,0.0,0.0,0.0,0.0,0.0,0.0,0.0,0.0,0.0,0.0,0.0,0.0,0.0,0.0,0.0,0.0,0.0,0.0,0.0,0.0,0.0,0.0,0.0,0.0,0.0,0.0,0.0,0.0,0.0,0.0,0.0,0.0,0.0,0.0,0.0,0.0,0.0,0.0,0.0,0.0,0.0,0.0,0.0,0.0,0.0,0.0,0.0,0.0,0.0,0.0,0.0,0.0,0.0,0.0,0.0,0.0,0.0,0.0,0.0,0.0,0.0,0.0,0.0,0.0,0.0,0.0,0.0,0.0,0.0,0.0,0.0,0.0,0.0,0.0,0.0,0.0,0.0,0.0,0.0,0.0,0.0,0.0,0.0,0.0,0.0,0.0,0.0,0.0,0.0,0.0,0.0,0.0,0.0,0.0,0.0,2.0042,2.1423,2.2046,2.2369,2.2369,2.1712,2.1088,2.0535,0.0,0.0,0.0,0.0,0.0,0.0,0.0,0.0,0.0,0.0,0.0,0.0,0.0,0.0,0.0,0.0,0.0,0.0,0.0,0.0,0.0,0.0,0.0,0.0,0.0,0.0,0.0,0.0,0.0,0.0,0.0,0.0,0.0,0.0,0.0,0.0,0.0,0.0,0.0,0.0,0.0,0.0,0.0,0.0,0.0,0.0,0.0,0.0,0.0,0.0,0.0,0.0,0.0,0.0,0.0,0.0,0.0,0.0,0.0,0.0,0.0,0.0,0.0,0.0,0.0,0.0,0.0,0.0,0.0,0.0,0.0,0.0,0.0,0.0,0.0,0.0,0.0,0.0,0.0,0.0,0.0,0.0,0.0,0.0,0.0,0.0,0.0,0.0,0.0,0.0,0.0,0.0,0.0,0.0,0.0,0.0,0.0,0.0,0.0,0.0,0.0,0.0,0.0,1.9483,2.033,2.0951,2.1537,2.1861,2.1861,2.1216,2.0691,2.0383,1.9507,0.0,0.0,0.0,0.0,0.0,0.0,0.0,0.0,0.0,0.0,0.0,0.0,0.0,0.0,0.0,0.0,0.0,0.0,0.0,0.0,0.0,0.0,0.0,0.0,0.0,0.0,0.0,0.0,0.0,0.0,0.0,0.0,0.0,0.0,0.0,0.0,0.0,0.0,0.0,0.0,0.0,0.0,0.0,0.0,0.0,0.0,0.0,0.0,0.0,0.0,0.0,0.0,0.0,0.0,0.0,0.0,0.0,0.0,0.0,0.0,0.0,0.0,0.0,0.0,0.0,0.0,0.0,0.0,0.0,0.0,0.0,0.0,0.0,0.0,0.0,0.0,0.0,0.0,0.0,0.0,0.0,0.0,0.0,0.0,0.0,0.0,0.0,0.0,0.0,0.0,0.0,0.0,0.0,0.0,0.0,0.0,0.0,0.0,0.0,0.0,0.0,0.0,1.9798,2.0449,2.0522,2.0949,2.1235,2.1235,2.0703,2.0238,1.9912,1.9233,0.0,0.0,0.0,0.0,0.0,0.0,0.0,0.0,0.0,0.0,0.0,0.0,0.0,0.0,0.0,0.0,0.0,0.0,0.0,0.0,0.0,0.0,0.0,0.0,0.0,0.0,0.0,0.0,0.0,0.0,0.0,0.0,0.0,0.0,0.0,0.0,0.0,0.0,0.0,0.0,0.0,0.0,0.0,0.0,0.0,0.0,0.0,0.0,0.0,0.0,0.0,0.0,0.0,0.0,0.0,0.0,0.0,0.0,0.0,0.0,0.0,0.0,0.0,0.0,0.0,0.0,0.0,0.0,0.0,0.0,0.0,0.0,0.0,0.0,0.0,0.0,0.0,0.0,0.0,0.0,0.0,0.0,0.0,0.0,0.0,0.0,0.0,0.0,0.0,0.0,0.0,0.0,0.0,0.0,0.0,0.0,0.0,0.0,0.0,0.0,0.0,0.0,2.0017,2.0426,2.0895,2.084,2.0744,2.0744,2.0315,1.9734,1.9043,1.9113,0.0,0.0,0.0,0.0,0.0,0.0,0.0,0.0,0.0,0.0,0.0,0.0,0.0,0.0,0.0,0.0,0.0,0.0,0.0,0.0,0.0,0.0,0.0,0.0,0.0,0.0,0.0,0.0,0.0,0.0,0.0,0.0,0.0,0.0,0.0,0.0,0.0,0.0,0.0,0.0,0.0,0.0,0.0,0.0,0.0,0.0,0.0,0.0,0.0,0.0,0.0,0.0,0.0,0.0,0.0,0.0,0.0,0.0,0.0,0.0,0.0,0.0,0.0,0.0,0.0,0.0,0.0,0.0,0.0,0.0,0.0,0.0,0.0,0.0,0.0,0.0,0.0,0.0,0.0,0.0,0.0,0.0,0.0,0.0,0.0,0.0,0.0,0.0,0.0,0.0,0.0,0.0,0.0,0.0,0.0,0.0,0.0,0.0,0.0,0.0,0.0,0.0,1.926,1.9643,1.9633,1.9546,1.9585,1.9752,1.9367,1.9089,1.9016,0.0,0.0,0.0,0.0,0.0,0.0,0.0,0.0,0.0,0.0,0.0,0.0,0.0,0.0,0.0,0.0,0.0,0.0,0.0,0.0,0.0,0.0,0.0,0.0,0.0,0.0,0.0,0.0,0.0,0.0,0.0,0.0,0.0,0.0,0.0,0.0,0.0,0.0,0.0,0.0,0.0,0.0,0.0,0.0,0.0,0.0,0.0,0.0,0.0,0.0,0.0,0.0,0.0,0.0,0.0,0.0,0.0,0.0,0.0,0.0,0.0,0.0,0.0,0.0,0.0,0.0,0.0,0.0,0.0,0.0,0.0,0.0,0.0,0.0,0.0,0.0,0.0,0.0,0.0,0.0,0.0,0.0,0.0,0.0,0.0,0.0,0.0,0.0,0.0,0.0,0.0,0.0,0.0,0.0,0.0,0.0,0.0,0.0,0.0,0.0,0.0,0.0,1.8406,1.8752,1.9015,1.8819,1.8735,1.8781,1.895,1.8742,1.8584,1.8657,0.0,0.0,0.0,0.0,0.0,0.0,0.0,0.0,0.0,0.0,0.0,0.0,0.0,0.0,0.0,0.0,0.0,0.0,0.0,0.0,0.0,0.0,0.0,0.0,0.0,0.0,0.0,0.0,0.0,0.0,0.0,0.0,0.0,0.0,0.0,0.0,0.0,0.0,0.0,0.0,0.0,0.0,0.0,0.0,0.0,0.0,0.0,0.0,0.0,0.0,0.0,0.0,0.0,0.0,0.0,0.0,0.0,0.0,0.0,0.0,0.0,0.0,0.0,0.0,0.0,0.0,0.0,0.0,0.0,0.0,0.0,0.0,0.0,0.0,0.0,0.0,0.0,0.0,0.0,0.0,0.0,0.0,0.0,0.0,0.0,0.0,0.0,0.0,0.0,0.0,0.0,0.0,0.0,0.0,0.0,0.0,0.0,0.0,0.0,0.0,0.0,0.0,1.8755,1.8671,1.8649,1.8773,1.862,1.8488,1.8488,1.8488,1.8253,0.0,0.0,0.0,0.0,0.0,0.0,0.0,0.0,0.0,0.0,0.0,0.0,0.0,0.0,0.0,0.0,0.0,0.0,0.0,0.0,0.0,0.0,0.0,0.0,0.0,0.0,0.0,0.0,0.0,0.0,0.0,0.0,0.0,0.0,0.0,0.0,0.0,0.0,0.0,0.0,0.0,0.0,0.0,0.0,0.0,0.0,0.0,0.0,0.0,0.0,0.0,0.0,0.0,0.0,0.0,0.0,0.0,0.0,0.0,0.0,0.0,0.0,0.0,0.0,0.0,0.0,0.0,0.0,0.0,0.0,0.0,0.0,0.0,0.0,0.0,0.0,0.0,0.0,0.0,0.0,0.0,0.0,0.0,0.0,0.0,0.0,0.0,0.0,0.0,0.0,0.0,0.0,0.0,0.0,0.0,0.0,0.0,0.0,0.0,0.0,0.0,0.0,0.0,1.8539,1.8491,1.8333,1.7816,1.7699,1.7722,1.7924,1.7947,1.7865,1.7695,0.0,0.0,0.0,0.0,0.0,0.0,0.0,0.0,0.0,0.0,0.0,0.0,0.0,0.0,0.0,0.0,0.0,0.0,0.0,0.0,0.0,0.0,0.0,0.0,0.0,0.0,0.0,0.0,0.0,0.0,0.0,0.0,0.0,0.0,0.0,0.0,0.0,0.0,0.0,0.0,0.0,0.0,0.0,0.0,0.0,0.0,0.0,0.0,0.0,0.0,0.0,0.0,0.0,0.0,0.0,0.0,0.0,0.0,0.0,0.0,0.0,0.0,0.0,0.0,0.0,0.0,0.0,0.0,0.0,0.0,0.0,0.0,0.0,0.0,0.0,0.0,0.0,0.0,0.0,0.0,0.0,0.0,0.0,0.0,0.0,0.0,0.0,0.0,0.0,0.0,0.0,0.0,0.0,0.0,0.0,0.0,0.0,0.0,0.0,0.0,0.0,0.0,1.8406,1.824,1.7947,1.7349,1.7302,1.7372,1.7527,1.7551,1.7536,1.7501,0.0,0.0,0.0,0.0,0.0,0.0,0.0,0.0,0.0,0.0,0.0,0.0,0.0,0.0,0.0,0.0,0.0,0.0,0.0,0.0,0.0,0.0,0.0,0.0,0.0,0.0,0.0,0.0,0.0,0.0,0.0,0.0,0.0,0.0,0.0,0.0,0.0,0.0,0.0,0.0,0.0,0.0,0.0,0.0,0.0,0.0,0.0,0.0,0.0,0.0,0.0,0.0,0.0,0.0,0.0,0.0,0.0,0.0,0.0,0.0,0.0,0.0,0.0,0.0,0.0,0.0,0.0,0.0,0.0,0.0,0.0,0.0,0.0,0.0,0.0,0.0,0.0,0.0,0.0,0.0,0.0,0.0,0.0,0.0,0.0,0.0,0.0,0.0,0.0,0.0,0.0,0.0,0.0,0.0,0.0,0.0,0.0,0.0,0.0,0.0,0.0,0.0,1.8405,1.7995,1.7657,1.7413,1.739,1.7375,1.7361,1.7346,1.7293,1.7205,0.0,0.0,0.0,0.0,0.0,0.0,0.0,0.0,0.0,0.0,0.0,0.0,0.0,0.0,0.0,0.0,0.0,0.0,0.0,0.0,0.0,0.0,0.0,0.0,0.0,0.0,0.0,0.0,0.0,0.0,0.0,0.0,0.0,0.0,0.0,0.0,0.0,0.0,0.0,0.0,0.0,0.0,0.0,0.0,0.0,0.0,0.0,0.0,0.0,0.0,0.0,0.0,0.0,0.0,0.0,0.0,0.0,0.0,0.0,0.0,1.9171,1.875,0.0,0.0,0.0,0.0,0.0,0.0,0.0,0.0,0.0,0.0,0.0,0.0,0.0,0.0,0.0,0.0,0.0,0.0,0.0,0.0,0.0,0.0,0.0,0.0,0.0,0.0,0.0,0.0,0.0,0.0,0.0,0.0,0.0,0.0,0.0,0.0,0.0,0.0,0.0,0.0,1.8777,1.8366,1.8087,1.8096,1.8101,1.7984,1.7711,1.7682,1.7566,1.722,1.7243,0.0,0.0,0.0,0.0,0.0,0.0,0.0,0.0,0.0,0.0,0.0,0.0,0.0,0.0,0.0,0.0,0.0,0.0,0.0,0.0,0.0,0.0,0.0,0.0,0.0,0.0,0.0,0.0,0.0,0.0,0.0,0.0,0.0,0.0,0.0,0.0,0.0,0.0,0.0,0.0,0.0,0.0,0.0,0.0,0.0,0.0,0.0,0.0,0.0,0.0,0.0,0.0,0.0,0.0,0.0,0.0,0.0,0.0,0.0,2.0575,1.9889,0.0,0.0,0.0,0.0,0.0,0.0,0.0,0.0,0.0,0.0,0.0,0.0,0.0,0.0,0.0,0.0,0.0,0.0,0.0,0.0,0.0,0.0,0.0,0.0,0.0,0.0,0.0,0.0,0.0,0.0,0.0,0.0,0.0,0.0,0.0,0.0,0.0,0.0,0.0,0.0,1.8894,1.8511,1.8262,1.8316,1.8306,1.8233,1.8057,1.8057,1.7959,1.774,1.7725,0.0,0.0,0.0,0.0,0.0,0.0,0.0,0.0,0.0,0.0,0.0,0.0,0.0,0.0,0.0,0.0,0.0,0.0,0.0,0.0,0.0,0.0,0.0,0.0,0.0,0.0,0.0,0.0,0.0,0.0,0.0,0.0,0.0,0.0,0.0,0.0,0.0,0.0,0.0,0.0,0.0,0.0,0.0,0.0,0.0,0.0,0.0,0.0,0.0,0.0,0.0,0.0,0.0,2.3438,2.3914,2.4186,2.4337,2.4369,2.4251,2.237,2.1325,2.0919,2.0581,0.0,0.0,0.0,0.0,0.0,0.0,0.0,0.0,0.0,0.0,0.0,0.0,0.0,0.0,0.0,0.0,0.0,0.0,0.0,0.0,0.0,0.0,2.0951,2.0675,2.0827,2.0901,2.0407,0.0,0.0,0.0,0.0,0.0,0.0,0.0,0.0,0.0,0.0,0.0,1.8944,1.8635,1.8408,1.8467,1.8467,1.8452,1.8394,1.8394,1.8364,1.8306,1.8306,1.8306,0.0,0.0,0.0,0.0,0.0,0.0,0.0,0.0,0.0,0.0,0.0,0.0,0.0,0.0,0.0,0.0,0.0,0.0,0.0,0.0,0.0,0.0,0.0,0.0,0.0,0.0,0.0,0.0,0.0,0.0,0.0,0.0,1.8442,1.8742,0.0,0.0,0.0,0.0,0.0,0.0,0.0,0.0,0.0,0.0,0.0,0.0,0.0,2.2456,2.3476,2.4049,2.4476,2.4765,2.609,2.6627,2.6489,2.725,2.7475,2.7179,2.624,0.0,2.2674,2.2598,0.0,0.0,0.0,0.0,0.0,0.0,0.0,0.0,0.0,0.0,0.0,0.0,0.0,0.0,0.0,0.0,0.0,0.0,0.0,0.0,0.0,0.0,2.039,2.055,2.027,1.999,1.9907,2.0256,2.0714,2.1189,2.0661,2.0219,0.0,0.0,0.0,0.0,0.0,0.0,1.9135,1.8913,1.8858,1.9137,1.9166,1.9063,1.8745,1.873,1.8599,1.8321,1.8306,1.8306,1.8306,1.8523,0.0,0.0,0.0,0.0,0.0,0.0,0.0,0.0,0.0,0.0,0.0,0.0,0.0,0.0,0.0,0.0,0.0,0.0,0.0,0.0,0.0,0.0,0.0,0.0,0.0,0.0,0.0,0.0,0.0,1.8844,1.9165,1.9501,1.9626,1.9622,0.0,0.0,0.0,0.0,0.0,0.0,0.0,0.0,0.0,2.3658,2.3923,2.4597,2.574,2.603,2.6411,2.6949,2.7595,2.788,2.7805,2.818,2.8081,2.7546,2.7209,2.6221,2.4801,2.4256,2.391,2.373,0.0,0.0,0.0,0.0,2.2589,2.2348,2.2014,2.1794,2.163,2.163,0.0,0.0,0.0,0.0,0.0,0.0,0.0,2.0788,2.0979,2.0545,2.0124,2.0348,2.0197,2.0012,2.0036,2.0082,2.0124,2.0215,1.9798,1.9446,1.9397,1.9088,0.0,0.0,0.0,1.9235,1.9393,1.9531,1.9626,1.9798,1.9813,1.9681,1.9386,1.9356,1.9224,1.8877,1.8847,1.8847,1.8847,1.8787,1.8759,0.0,0.0,0.0,0.0,0.0,0.0,0.0,0.0,0.0,0.0,0.0,0.0,0.0,0.0,0.0,0.0,0.0,0.0,0.0,0.0,0.0,0.0,0.0,0.0,0.0,0.0,0.0,0.0,1.9756,2.0175,2.0676,2.086,2.0885,0.0,0.0,0.0,0.0,0.0,0.0,2.3358,2.4164,2.4944,2.5707,2.6108,2.6755,2.7691,2.7691,2.7993,2.8589,2.8679,2.8773,2.8813,2.8809,2.8521,2.8005,2.7809,2.7336,2.6658,2.5524,2.5019,2.4849,2.4461,2.4146,2.389,2.3626,2.339,2.3195,2.2877,2.2549,2.2253,2.2253,2.1872,2.1312,2.0887,0.0,0.0,0.0,0.0,2.0336,2.0542,2.0305,2.0094,2.0274,2.0258,2.0213,2.0218,2.0037,1.985,1.9637,1.9243,1.8924,1.8777,1.8624,0.0,1.8632,1.9159,1.9534,1.9649,1.9957,2.021,2.021,2.021,2.0079,1.9811,1.9796,1.9649,1.9327,1.9298,1.9298,1.9298,1.9063,1.8975,1.9063,0.0,0.0,0.0,0.0,0.0,0.0,0.0,0.0,0.0,0.0,0.0,0.0,0.0,0.0,0.0,0.0,0.0,0.0,0.0,0.0,0.0,0.0,0.0,0.0,0.0,0.0,0.0,0.0,0.0,2.2116,2.2204,0.0,0.0,0.0,0.0,2.3901,2.4415,2.5142,2.6316,2.7151,2.7786,2.8205,2.8601,2.8875,2.8994,2.8994,2.901,2.9081,2.9455,2.9643,2.9627,2.9699,2.9715,2.9631,2.8858,2.8328,2.79,2.6384,2.5509,2.5139,2.4746,2.4565,2.4516,2.4253,2.413,2.4097,2.3814,2.3515,2.3231,2.3231,2.2246,2.0924,2.0313,1.9903,0.0,0.0,2.0163,2.0344,2.093,2.0648,2.0276,2.0605,2.0432,2.0204,2.0217,2.0174,2.0161,2.016,1.944,1.8882,1.9122,0.0,1.8413,1.8732,1.9083,1.9427,1.9755,2.0032,2.021,2.021,2.021,2.0079,1.9811,1.9796,1.9649,1.9327,1.9298,1.9298,1.9298,1.9283,1.943,1.9737,1.9415,0.0,0.0,0.0,0.0,0.0,0.0,0.0,0.0,0.0,0.0,0.0,0.0,0.0,0.0,0.0,0.0,0.0,0.0,0.0,0.0,0.0,0.0,0.0,0.0,0.0,0.0,0.0,0.0,2.3804,2.4134,0.0,2.45,2.4611,2.5076,2.6049,2.65,2.7141,2.8093,2.89,2.9395,2.9561,2.9735,2.9857,2.9868,2.9396,2.9177,2.9176,2.9293,2.9257,2.9069,2.9064,2.8682,2.7975,2.7911,2.7443,2.6626,2.6029,2.5882,2.5937,2.5512,2.5291,2.507,2.4767,2.4386,2.4024,2.37,2.3237,2.2733,2.2544,2.1813,2.1074,2.1083,2.0839,2.0655,2.0966,2.1098,2.1136,2.1388,2.1105,2.0823,2.0931,2.0864,2.0802,2.0802,2.0655,2.0519,2.0528,1.9953,1.9352,1.9055,1.896,1.8933,1.8865,1.9305,1.9667,1.978,2.0075,2.0344,2.0499,2.0528,2.0496,2.0386,2.0194,1.993,1.9635,1.9415,1.9298,1.9298,1.9298,1.9356,1.9474,1.9356,1.9356,0.0,0.0,0.0,0.0,0.0,0.0,0.0,0.0,0.0,0.0,0.0,0.0,0.0,0.0,0.0,0.0,0.0,0.0,0.0,0.0,0.0,0.0,0.0,0.0,0.0,2.4054,2.5098,2.6104,2.6582,2.6875,2.7022,2.7132,2.7591,2.8546,2.8853,2.93,2.9976,3.052,3.0666,3.0429,3.0473,3.0267,2.9858,2.9383,2.9023,2.8739,2.8739,2.8597,2.84,2.8293,2.7829,2.7114,2.7074,2.6617,2.5848,2.5712,2.5795,2.5976,2.5626,2.5407,2.52,2.499,2.4597,2.4057,2.3649,2.3199,2.2767,2.2314,2.1839,2.1465,2.1579,2.1365,2.1187,2.152,2.1583,2.1633,2.1696,2.1563,2.1403,2.1403,2.1403,2.1376,2.1283,2.1141,2.098,2.0873,2.0347,1.9826,1.941,1.9504,1.9552,1.9377,1.9772,2.0097,2.0097,2.0394,2.0666,2.0841,2.0858,2.0816,2.0713,2.0403,2.0106,1.9811,1.9488,1.9298,1.9298,1.9298,1.9356,1.9459,1.9576,1.9594,1.9594,0.0,0.0,0.0,0.0,0.0,0.0,0.0,0.0,0.0,0.0,0.0,0.0,0.0,0.0,0.0,0.0,0.0,0.0,0.0,0.0,0.0,0.0,0.0,2.4893,2.627,2.7738,2.895,2.9427,2.9849,3.0241,2.991,3.0167,3.1359,3.1411,3.1588,3.1995,3.1996,3.1618,3.0822,3.0762,3.0182,2.9009,2.8957,2.8559,2.7784,2.7784,2.7784,2.7746,2.7444,2.7254,2.7202,2.6528,2.6071,2.5763,2.5433,2.5321,2.526,2.5,2.4897,2.4907,2.4902,2.4679,2.4297,2.3697,2.3498,2.3376,2.2753,2.2353,2.2075,2.1733,2.1422,2.1216,2.1542,2.1668,2.1703,2.1984,2.2064,2.2031,2.2017,2.205,2.197,2.1662,2.1596,2.1515,2.1189,2.065,2.025,2.0224,2.0224,2.021,2.0197,2.047,0.0,2.0681,2.0983,2.1164,2.1194,2.1195,2.1073,2.073,2.041,2.0093,1.9855,1.9503,1.9327,1.9342,1.9342,1.9488,1.9825,2.0106,2.0239,2.0239,0.0,0.0,0.0,0.0,0.0,0.0,0.0,0.0,0.0,0.0,0.0,0.0,0.0,0.0,0.0,0.0,0.0,0.0,0.0,0.0,0.0,2.5737,2.6875,2.6582,2.7922,2.939,3.0602,3.1084,3.1488,3.1891,3.1847,3.2044,3.2659,3.1879,3.1571,3.1996,3.1461,3.0889,3.0381,2.982,2.9207,2.8561,2.7772,2.7202,2.6989,2.6989,2.6989,2.6989,2.6913,2.6724,2.6447,2.6691,2.6309,2.558,2.5753,2.5564,2.5127,2.4903,2.4975,2.5172,2.4933,2.4484,2.3991,2.3794,2.3573,2.3376,2.3407,2.3098,2.2707,2.28,2.2472,2.2124,2.2452,2.2672,2.2859,2.2905,2.3113,2.3201,2.276,2.2653,2.2519,2.201,2.1903,2.1877,2.1764,2.1617,2.1296,2.0668,2.0548,2.0481,2.0237,2.0288,2.0348,2.0348,2.0409,2.056,2.0802,2.0825,2.091,2.1044,2.0771,2.0619,2.0808,2.0089,1.9869,2.0311,2.0064,2.021,2.0794,2.0896,2.094,0.0,0.0,0.0,0.0,0.0,0.0,0.0,0.0,0.0,0.0,0.0,0.0,0.0,0.0,0.0,0.0,0.0,0.0,0.0,0.0,0.0,0.0,2.7867,2.9165,2.9422,3.0275,3.1286,3.2496,3.301,3.3363,3.3573,3.3443,3.3411,3.36,3.2671,3.2101,3.2108,3.1187,3.0445,3.0033,2.9105,2.8409,2.8033,2.7231,2.6716,2.6562,2.6562,2.6562,2.6562,2.6562,2.6459,2.6241,2.6471,2.6327,2.5879,2.5971,2.5864,2.5621,0.0,0.0,0.0,0.0,2.4429,2.3993,2.3678,2.338,2.3153,2.3375,2.3188,2.2934,2.3073,2.2886,2.2645,2.2853,2.3027,2.314,2.314,2.3295,2.3335,2.2974,2.2893,2.2773,2.2271,2.2271,2.2345,2.2191,2.2164,0.0,2.1496,2.1234,2.0967,2.061,2.057,2.057,2.057,2.057,2.0663,2.0848,2.0991,2.1173,2.1348,2.106,0.0,0.0,0.0,2.012,2.0473,2.0312,0.0,0.0,0.0,2.0839,2.0985,2.0871,0.0,0.0,2.0826,2.0868,0.0,0.0,0.0,0.0,0.0,0.0,0.0,0.0,0.0,0.0,0.0,0.0,0.0,0.0,0.0,0.0,3.0087,3.1534,3.2654,3.2822,3.3244,3.4335,3.4828,3.5048,3.5043,3.458,3.4264,3.4137,3.326,3.2533,3.2102,3.0881,0.0,0.0,0.0,2.7911,2.7538,2.7183,2.6796,2.644,2.644,2.644,2.644,2.644,2.644,2.6426,2.6198,2.6225,2.6373,2.6185,2.6225,2.6306,2.5451,2.509,2.4997,2.4733,2.4466,2.4182,2.3701,0.0,0.0,2.3094,2.3081,2.3041,2.3014,2.2974,2.2947,2.2907,2.292,2.2947,2.2947,2.2974,2.2987,2.296,2.2947,2.2867,2.2539,2.2672,2.2813,2.2512,2.2472,2.2425,2.2432,2.2024,2.1596,2.1296,2.1256,2.1256,2.1256,2.1203,2.1162,2.1162,2.138,0.0,2.1547,2.1302,2.1188,2.1293,2.0711,2.0333,2.0261,2.029,2.0376,2.0476,2.0476,2.0622,2.0913,2.0686,2.0974,2.1731,2.109,2.0958,0.0,0.0,0.0,0.0,0.0,0.0,0.0,0.0,0.0,0.0,0.0,0.0,0.0,0.0,0.0,3.051,3.2158,3.3409,3.3875,3.4244,3.4553,3.4854,3.523,3.547,3.54,3.4667,3.4059,3.3719,3.1984,3.0845,3.0786,2.9555,2.8827,2.876,2.8218,2.792,2.7798,2.7176,2.6814,2.6734,2.6734,0.0,2.6734,2.6734,2.6734,2.6734,2.668,2.656,2.64,2.6587,2.6547,2.6319,2.5678,2.5144,2.4706,2.493,2.481,2.4532,2.469,2.4543,2.4252,2.4252,2.4128,2.3901,2.3696,2.342,0.0,2.2974,2.3046,2.3233,2.3233,2.342,2.3576,2.33,2.3233,2.3153,2.288,2.2853,2.288,2.2827,2.2813,2.2733,2.2458,2.2325,2.2231,2.2178,2.2164,2.2164,2.2164,2.175,2.1502,2.1502,2.1312,2.1187,2.1194,2.1391,2.1619,2.1894,2.1556,2.1103,2.0626,2.0851,2.1367,2.2108,2.2123,2.2151,2.2223,2.2193,2.2094,2.2001,2.1387,2.1403,0.0,0.0,0.0,0.0,0.0,0.0,0.0,0.0,0.0,0.0,0.0,2.6958,2.8168,0.0,3.0805,3.2613,3.3536,3.4086,3.4231,3.4421,3.4562,3.4611,3.477,3.4796,3.4542,3.3885,3.325,3.2597,3.1355,3.0401,2.9951,2.9143,2.8648,2.8648,2.8098,2.7811,2.7811,2.731,2.7041,2.7041,2.7041,2.7041,2.7041,2.7041,2.6961,2.6787,2.6787,2.6734,2.6613,2.672,2.6653,2.6346,2.5905,2.5651,2.5491,2.5344,2.5104,2.4836,2.469,2.4449,2.4209,2.4209,2.4102,2.3955,2.3843,2.3661,2.3514,2.3388,2.3469,2.3554,2.3554,2.3554,2.3514,2.3332,2.3207,2.3046,2.2934,2.3134,2.3348,2.3348,2.3469,2.3487,2.334,2.3193,2.2886,2.2298,2.2205,2.2205,2.2205,2.1984,2.1796,2.1796,2.176,2.1773,2.1815,2.1829,2.1849,2.1849,2.1555,2.1318,2.1164,2.1194,2.1425,2.1888,2.2044,2.2097,2.2097,2.2097,2.2093,2.2042,2.1581,2.1652,0.0,0.0,0.0,0.0,0.0,0.0,0.0,2.5535,2.66,2.7068,2.8205,2.944,3.0586,3.1432,3.248,3.4087,3.4301,3.4175,3.3974,3.394,3.3829,3.3476,3.3809,3.3855,3.3282,3.2829,3.2165,3.1301,3.0734,3.0109,2.9398,2.895,2.8697,2.8697,2.8118,2.7789,2.7789,2.7536,2.7389,2.7389,2.7389,2.7389,2.7389,2.7389,2.7215,2.6987,2.6827,2.6787,2.6787,2.6787,2.668,2.6453,2.6252,2.6279,2.6319,2.5798,2.5411,2.5104,2.4623,2.4262,2.4044,2.3991,2.3977,2.3964,2.391,2.3884,2.3884,2.3817,2.3803,2.3803,2.3803,2.3594,2.3407,2.3407,2.322,2.3081,2.3081,2.3455,2.3803,2.3803,2.3955,2.4115,2.4115,2.3928,2.3482,2.2505,2.2285,2.2271,2.2325,2.2265,2.2178,2.2245,2.2405,2.2506,2.2576,2.236,2.2092,2.1686,2.1524,2.1482,2.1607,2.1371,2.1335,2.1452,2.1658,2.1752,2.1752,2.1727,2.1783,2.1973,2.1738,2.1778,2.0573,2.0995,2.1636,2.2112,2.34,2.4721,0.0,2.7022,2.8362,2.9115,3.0497,3.1866,3.2697,3.3465,3.4033,3.4179,3.421,3.3909,3.3057,3.2946,3.2427,3.0973,3.2451,3.3227,3.2356,3.1876,3.1286,3.0415,2.9537,2.8992,2.8866,2.8487,2.8276,2.8276,2.8194,2.8138,2.8138,2.7802,2.7655,2.7655,2.7655,2.7655,2.7655,2.7655,2.7629,2.7575,2.7054,2.6787,2.6787,2.6787,2.676,2.6734,2.6734,2.6587,2.6346,2.6065,2.5757,2.5451,2.5384,2.517,2.4927,2.4623,2.4506,2.4452,2.4235,2.4155,2.4102,2.3884,2.3803,2.3803,2.3803,2.3777,2.3728,2.3728,2.3723,2.371,2.371,2.3763,2.3803,2.3803,2.383,2.3857,2.3857,2.383,2.3763,2.3629,2.334,2.3273,2.3576,2.3134,2.2907,2.314,2.2953,2.2861,2.2834,2.2835,2.2566,2.2002,2.2143,2.2049,2.1631,2.1577,2.1813,2.2331,2.2372,2.2386,2.2386,2.2153,2.2032,2.199,2.1703,2.1735,2.0956,2.178,2.2826,2.3852,2.5326,2.682,2.7872,2.9155,3.0379,3.1163,3.2243,3.3214,3.3727,3.4064,3.4222,3.4209,3.3742,3.3138,3.25,3.1811,3.1011,2.9871,3.0134,3.0325,3.0109,3.0093,2.9851,2.9188,2.8937,2.8697,2.8445,2.8276,2.8179,2.8179,2.8179,2.8179,2.8179,2.8058,2.8005,2.8005,2.8005,2.8005,2.8005,2.8005,2.7856,2.7669,2.7081,2.6787,2.6814,2.664,2.6573,2.6573,2.6573,2.6493,2.636,2.6105,2.5917,2.5745,2.5571,2.5438,2.5304,2.5184,2.5106,2.5079,2.4997,2.497,2.4903,2.4609,2.4566,2.4566,2.4566,2.4409,2.4315,2.4526,2.4396,2.4275,2.4275,2.4409,2.4566,2.4566,2.4663,2.4783,2.4783,2.4649,2.4566,2.4566,2.4031,2.3634,2.379,2.3589,2.3469,2.3567,2.3509,2.3281,2.292,2.2893,2.2786,2.2546,2.2445,2.2472,2.2579,2.2439,2.2479,2.2734,2.2876,2.297,2.297,2.3058,2.3071,2.3054,2.2726,2.2645,2.1593,2.2667,2.3956,2.5512,2.7044,2.8468,2.9774,3.0921,3.1886,3.2455,3.3134,3.3613,3.3549,3.3563,3.3487,3.3074,3.2526,3.1954,3.1452,3.0622,2.9754,2.8906,2.8259,2.7852,2.7734,2.8299,2.8523,2.8234,2.8411,2.8392,2.8221,2.8179,2.8179,2.8179,2.8179,2.8179,2.8179,2.8179,2.8179,2.8179,2.8179,2.8179,2.8179,2.8179,2.8018,2.7669,2.7161,2.6894,2.676,2.6507,2.6386,2.6386,2.6386,2.6386,2.636,2.6198,2.6065,2.5971,2.5705,2.5585,2.5518,2.5518,2.5518,2.5518,2.5518,2.5518,2.5464,2.5251,2.5197,2.5197,2.5197,2.5037,2.4893,2.5144,2.5037,2.4839,2.4839,2.505,2.5197,2.5197,2.5371,2.5518,2.5518,2.5344,2.5197,2.5197,2.4663,2.4258,2.4178,2.4209,2.4258,2.4178,2.4098,2.3794,2.3308,2.3268,2.3228,2.3148,2.2913,2.2993,2.3434,2.3153,2.3067,2.3148,2.334,2.3447,2.3447,2.3581,2.3723,2.3803,2.346,2.3332,2.2519,2.3696,2.4986,2.6782,2.8159,2.9429,3.0889,3.1895,3.2459,3.2514,3.2894,3.2897,3.1791,3.1866,3.163,3.0235,3.0211,3.0178,2.9648,2.934,2.8768,2.7686,2.7316,2.6748,2.5702,2.6794,2.7581,2.7697,2.775,2.7884,2.8165,2.8179,2.8179,2.8179,2.8179,2.8179,2.8179,2.8179,2.8179,2.8179,2.8179,2.8179,2.8179,2.8179,2.8018,2.7682,2.7416,2.7094,2.676,2.6507,2.6386,2.6386,2.6386,2.6386,2.6386,2.6373,2.6238,2.5998,2.5984,2.5758,2.5518,2.5518,2.5518,2.5518,2.5518,2.5518,2.5504,2.5504,2.5504,2.5504,2.5504,2.5491,2.5491,2.5504,2.5491,2.5491,2.5491,2.5491,2.5504,2.5504,2.5504,2.5518,2.5518,2.5504,2.5504,2.5504,2.5478,2.5358,2.5077,2.5291,2.5358,2.5101,2.4783,2.4452,2.4182,2.4168,2.4035,2.379,2.3763,2.3777,2.379,2.3474,2.3447,2.3777,2.379,2.379,2.379,2.3474,2.3487,2.3803,2.346,2.3487,2.2306,2.3938,2.5645,2.7891,2.9495,3.073,3.1423,3.1605,3.1577,3.135,3.1099,3.0631,2.9548,2.923,2.8724,2.7724,2.7681,2.7887,2.8205,2.7879,2.7471,2.6975,2.6374,2.5886,2.5531,2.625,2.6853,2.7081,2.7482,2.7871,2.8165,2.8179,2.8179,2.8179,2.8179,2.8179,2.8179,2.8179,2.8179,2.8179,2.8179,2.8179,2.8179,2.8179,2.8125,2.8005,2.7523,2.7255,2.7081,2.6587,2.6386,2.6386,2.6386,2.6386,2.6386,2.6386,2.6333,2.6279,2.6279,2.6172,2.6092,2.6092,2.6092,2.6092,2.6092,2.6092,2.6052,2.5865,2.585,2.585,2.585,2.585,2.5891,2.6052,2.6092,2.6092,2.6092,2.6092,2.6092,2.6092,2.6092,2.6092,2.6092,2.6092,2.6092,2.6092,2.5758,2.5478,2.5384,2.5451,2.5478,2.5384,2.5277,2.4986,2.4492,2.4676,2.4663,2.4369,2.4529,2.473,2.4917,2.4649,2.4449,2.4342,2.4155,2.4062,2.4062,2.3955,2.4062,2.4342,2.4048,2.3968,2.2386,2.4193,2.6059,2.839,2.9885,3.0831,3.0988,3.0786,3.0275,2.9323,2.857,2.7725,2.6458,2.6103,2.5828,2.5307,2.5636,2.6187,2.6934,2.6893,2.672,2.6477,2.6077,2.5785,2.5678,2.6106,2.6547,2.6947,2.7335,2.7764,2.8165,2.8179,2.8179,2.8179,2.8179,2.8232,2.8353,2.8353,2.8353,2.8353,2.8353,2.8286,2.8179,2.8179,2.8179,2.8165,2.767,2.7403,2.7269,2.6747,2.648,2.6386,2.6386,2.6386,2.6386,2.6386,2.6386,2.6386,2.6386,2.6386,2.6386,2.6386,2.6386,2.6386,2.6386,2.6386,2.6346,2.6198,2.6145,2.6145,2.6145,2.6145,2.6198,2.6346,2.6386,2.6386,2.6386,2.6386,2.6386,2.6386,2.6386,2.6386,2.6386,2.6386,2.6386,2.6386,2.6066,2.5825,2.5825,2.5825,2.5785,2.5678,2.5678,2.5478,2.4946,2.5024,2.4997,2.481,2.4877,2.505,2.5344,2.5077,2.4877,2.4796,2.4502,2.4409,2.4516,2.4516,2.4663,2.4906,2.4756,2.4676,2.2786,2.4526,2.6205,2.832,2.9304,2.9766,2.9676,2.941,2.8596,2.6555,2.5492,2.4391,2.2685,2.2663,2.2921,2.2957,2.4003,2.5088,2.5783,2.6221,2.6442,2.6169,2.6308,2.6306,2.6026,2.6253,2.6653,2.7282,2.7322,2.7576,2.8152,2.8179,2.8179,2.8179,2.8205,2.8353,2.8604,2.8617,2.8617,2.8604,2.8604,2.8444,2.8179,2.8179,2.8179,2.8165,2.7871,2.7549,2.7309,2.6947,2.6653,2.6413,2.64,2.6386,2.6386,2.6386,2.6386,2.6386,2.6386,2.6386,2.6386,2.6386,2.6386,2.6386,2.6386,2.6386,2.6386,2.6386,2.6386,2.6386,2.6386,2.6386,2.6386,2.6386,2.6386,2.6386,2.6386,2.6386,2.6386,2.6386,2.6386,2.6386,2.6386,2.6386,2.6386,2.6386,2.6386,2.6386,2.6386,2.6386,2.6279,2.6051,2.6011,2.5904,2.5558,2.5291,2.513,2.5104,2.485,2.4799,2.5117,2.4836,2.481,2.5104,2.4773,2.4796,2.5115,2.5115,2.5224,2.5518,2.5518,2.5518,2.2953,2.4467,2.591,2.7627,2.8259,2.8333,2.8001,2.7009,2.5725,2.4208,2.3115,2.1995,2.0666,2.0613,2.0759,2.0724,2.182,2.2992,2.3879,2.4759,2.5347,2.539,2.588,2.6226,2.6147,2.648,2.6961,2.7549,2.7589,2.7791,2.8165,2.8179,2.8179,2.8179,2.8406,2.8524,2.8604,2.8818,2.8818,2.8604,2.8604,2.8444,2.8179,2.8179,2.8179,2.8165,2.7871,2.7655,2.7549,2.7028,2.6774,2.6694,2.6466,2.6386,2.6386,2.6386,2.6386,2.6386,2.6386,2.6386,2.6386,2.6386,2.6386,2.6386,2.6386,2.6386,2.6386,2.6386,2.6386,2.6386,2.6386,2.6386,2.6386,2.6386,2.6386,2.6386,2.6386,2.6386,2.6386,2.6386,2.6386,2.6386,2.6386,2.6386,2.6386,2.6386,2.6386,2.6386,2.6386,2.6386,2.636,2.6332,2.6319,2.6159,2.5904,2.5972,2.5865,2.5424,2.5531,2.569,2.577,2.5451,2.5317,2.5398,2.5117,2.501,2.5115,2.5115,2.5224,2.5518,2.5518,2.5518,2.3187,2.4457,2.562,2.6715,2.705,2.6836,2.5908,2.4778,2.3474,2.2013,2.0855,1.9841,1.9056,1.9006,1.9267,1.9793,2.0942,2.2153,2.334,2.4409,2.5144,2.5351,2.5898,2.6369,2.6533,2.6766,2.7208,2.8014,2.7856,2.7883,2.8366,2.8393,2.8446,2.8537,2.8711,2.8858,2.8991,2.9285,2.9285,2.8991,2.8858,2.8644,2.8379,2.8245,2.8179,2.8179,2.8005,2.7816,2.7669,2.7348,2.7054,2.6814,2.664,2.6507,2.6386,2.6386,2.6386,2.6386,2.6386,2.6386,2.6386,2.6386,2.6386,2.6386,2.6386,2.6386,2.6386,2.6386,2.6386,2.6386,2.6386,2.6386,2.6386,2.6386,2.6386,2.6386,2.6386,2.6386,2.6386,2.6386,2.6386,2.6386,2.6386,2.6386,2.6386,2.6386,2.6386,2.6386,2.6386,2.6386,2.6386,2.6386,2.6507,2.6507,2.6346,2.6493,2.6386,2.5919,2.6052,2.6131,2.5998,2.5837,2.5705,2.5705,2.5424,2.5331,2.5503,2.5598,2.5732,2.5905,2.6026,2.6026,2.3458,2.4486,2.5347,2.5773,2.5779,2.5306,2.3849,2.2794,2.1683,2.0042,1.8855,1.8058,1.7847,1.7859,1.8318,1.96,2.0736,2.1945,2.339,2.4503,2.5264,2.5524,2.6042,2.6511,2.6845,2.7009,2.7496,2.8436,2.8108,2.811,2.8631,2.8671,2.8804,2.9041,2.9055,2.9202,2.9539,2.9793,2.9766,2.9486,2.9219,2.8881,2.8591,2.8366,2.8245,2.8245,2.8205,2.8058,2.7816,2.7736,2.7402,2.6934,2.6894,2.6707,2.6453,2.6453,2.6426,2.6386,2.6386,2.6386,2.6386,2.6386,2.6386,2.6386,2.6386,2.6386,2.6386,2.6386,2.6386,2.6386,2.6386,2.6413,2.644,2.64,2.6453,2.648,2.6413,2.6386,2.6386,2.6386,2.6426,2.6453,2.6453,2.648,2.6493,2.6453,2.6453,2.6426,2.6386,2.6386,2.6386,2.6386,2.6613,2.6774,2.6814,2.6787,2.6707,2.6466,2.6453,2.6333,2.6118,2.6118,2.6131,2.6172,2.5879,2.5879,2.6172,2.6426,2.6507,2.6507,2.672,2.6694,2.3956,2.4574,2.5059,2.5142,2.4685,2.3906,2.2797,2.1412,2.0005,1.8826,1.7889,1.7286,1.7266,1.7605,1.8197,1.9104,2.0325,2.1498,2.2441,2.3642,2.4477,2.4744,2.5588,2.6198,2.6241,2.7136,2.7843,2.8033,2.8509,2.8815,2.8921,2.8921,2.9098,2.9392,2.9406,2.9553,2.9833,2.9887,2.9766,2.9486,2.9432,2.9125,2.8604,2.8551,2.8524,2.8511,2.8299,2.8299,2.8417,2.7909,2.7642,2.7522,2.7281,2.7014,2.6747,2.6747,2.66,2.6386,2.6386,2.6386,2.6386,2.6386,2.6386,2.6386,2.6386,2.6386,2.6386,2.6386,2.6386,2.6386,2.6386,2.656,2.668,2.6453,2.676,2.7028,2.6493,2.6386,2.6386,2.6386,2.6587,2.6747,2.6747,2.6947,2.7028,2.6787,2.6747,2.6653,2.6426,2.6386,2.6386,2.6386,2.6426,2.656,2.676,2.6787,2.676,2.6747,2.6747,2.672,2.668,2.6667,2.6787,2.7068,2.7028,2.7028,2.7081,2.7135,2.7148,2.7148,2.6907,2.68,2.4258,2.48,2.5102,2.4692,2.4021,2.308,2.1776,2.0337,1.9,1.8088,1.7237,1.6754,1.7044,1.7298,1.7847,1.8935,1.9999,2.1063,2.2151,2.3285,2.4138,2.4535,2.5264,2.5909,2.6271,2.704,2.7762,2.8321,2.8916,2.9272,2.9272,2.9375,2.9522,2.97,2.9713,2.978,2.9913,2.9913,2.9847,2.9713,2.9553,2.9339,2.9058,2.8898,2.8831,2.8775,2.8671,2.8698,2.8804,2.8524,2.831,2.8163,2.8016,2.7682,2.7281,2.7281,2.7001,2.6613,2.6613,2.652,2.6386,2.6386,2.6386,2.6386,2.6386,2.6386,2.6426,2.6573,2.672,2.6881,2.7028,2.7295,2.7523,2.7376,2.7443,2.7415,2.7134,2.6827,2.6667,2.6814,2.6827,2.6867,2.7028,2.7215,2.7255,2.7068,2.6921,2.6734,2.6627,2.6613,2.656,2.64,2.652,2.6667,2.6774,2.6961,2.7054,2.7054,2.7054,2.7054,2.7054,2.7054,2.7121,2.7309,2.7309,2.7309,2.7309,2.7456,2.7456,2.7309,2.7268,2.7108,2.4342,2.4849,2.5053,2.4366,2.355,2.249,2.0894,1.9503,1.8263,1.7406,1.6682,1.6396,1.6911,1.7056,1.7491,1.8741,1.9612,2.0567,2.1788,2.2887,2.3764,2.4342,2.4945,2.561,2.6284,2.6834,2.7551,2.8593,2.9229,2.9579,2.9579,2.9793,2.9913,2.9913,2.9913,2.9913,2.9913,2.9913,2.9913,2.9913,2.9686,2.9539,2.9472,2.9245,2.9095,2.9081,2.9028,2.9028,2.9081,2.9028,2.8868,2.8698,2.8698,2.8323,2.7789,2.7789,2.7428,2.6921,2.6921,2.676,2.6573,2.6573,2.6493,2.6386,2.6386,2.6426,2.6547,2.6841,2.7134,2.7469,2.7722,2.8058,2.8299,2.8366,2.8098,2.7816,2.7883,2.7482,2.7175,2.7443,2.7321,2.7281,2.7509,2.7643,2.7629,2.7603,2.7348,2.7175,2.7121,2.7108,2.7014,2.6787,2.6854,2.6947,2.7001,2.7175,2.7336,2.7403,2.7403,2.7403,2.7403,2.7456,2.7496,2.7496,2.7496,2.7496,2.7496,2.7682,2.7724,2.7496,2.7629,2.7455,2.4017,2.4439,2.4583,2.427,2.3273,2.1958,2.0362,1.8947,1.7689,1.6634,1.6151,1.6091,1.6634,1.6936,1.737,1.8227,1.9056,1.9878,2.0724,2.197,2.3082,2.3788,2.4571,2.5234,2.5827,2.6573,2.7341,2.8131,2.9236,2.9873,2.9873,2.99,2.9913,2.9913,2.9913,2.9913,2.9913,2.9913,2.9913,2.9913,2.9887,2.974,2.9486,2.9459,2.9446,2.9432,2.9108,2.9192,2.9419,2.9152,2.8988,2.8961,2.8961,2.8631,2.8138,2.8138,2.7777,2.7269,2.7269,2.7242,2.7229,2.7229,2.6867,2.6386,2.6386,2.6573,2.6841,2.7134,2.7428,2.7722,2.8072,2.8379,2.8631,2.8855,2.8524,2.8219,2.8457,2.8299,2.8072,2.8098,2.8312,2.8444,2.8484,2.8655,2.8748,2.8524,2.8457,2.8337,2.8098,2.8058,2.8058,2.8031,2.7576,2.7335,2.7602,2.7402,2.7416,2.7642,2.7655,2.7655,2.7655,2.7965,2.8098,2.8098,2.8098,2.8098,2.8098,2.8125,2.8125,2.8098,2.7816,2.7669,2.3336,2.3949,2.4251,2.3671,2.2804,2.1607,1.983,1.8524,1.7411,1.6477,1.6079,1.6054,1.6598,1.6791,1.7117,1.7943,1.8608,1.931,2.012,2.1377,2.2453,2.3056,2.4118,2.4969,2.5499,2.6412,2.7536,2.8906,2.9911,3.0368,3.0194,3.0007,2.9913,2.9913,2.9913,2.9913,2.9913,2.9913,2.9913,2.9913,2.9913,2.986,2.974,2.974,2.974,2.974,2.9619,2.9633,2.974,2.9619,2.9522,2.9553,2.9379,2.9058,2.8657,2.8484,2.8043,2.7522,2.7522,2.7522,2.7522,2.7522,2.7495,2.7456,2.7228,2.7388,2.7724,2.7989,2.8283,2.8577,2.8915,2.9165,2.9419,2.9539,2.9112,2.8711,2.8801,2.835,2.7965,2.8152,2.8138,2.8123,2.8339,2.846,2.8524,2.8591,2.8444,2.8393,2.8417,2.8417,2.8417,2.8417,2.8085,2.7804,2.7709,2.7589,2.7575,2.7696,2.7696,2.7776,2.8005,2.8125,2.8179,2.8179,2.8179,2.8179,2.8179,2.8179,2.8179,2.8179,2.8058,2.7911,2.2357,2.3043,2.3406,2.2877,2.2079,2.099,1.9261,1.8082,1.7141,1.6359,1.6079,1.6151,1.661,1.6767,1.702,1.7689,1.8246,1.8794,1.9446,2.0712,2.18,2.249,2.3635,2.4656,2.5439,2.6753,2.8104,2.9403,3.0307,3.0662,3.0426,3.0167,3.0007,2.9913,2.9913,2.9913,2.9913,2.9913,2.9913,2.9913,2.9913,2.9913,2.9913,2.9913,2.9913,2.9913,2.9913,2.9913,2.9913,2.9913,2.986,2.9766,2.9566,2.9245,2.8841,2.8684,2.8283,2.7843,2.7936,2.7963,2.7976,2.807,2.8297,2.854,2.8283,2.8257,2.8379,2.8644,2.8961,2.9308,2.9553,2.9766,2.99,2.9806,2.9539,2.9255,2.9255,2.8871,2.8577,2.8915,2.8727,2.8551,2.8807,2.8767,2.8781,2.8965,2.8804,2.8794,2.8965,2.8991,2.8991,2.8991,2.8804,2.8511,2.8123,2.7936,2.7871,2.7871,2.7749,2.7789,2.8045,2.8138,2.8179,2.8179,2.8179,2.8179,2.8179,2.8179,2.8179,2.8179,2.8179,2.8031,2.1172,2.1728,2.1933,2.1921,2.1111,1.9941,1.8601,1.7672,1.6863,1.6054,1.6103,1.6396,1.6646,1.6911,1.7177,1.7472,1.7937,1.8396,1.8662,1.9878,2.1111,2.2175,2.32,2.433,2.5656,2.7683,2.8996,2.9276,3.0228,3.0662,3.0426,3.04,3.0221,2.9927,2.9913,2.9913,2.9913,2.9913,2.9913,2.9913,2.9913,2.9913,2.9913,2.9913,2.9913,2.9913,2.9913,2.9913,2.9913,2.9913,2.9753,2.9486,2.9486,2.9125,2.8604,2.8604,2.8446,2.8219,2.8484,2.8591,2.8644,2.8895,2.9232,2.9472,2.9459,2.9058,2.8657,2.8908,2.9415,2.9913,2.9913,2.9913,2.9847,2.9553,2.97,2.9913,2.9913,3.0127,3.0467,3.0715,3.0574,3.0386,3.0386,3.01,2.99,2.99,2.99,2.99,2.99,2.99,2.99,2.99,2.99,2.9659,2.9028,2.8484,2.8179,2.8179,2.7856,2.7696,2.7709,2.8031,2.8179,2.8179,2.8179,2.8179,2.8179,2.8179,2.8179,2.8179,2.8179,2.8031,1.9551,2.0204,2.0507,2.0313,1.9878,1.914,1.781,1.7141,1.6646,1.6018,1.6103,1.6368,1.6646,1.6911,1.7266,1.7714,1.8058,1.8505,1.9165,2.0083,2.1027,2.1921,2.3575,2.5077,2.6222,2.8037,2.9288,2.9568,3.0713,3.1183,3.0675,3.0662,3.0434,2.9927,2.9913,2.9913,2.9913,2.9913,2.9913,2.9913,2.9913,2.9913,2.9913,2.9913,2.9913,2.9913,2.9913,2.9913,2.99,2.97,2.9566,2.9446,2.9045,2.8778,2.8577,2.8406,2.8406,2.847,2.8577,2.8871,2.9219,2.9312,2.9539,2.978,2.978,2.9646,2.9526,2.9575,2.9735,2.9913,2.9913,2.9913,2.99,2.9806,2.9847,2.9913,2.9913,2.9993,3.0087,3.0181,3.0114,2.9993,2.9838,2.9686,2.9619,2.9619,2.9619,2.9686,2.9887,2.9913,2.9913,2.9913,2.9913,2.9766,2.9379,2.8978,2.8671,2.847,2.8219,2.8045,2.8045,2.8138,2.8179,2.8179,2.8179,2.8179,2.8179,2.8179,2.8179,2.8179,2.8179,2.8138,1.7895,1.8596,1.8947,1.8669,1.8475,1.8058,1.702,1.6585,1.6332,1.6091,1.6247,1.6525,1.6803,1.7068,1.7382,1.7835,1.8137,1.8541,1.9249,2.0132,2.122,2.2597,2.4287,2.5716,2.6789,2.821,2.928,2.9801,3.0708,3.1115,3.0822,3.0688,3.0408,2.9927,2.9913,2.9913,2.9913,2.9913,2.9913,2.9913,2.9913,2.9913,2.9913,2.9913,2.9913,2.9913,2.9913,2.9913,0.0,2.9606,2.9419,2.9272,2.8791,2.8604,2.8577,2.839,2.8511,2.8791,2.8898,2.9179,2.9499,2.9606,2.9766,2.99,2.978,2.9833,2.9913,2.9913,2.9913,2.9913,2.9913,2.9913,2.9887,2.978,2.9927,3.0087,3.0087,3.0261,3.0448,3.0555,3.0488,3.0354,3.0167,2.9953,2.9864,2.9864,2.9864,2.9887,3.006,3.0181,3.0207,3.01,3.0087,2.9967,2.9673,2.9228,2.8921,2.8778,2.8419,2.8179,2.8179,2.8179,2.8179,2.8179,2.8179,2.8179,2.8179,2.8179,2.8179,2.8179,2.8179,2.8179,0.0,1.696,1.7339,1.7068,1.7008,1.6863,1.6371,1.6057,0.0,1.6226,1.6489,1.6779,1.7044,1.7322,1.7629,1.7895,1.8143,1.8517,1.9092,2.0132,2.1667,2.3945,2.515,2.6198,2.7317,2.8131,2.9027,3.0004,3.0346,3.0589,3.0782,3.056,3.0266,2.99,2.9887,2.99,2.9913,2.9913,2.9913,2.9913,2.9913,2.9913,2.9913,2.9913,2.9913,2.9913,2.9913,2.99,2.986,2.9579,2.9272,2.8935,2.8684,2.8591,2.8604,2.8604,2.8761,2.9068,2.9392,2.9499,2.9566,2.9833,2.9913,2.986,2.9593,2.97,2.9913,2.9913,2.9913,2.9913,2.9913,2.9913,2.9847,2.9579,3.0012,3.044,3.044,3.0849,3.1343,3.1657,3.145,3.1249,3.1176,3.0782,3.0467,3.044,3.044,3.044,3.044,3.0621,3.0675,3.044,3.04,3.0234,2.994,2.9335,2.9001,2.9001,2.8513,2.8179,2.8179,2.8179,2.8179,2.8179,2.8179,2.8179,2.8179,2.8179,2.8179,2.8179,2.8179,2.8179,1.504,0.0,1.6247,1.6187,1.6175,1.6091,0.0,1.5632,1.5668,1.5934,1.6368,1.6779,1.7044,1.7496,1.7907,1.8155,1.842,1.8855,1.9624,2.1172,2.2804,2.4306,2.5258,2.6198,2.7317,2.8131,2.894,2.9737,3.023,3.0497,3.0488,3.044,3.0172,2.9606,2.9579,2.9686,2.9913,2.9913,2.9913,2.9913,2.9913,2.9913,2.9913,2.9913,2.9913,2.9913,2.9913,2.9793,2.9566,2.9259,2.8935,2.8684,2.8419,2.8433,2.8604,2.8604,2.8938,2.9392,2.9459,2.9633,2.982,2.99,2.9913,2.99,2.9833,2.986,2.9913,2.9913,2.9913,2.9913,2.9913,2.9913,2.99,2.9833,3.0261,3.0688,3.0688,3.1156,3.1631,3.1698,3.1657,3.149,3.1216,3.1116,3.0942,3.0728,3.0688,3.0688,3.0688,3.0755,3.0675,3.044,3.04,3.0234,2.994,2.9335,2.9001,2.9001,2.8513,2.8179,2.8179,2.8179,2.8179,2.8179,2.8179,2.8179,2.8179,2.8179,2.8179,2.8179,2.8179,2.8179,1.4642,1.5113,1.5535,1.5535,1.562,1.568,1.5535,1.5596,1.5789,1.6187,1.6585,1.696,1.7225,1.7629,1.7992,1.8251,1.8645,1.9346,2.0652,2.2078,2.3514,2.48,2.5547,2.6387,2.7329,2.8008,2.8669,2.9458,2.9881,3.0195,3.0381,3.0145,2.9851,2.9499,2.9352,2.9419,2.9713,2.9713,2.978,2.9913,2.9913,2.9913,2.9913,2.9913,2.9847,2.9713,2.9713,2.9553,2.9272,2.9068,2.8908,2.8791,2.8617,2.8738,2.8991,2.8858,2.9098,2.9486,2.9486,2.9673,2.99,2.9766,2.9806,2.9887,2.9753,2.9806,2.9913,2.9913,2.9913,2.9913,2.9913,2.9913,2.9953,3.0087,3.0461,3.0822,3.0969,3.1343,3.1711,3.1711,3.1711,3.1623,3.1463,3.1316,3.1169,3.1022,3.0996,3.0996,3.0996,3.1116,3.1076,3.0795,3.0755,3.0581,3.0154,2.97,2.9282,2.9015,2.8604,2.8339,2.8192,2.8179,2.8179,2.8179,2.8179,2.8179,2.8179,2.8179,2.8179,2.8179,2.8179,2.8179,1.4752,1.5017,1.5234,1.5234,1.5427,1.562,1.562,1.5789,1.6091,1.6598,1.6911,1.7177,1.7491,1.7822,1.8125,1.842,1.9056,2.0059,2.1728,2.2838,2.3957,2.5246,2.5861,2.6532,2.7432,2.7873,2.8465,2.9271,2.9493,2.9781,3.0234,2.9798,2.9446,2.9352,2.9098,2.9098,2.9352,2.9392,2.9539,2.9735,2.9833,2.982,2.9735,2.9833,2.9686,2.9419,2.9419,2.9245,2.8935,2.8975,2.8975,2.8935,2.8935,2.9152,2.9379,2.9041,2.9192,2.9486,2.9539,2.9713,2.9873,2.9633,2.9713,2.9873,2.9619,2.9726,2.9913,2.9913,2.9913,2.9913,2.9913,2.9913,2.9993,3.0333,3.0581,3.0875,3.1122,3.1463,3.1711,3.1711,3.1711,3.1711,3.1711,3.1463,3.1289,3.1289,3.1289,3.1289,3.1289,3.1517,3.1557,3.1263,3.1176,3.1009,3.052,3.0154,2.9753,2.9161,2.8858,2.8537,2.8272,2.8205,2.8179,2.8179,2.8179,2.8179,2.8179,2.8179,2.8179,2.8179,2.8179,2.8179,1.5307,1.5571,1.5765,1.5765,1.597,1.619,1.619,1.6214,1.6335,1.6634,1.6911,1.7237,1.775,1.8258,1.8753,1.9237,2.035,2.1401,2.2139,2.3116,2.415,2.5258,2.5861,2.6666,2.7903,2.8057,2.8482,2.9462,2.9573,2.9598,2.9646,2.9526,2.9259,2.8751,2.8698,2.8698,2.8738,2.8935,2.9081,2.9135,2.9432,2.9419,2.9135,2.9432,2.9392,2.9068,2.9068,2.8895,2.8698,2.8895,2.8855,2.8671,2.8671,2.8815,2.9028,2.8778,2.9018,2.9526,2.9766,2.9887,2.9913,2.986,2.9887,2.9913,2.986,2.9887,2.9913,2.9913,2.9913,2.9913,2.9913,2.9913,2.9993,3.0333,3.0581,3.0875,3.1122,3.1463,3.1711,3.1711,3.1711,3.1711,3.1711,3.1684,3.1597,3.1597,3.1597,3.1597,3.1597,3.1684,3.1557,3.1263,3.1176,3.1089,3.0755,3.0461,3.014,2.9806,2.9228,2.8801,2.8551,2.8326,2.8179,2.8179,2.8179,2.8179,2.8179,2.8179,2.8179,2.8179,2.8179,2.8179,1.5469,1.5897,1.6328,1.6311,1.6416,1.6513,1.6513,1.673,1.6988,1.7121,1.7455,1.7817,1.8058,1.8541,1.9237,2.0204,2.1244,2.2175,2.2814,2.3655,2.4571,2.5499,2.6207,2.6972,2.7818,2.838,2.8879,2.9345,2.9485,2.9543,2.9499,2.9179,2.8885,2.8617,2.8444,2.8393,2.8393,2.8526,2.8711,2.9001,2.9179,2.9135,2.9001,2.9179,2.9085,2.8761,2.8761,2.8631,2.8419,2.8684,2.8724,2.8617,2.8778,2.8881,2.8988,2.8841,2.8975,2.9285,2.9579,2.978,2.9913,2.9913,2.9913,2.9913,2.9913,2.9913,2.9913,2.9913,2.9913,2.9953,3.0114,3.0154,3.0274,3.0715,3.0929,3.1102,3.1396,3.157,3.1711,3.1711,3.1711,3.1711,3.1711,3.1711,3.1711,3.1711,3.1711,3.1711,3.1711,3.1711,3.1623,3.1476,3.1463,3.1343,3.1049,3.0902,3.0501,2.9726,2.9228,2.8935,2.8801,2.8551,2.8433,2.8433,2.8272,2.8179,2.8179,2.8179,2.8179,2.8179,2.8179,2.8179,1.5771,1.6282,1.6822,1.6885,1.6952,1.6972,1.6972,1.7411,1.7798,1.7798,1.8143,1.8524,1.8678,1.9285,2.016,2.1304,2.2139,2.2862,2.3499,2.4222,2.4975,2.578,2.6456,2.7102,2.7725,2.8533,2.9012,2.9122,2.9274,2.9352,2.9285,2.8858,2.8577,2.8497,2.8312,2.8179,2.8179,2.8179,2.8419,2.8831,2.8855,2.8855,2.8831,2.8868,2.8778,2.8497,2.8497,2.8406,2.8205,2.8484,2.8604,2.8631,2.8815,2.8895,2.8908,2.8975,2.9041,2.9148,2.9486,2.9726,2.9913,2.9913,2.9913,2.9913,2.9913,2.9913,2.9927,3.0007,3.002,3.0074,3.0346,3.0453,3.0595,3.1102,3.1176,3.1303,3.161,3.1711,3.1711,3.1711,3.1711,3.1711,3.1711,3.1711,3.1711,3.1711,3.1711,3.1711,3.1711,3.1711,3.1711,3.1711,3.1711,3.1543,3.1249,3.1122,3.0715,2.9753,2.9352,2.9095,2.9095,2.8815,2.8671,2.8604,2.8419,2.8259,2.8179,2.8179,2.8179,2.8179,2.8179,2.8179,1.6561,1.6829,1.7163,1.7469,1.7683,1.7822,1.7822,1.8234,1.8601,1.8601,1.885,1.9224,1.9779,2.0938,2.1969,2.2516,2.3212,2.38,2.4101,2.462,2.5246,2.6006,2.6345,2.6903,2.7896,2.8191,2.8504,2.8809,2.8969,2.8908,2.8684,2.8631,2.847,2.8232,2.8192,2.8179,2.8179,2.8179,2.8205,2.8259,2.8497,2.8484,2.8259,2.8511,2.847,2.8219,2.8219,2.8205,2.8205,2.8484,2.8604,2.8604,2.8631,2.8644,2.8671,2.8895,2.9219,2.9499,2.978,2.99,2.9913,2.9913,2.9913,2.9913,2.9913,2.9913,2.998,3.0293,3.0373,3.0386,3.04,3.0555,3.0835,3.1156,3.1176,3.1303,3.161,3.1711,3.1711,3.1711,3.1711,3.1711,3.1711,3.1711,3.1711,3.1711,3.1711,3.1711,3.1711,3.1711,3.1711,3.1711,3.1711,3.1543,3.1249,3.0982,3.0675,3.036,2.9811,2.9446,2.9446,2.9165,2.8841,2.8604,2.8591,2.843,2.8179,2.8179,2.8179,2.8179,2.8179,2.8179,1.6742,1.7157,1.7642,1.7618,1.8177,1.8756,1.8756,1.9362,1.9988,2.0359,2.0647,2.0889,2.1015,2.1778,2.2566,2.3237,2.4207,2.5063,2.55,2.5887,2.6266,2.6712,2.6881,2.7139,2.7706,2.8124,2.8417,2.8535,2.8678,2.8724,2.8617,2.843,2.8312,2.8192,2.8179,2.8179,2.8179,2.8179,2.8179,2.8179,2.8299,2.8299,2.8192,2.8312,2.8299,2.8179,2.8179,2.8179,2.8192,2.8312,2.8366,2.8366,2.8366,2.843,2.8644,2.8895,2.9232,2.9526,2.982,2.9913,2.9913,2.9913,2.9913,2.9913,2.9913,2.9913,2.998,3.0319,3.0533,3.0675,3.0849,3.0982,3.1142,3.1436,3.1503,3.153,3.1684,3.1711,3.1711,3.1711,3.1711,3.1711,3.1711,3.1711,3.1711,3.1711,3.1711,3.1711,3.1711,3.1711,3.1711,3.1711,3.1711,3.1671,3.1517,3.1062,3.0742,3.0635,3.0074,2.9753,2.9753,2.9472,2.9259,2.9152,2.8791,2.8551,2.843,2.8272,2.8179,2.8179,2.8179,2.8179,1.7016,1.7473,1.7983,1.8017,1.879,1.968,2.0073,2.0535,2.1012,2.1641,2.2197,2.2489,2.2231,2.2833,2.3501,2.4001,2.5004,2.5921,2.6427,2.6542,2.6689,2.705,2.6947,2.7005,2.7414,2.7853,2.8143,2.8234,2.8416,2.8457,2.8457,2.8299,2.8179,2.8179,2.8179,2.8179,2.8179,2.8179,2.8179,2.8179,2.8179,2.8179,2.8179,2.8179,2.8179,2.8179,2.8179,2.8179,2.8179,2.8179,2.8179,2.8179,2.8179,2.8379,2.8644,2.8895,2.9232,2.9526,2.982,2.9913,2.9913,2.9913,2.9913,2.9913,2.9913,2.9913,2.9993,3.0381,3.0635,3.0875,3.1263,3.137,3.1423,3.1671,3.1711,3.1711,3.1711,3.1711,3.1711,3.1711,3.1711,3.1711,3.1711,3.1711,3.1711,3.1711,3.1711,3.1711,3.1711,3.1711,3.1711,3.1711,3.1711,3.1711,3.1711,3.1129,3.0795,3.0795,3.0247,2.9913,2.9913,2.9726,2.9579,2.9486,2.9085,2.8791,2.8604,2.8433,2.8286,2.8179,2.8179,2.8179,1.7527,1.7806,1.8154,1.8759,1.9562,2.0517,2.1724,2.1684,2.1599,2.2195,2.3277,2.3963,2.3404,2.4176,2.4907,2.4926,2.5533,2.6201,2.6707,2.6401,2.6273,2.6741,2.6401,2.6416,2.7122,2.7388,2.7604,2.7878,2.8098,2.8179,2.8179,2.8179,2.8179,2.8179,2.8179,2.8179,2.8179,2.8179,2.8179,2.8179,2.8179,2.8179,2.8179,2.8179,2.8179,2.8179,2.8179,2.8179,2.8179,2.8179,2.8179,2.8179,2.8179,2.8379,2.8644,2.8881,2.9219,2.9526,2.9806,2.9913,2.9913,2.9913,2.9913,2.9913,2.9913,2.9913,3.0047,3.0635,3.0795,3.0929,3.1564,3.1711,3.1711,3.1711,3.1711,3.1711,3.1711,3.1711,3.1711,3.1711,3.1711,3.1711,3.1711,3.1711,3.1711,3.1711,3.1711,3.1711,3.1711,3.1711,3.1711,3.1711,3.1711,3.1711,3.1711,3.1129,3.0795,3.0795,3.0247,2.9913,2.9913,2.9913,2.978,2.9499,2.9486,2.9205,2.8617,2.8604,2.8444,2.8192,2.8179,2.8179,1.7578,1.7935,1.8368,1.8787,1.9828,2.099,2.1824,2.2563,2.343,2.4655,2.5194,2.5291,2.4868,2.5256,2.5687,2.5784,2.6587,2.721,2.7295,2.7177,2.7135,2.7262,2.6881,2.6821,2.7336,2.7441,2.7513,2.7604,2.7992,2.8179,2.8179,2.8179,2.8179,2.8179,2.8179,2.8179,2.8179,2.8179,2.8179,2.8179,2.8179,2.8179,2.8179,2.8179,2.8179,2.8179,2.8179,2.8179,2.8179,2.8179,2.8179,2.8179,2.8179,2.8379,2.8617,2.8711,2.8881,2.9135,2.9228,2.9432,2.9619,2.9619,2.9753,2.9913,2.9913,2.9913,3.0047,3.0635,3.0795,3.0929,3.1564,3.1711,3.1711,3.1711,3.1711,3.1711,3.1711,3.1711,3.1711,3.1711,3.1711,3.1711,3.1711,3.1711,3.1711,3.1711,3.1711,3.1711,3.1711,3.1711,3.1711,3.1711,3.1711,3.1583,3.137,3.1009,3.0702,3.0547,3.0127,2.9913,2.9913,2.9913,2.9873,2.9793,2.9593,2.9406,2.9219,2.8804,2.8564,2.847,2.8286,2.8179,1.7767,1.8156,1.865,1.909,2.0208,2.1588,2.3057,2.3941,2.4783,2.5944,2.6359,2.64,2.595,2.6228,2.6547,2.6538,2.7015,2.744,2.7477,2.7347,2.722,2.722,2.6965,2.6965,2.7431,2.7487,2.7571,2.777,2.8023,2.8179,2.8179,2.8179,2.8179,2.8179,2.8179,2.8179,2.8179,2.8179,2.8179,2.8179,2.8179,2.8179,2.8179,2.8179,2.8179,2.8179,2.8179,2.8179,2.8179,2.8179,2.8179,2.8179,2.8179,2.8299,2.8444,2.8564,2.8724,2.8841,2.8961,2.9108,2.9325,2.9446,2.9606,2.9766,2.9887,2.9913,3.0047,3.0635,3.0795,3.0929,3.1564,3.1711,3.1711,3.1711,3.1711,3.1711,3.1711,3.1711,3.1711,3.1711,3.1711,3.1711,3.1711,3.1711,3.1711,3.1711,3.1711,3.1711,3.1711,3.1711,3.1671,3.1503,3.149,3.1423,3.1236,3.0955,3.0768,3.0702,3.0314,3.01,3.01,2.998,2.9913,2.9913,2.974,2.9606,2.9486,2.9125,2.8898,2.8735,2.847,2.8366,1.8035,1.8433,1.897,1.9609,2.076,2.2416,2.4964,2.5573,2.5798,2.6386,2.6934,2.7226,2.6762,2.7049,2.7319,2.7171,2.7111,2.7216,2.7448,2.7135,2.6881,2.6881,2.6881,2.705,2.7529,2.7558,2.7728,2.8179,2.8179,2.8179,2.8179,2.8179,2.8179,2.8179,2.8179,2.8179,2.8179,2.8179,2.8179,2.8179,2.8179,2.8179,2.8179,2.8179,2.8179,2.8179,2.8179,2.8179,2.8179,2.8179,2.8179,2.8179,2.8179,2.8179,2.8219,2.8457,2.8564,2.8604,2.8828,2.8935,2.9001,2.9352,2.9459,2.9539,2.9833,2.9913,3.0034,3.0595,3.0768,3.0915,3.1537,3.1698,3.1711,3.1711,3.1711,3.1711,3.1711,3.1711,3.1711,3.1711,3.1711,3.1711,3.1711,3.1711,3.1711,3.1711,3.1711,3.1711,3.1711,3.1711,3.1557,3.1263,3.1249,3.1203,3.1196,3.0969,3.0929,3.1169,3.0662,3.04,3.04,3.0074,2.9913,2.9913,2.9913,2.978,2.9526,2.9499,2.9339,2.9028,2.8778,2.8631,1.826,1.8681,1.9268,2.0183,2.2023,2.3974,2.5386,2.6136,2.6707,2.7295,2.7522,2.7561,2.7478,2.7561,2.7587,2.7571,2.7771,2.7817,2.7558,2.7389,2.7347,2.7347,2.7347,2.7516,2.8023,2.8065,2.8108,2.8179,2.8179,2.8179,2.8179,2.8179,2.8179,2.8179,2.8179,2.8179,2.8179,2.8179,2.8179,2.8179,2.8179,2.8179,2.8179,2.8179,2.8179,2.8179,2.8179,2.8179,2.8179,2.8179,2.8179,2.8179,2.8179,2.8179,2.8192,2.8259,2.8286,2.8286,2.8353,2.8497,2.8751,2.9001,2.9299,2.9539,2.9833,2.9913,2.9993,3.04,3.0667,3.0875,3.1223,3.149,3.1711,3.1711,3.1711,3.1711,3.1711,3.1711,3.1711,3.1711,3.1711,3.1711,3.1711,3.1711,3.1711,3.1711,3.1711,3.1711,3.1711,3.1711,3.1557,3.1263,3.1436,3.1383,3.0929,3.1036,3.1062,3.0902,3.06,3.04,3.04,3.0074,2.9913,2.9913,2.9913,2.9887,2.982,2.9593,2.9446,2.9379,2.9041,2.8775,1.8553,1.8958,1.965,2.0977,2.2662,2.4256,2.5256,2.6119,2.6835,2.7326,2.7691,2.7951,2.7951,2.7951,2.7951,2.7951,2.7917,2.777,2.7529,2.7487,2.7487,2.7487,2.7685,2.7939,2.8192,2.8179,2.8179,2.8179,2.8179,2.8179,2.8179,2.8179,2.8179,2.8179,2.8179,2.8179,2.8179,2.8179,2.8179,2.8179,2.8179,2.8179,2.8179,2.8179,2.8179,2.8179,2.8179,2.8179,2.8179,2.8179,2.8179,2.8179,2.8179,2.8179,2.8179,2.8179,2.8179,2.8179,2.8179,2.8286,2.843,2.8738,2.9032,2.9325,2.9619,2.9806,2.998,3.0319,3.052,3.0688,3.1116,3.1343,3.149,3.1684,3.1711,3.1711,3.1711,3.1711,3.1711,3.1711,3.1711,3.1711,3.1711,3.1711,3.1711,3.1711,3.1711,3.1711,3.1711,3.1711,3.1557,3.1263,3.137,3.133,3.1022,3.1142,3.1223,3.1209,3.0855,3.0614,3.0614,3.0154,2.9913,2.9913,2.9913,2.9913,2.9913,2.9766,2.9686,2.9686,2.9392,2.9098,1.8864,1.934,2.0173,2.1639,2.2903,2.4011,2.482,2.5794,2.6626,2.6895,2.7614,2.8179,2.8179,2.8179,2.8179,2.8179,2.7854,2.7601,2.7601,2.7601,2.7601,2.7601,2.7981,2.8179,2.8179,2.8179,2.8179,2.8179,2.8179,2.8179,2.8179,2.8179,2.8179,2.8179,2.8179,2.8179,2.8179,2.8179,2.8179,2.8179,2.8179,2.8179,2.8179,2.8179,2.8179,2.8179,2.8179,2.8179,2.8179,2.8179,2.8179,2.8179,2.8179,2.8179,2.8179,2.8179,2.8179,2.8179,2.8179,2.8179,2.8232,2.8511,2.8764,2.8988,2.9379,2.9646,2.99,3.0207,3.036,3.052,3.0955,3.1156,3.1289,3.153,3.1684,3.1711,3.1711,3.1711,3.1711,3.1711,3.1711,3.1711,3.1711,3.1711,3.1711,3.1711,3.1711,3.1711,3.1711,3.1711,3.1557,3.1263,3.1276,3.1276,3.1176,3.1276,3.1383,3.1583,3.1089,3.0768,3.0715,3.0207,2.9913,2.9913,2.9913,2.9913,2.9913,2.9913,2.9913,2.9913,2.9673,2.9366,1.9095,1.9921,2.0869,2.1447,2.2731,2.4011,2.4464,2.5439,2.631,2.6482,2.7391,2.8179,2.8179,2.8179,2.8179,2.8179,2.8136,2.8108,2.8108,2.8108,2.8108,2.8108,2.815,2.8179,2.8179,2.8179,2.8179,2.8179,2.8179,2.8179,2.8179,2.8179,2.8179,2.8179,2.8179,2.8179,2.8179,2.8179,2.8179,2.8179,2.8179,2.8179,2.8179,2.8179,2.8179,2.8179,2.8179,2.8179,2.8179,2.8179,2.8179,2.8179,2.8179,2.8179,2.8179,2.8179,2.8179,2.8179,2.8179,2.8179,2.8232,2.8511,2.8631,2.8764,2.9312,2.9513,2.9606,2.9887,3.0167,3.0426,3.0493,3.0849,3.1189,3.1276,3.1476,3.1711,3.1711,3.1711,3.1711,3.1711,3.1711,3.1711,3.1711,3.1711,3.1711,3.1711,3.1711,3.1711,3.1711,3.1711,3.1557,3.1263,3.145,3.1503,3.1203,3.1463,3.1517,3.1303,3.0969,3.0675,3.048,3.01,2.9913,2.9913,2.9913,2.9913,2.9913,2.9913,2.9913,2.9913,2.9873,2.9522,1.9602,2.0124,2.0718,2.1405,2.2288,2.3127,2.36,2.4514,2.5301,2.5543,2.63,2.7054,2.7366,2.7643,2.7812,2.7812,2.8023,2.8179,2.8179,2.8179,2.8179,2.8179,2.8179,2.8179,2.8179,2.8179,2.8179,2.8179,2.8179,2.8179,2.8179,2.8179,2.8179,2.8179,2.8179,2.8179,2.8179,2.8179,2.8179,2.8179,2.8179,2.8179,2.8179,2.8179,2.8179,2.8179,2.8179,2.8179,2.8179,2.8179,2.8179,2.8179,2.8179,2.8179,2.8179,2.8179,2.8179,2.8179,2.8179,2.8179,2.8205,2.8353,2.847,2.8657,2.8911,2.9219,2.9513,2.9633,2.9887,3.0154,3.036,3.0541,3.0822,3.1156,3.133,3.1463,3.1684,3.1711,3.1711,3.1711,3.1711,3.1711,3.1711,3.1711,3.1711,3.1711,3.1711,3.1711,3.1711,3.1711,3.1623,3.149,3.1597,3.1623,3.149,3.1644,3.1543,3.1203,3.0955,3.0662,3.0413,3.0074,2.9913,2.9913,2.9913,2.9913,2.9913,2.9913,2.9913,2.9913,2.9913,2.9686,1.9872,2.0036,2.029,2.1185,2.1701,2.2151,2.2744,2.3612,2.438,2.4594,2.5216,2.5842,2.6197,2.6896,2.7425,2.7425,2.7844,2.8179,2.8179,2.8179,2.8179,2.8179,2.8179,2.8179,2.8179,2.8179,2.8179,2.8179,2.8179,2.8152,2.8072,2.8072,2.8031,2.7965,2.8031,2.8072,2.8072,2.8152,2.8179,2.8179,2.8179,2.8179,2.8179,2.8179,2.8179,2.8179,2.8179,2.8179,2.8179,2.8179,2.8179,2.8179,2.8179,2.8179,2.8179,2.8179,2.8179,2.8179,2.8179,2.8179,2.8179,2.8179,2.8339,2.8497,2.8577,2.8965,2.9392,2.9459,2.9686,2.9967,3.0194,3.0346,3.052,3.0902,3.1116,3.1303,3.161,3.1711,3.1711,3.1711,3.161,3.1557,3.1557,3.1503,3.1476,3.1543,3.1557,3.1583,3.1711,3.1711,3.1711,3.1711,3.1711,3.1711,3.1711,3.1711,3.1543,3.1203,3.1022,3.0768,3.0533,3.0261,3.014,3.014,3.014,3.006,2.9913,2.9913,2.9913,2.9913,2.9913,2.9766,1.9659,1.965,1.9734,2.0616,2.0992,2.1365,2.2163,2.3048,2.3782,2.3835,2.4445,2.4919,2.4737,2.6016,2.7124,2.7124,2.7711,2.8179,2.8179,2.8179,2.8179,2.8179,2.8179,2.8179,2.8179,2.8179,2.8179,2.8179,2.8179,2.8058,2.7736,2.7722,2.7589,2.7362,2.7575,2.7722,2.7722,2.8045,2.8179,2.8179,2.8179,2.8179,2.8179,2.8179,2.8179,2.8179,2.8179,2.8179,2.8179,2.8179,2.8179,2.8179,2.8179,2.8179,2.8179,2.8179,2.8179,2.8179,2.8179,2.8179,2.8179,2.8179,2.8192,2.8259,2.8524,2.8818,2.9081,2.9406,2.9686,2.9913,2.994,3.0154,3.0413,3.044,3.0822,3.1303,3.161,3.1711,3.1711,3.1711,3.1436,3.1249,3.1249,3.1022,3.0929,3.1209,3.1249,3.1356,3.1684,3.1711,3.1711,3.1711,3.1711,3.1711,3.1711,3.1711,3.1543,3.1203,3.1209,3.1076,3.0782,3.0755,3.0755,3.0755,3.0755,3.0474,2.9913,2.9913,2.9913,2.9913,2.9913,2.9766,1.9949,2.011,2.0285,2.0527,2.0891,2.1235,2.1462,2.2189,2.2873,2.3046,2.3548,2.3927,2.3852,2.5229,2.6411,2.6411,2.7109,2.7617,2.7617,2.7617,2.7617,2.7617,2.7617,2.7617,2.7617,2.7617,2.7617,2.7617,2.7617,2.7576,2.7469,2.7415,2.7416,2.7309,2.7403,2.7415,2.7415,2.7709,2.7898,2.7856,2.8098,2.8179,2.8179,2.8179,2.8179,2.8179,2.8179,2.8179,2.8179,2.8179,2.8179,2.8179,2.8179,2.8179,2.8179,2.8179,2.8179,2.8179,2.8179,2.8179,2.8179,2.8179,2.8179,2.8205,2.8312,2.8657,2.9015,2.9165,2.9539,2.9913,2.9913,2.9993,3.0127,3.036,3.0662,3.1022,3.1316,3.153,3.1657,3.1423,3.1303,3.1169,3.0982,3.1022,3.1102,3.1209,3.1383,3.1543,3.1698,3.1711,3.1711,3.1711,3.1711,3.1711,3.1711,3.1711,3.1543,3.1203,3.1176,3.1089,3.0808,3.0795,3.0795,3.0795,3.0795,3.0595,3.0207,3.0207,3.01,2.9913,2.9913,2.986,2.0307,2.042,2.05,2.0618,2.0833,2.099,2.1102,2.1629,2.2178,2.2503,2.2874,2.3212,2.3414,2.4614,2.556,2.5628,2.6425,2.7064,2.7064,2.7064,2.7132,2.7268,2.7309,2.7309,2.7309,2.7309,2.7309,2.7309,2.7309,2.7269,2.7121,2.7121,2.7121,2.7121,2.7121,2.7202,2.7309,2.7496,2.7549,2.7562,2.7898,2.8031,2.8045,2.8138,2.8179,2.8179,2.8179,2.8179,2.8179,2.8179,2.8179,2.8179,2.8179,2.8179,2.8179,2.8179,2.8179,2.8179,2.8179,2.8179,2.8179,2.8179,2.8179,2.8179,2.8179,2.8497,2.8868,2.8961,2.9392,2.9793,2.9887,2.9913,2.9993,3.0333,3.056,3.0728,3.1022,3.1236,3.1343,3.1249,3.1062,3.0902,3.0808,3.0875,3.0996,3.1149,3.1396,3.1557,3.1711,3.1711,3.1711,3.1711,3.1711,3.1711,3.1711,3.1711,3.1583,3.1383,3.137,3.1289,3.1102,3.1089,3.1089,3.1089,3.1089,3.0942,3.0648,3.0493,3.0306,3.006,2.9967,2.9967,0.0,0.0,0.0,2.0844,2.0741,2.0631,2.1065,2.1406,2.1697,2.2165,2.2465,2.2846,2.3459,2.4158,2.4732,2.4845,2.5809,2.6574,2.6574,2.6574,2.6738,2.72,2.7282,2.7282,2.7282,2.7282,2.7282,2.7282,2.7282,2.7108,2.6827,2.6814,2.6814,2.6814,2.6814,2.6947,2.7282,2.7282,2.7296,2.7309,2.7562,2.7709,2.7722,2.8045,2.8179,2.8179,2.8179,2.8179,2.8179,2.8179,2.8179,2.8179,2.8179,2.8179,2.8179,2.8179,2.8179,2.8179,2.8179,2.8179,2.8179,2.8179,2.8179,2.8179,2.8179,2.8406,2.8671,2.8908,2.9245,2.9553,2.9847,2.9913,2.9993,3.0319,3.0386,3.0467,3.0715,3.0768,3.0849,3.1142,3.0742,3.0493,3.0728,3.06,3.0614,3.1142,3.1236,3.1343,3.1684,3.1711,3.1711,3.1711,3.1711,3.1711,3.1711,3.1711,3.1711,3.1711,3.1711,3.1711,3.1711,3.1711,3.1711,3.1711,3.1711,3.1517,3.1176,3.0648,3.0413,3.04,3.006,3.0087,2.0686,0.0,0.0,0.0,0.0,0.0,2.0707,2.0868,2.1123,2.1438,2.169,2.2092,2.2955,2.3681,2.4176,2.4363,2.5305,2.6027,2.6027,2.6027,2.6187,2.6587,2.6627,2.6627,2.6627,2.6627,2.6627,2.6627,2.6627,2.66,2.6507,2.6507,2.6507,2.6507,2.6507,2.6547,2.6627,2.6841,2.7054,2.7309,2.7562,2.7816,2.8072,2.8152,2.8179,2.8179,2.8179,2.8179,2.8179,2.8179,2.8179,2.8179,2.8179,2.8179,2.8179,2.8179,2.8179,2.8179,2.8179,2.8179,2.8179,2.8179,2.8179,2.8179,2.8179,2.8406,2.8631,2.8711,2.9098,2.9553,2.9847,2.9913,2.994,3.002,3.0034,3.0114,3.0467,3.0314,3.0247,3.0541,3.052,3.0426,3.0507,3.0581,3.0795,3.1169,3.141,3.1583,3.1711,3.1711,3.1711,3.1711,3.1711,3.1711,3.1711,3.1711,3.1711,3.1711,3.1711,3.1711,3.1711,3.1711,3.1711,3.1711,3.1711,3.1517,3.1176,3.0849,3.0614,3.04,3.0319,3.0333,2.0855,2.0975,2.1046,2.0856,0.0,0.0,2.0747,2.0801,2.0944,2.1198,2.1341,2.1703,2.2647,2.3269,2.3737,2.4047,2.4726,2.5296,2.557,2.5714,2.5951,2.6347,2.6386,2.6386,2.6386,2.6386,2.6386,2.6386,2.6386,2.6386,2.6386,2.6386,2.6386,2.6386,2.6386,2.6386,2.6386,2.656,2.672,2.6948,2.7362,2.7643,2.7831,2.8072,2.8179,2.8179,2.8179,2.8179,2.8179,2.8179,2.8179,2.8179,2.8179,2.8179,2.8179,2.8179,2.8179,2.8179,2.8179,2.8179,2.8179,2.8179,2.8179,2.8179,2.8179,2.8312,2.8444,2.8577,2.9032,2.9526,2.9686,2.982,2.9913,2.9913,2.9913,2.9967,3.014,3.0034,3.0007,3.0346,3.0306,3.0247,3.0547,3.0675,3.0929,3.1343,3.1557,3.1711,3.1711,3.1711,3.1711,3.1711,3.1711,3.1711,3.1711,3.1711,3.1711,3.1711,3.1711,3.1711,3.1711,3.1711,3.1711,3.1711,3.1711,3.1463,3.1049,3.0875,3.0648,3.04,3.04,3.0533,2.1109,2.1136,2.1162,2.1162,2.1162,0.0,2.1064,2.1006,2.1006,2.1203,2.1251,2.1497,2.2454,2.2862,2.3275,2.3846,2.4162,2.4579,2.5192,2.5492,2.5859,2.6253,2.6293,2.6293,2.6293,2.6293,2.6293,2.6293,2.6293,2.6293,2.6293,2.6319,2.6346,2.6346,2.6373,2.6386,2.6386,2.6386,2.6426,2.6493,2.7055,2.7336,2.7429,2.7951,2.8179,2.8179,2.8179,2.8179,2.8179,2.8179,2.8179,2.8179,2.8179,2.8179,2.8179,2.8179,2.8179,2.8179,2.8179,2.8179,2.8179,2.8179,2.8179,2.8179,2.8179,2.8179,2.8245,2.8524,2.9005,2.9446,2.9472,2.97,2.9913,2.9913,2.9913,2.9913,2.9913,2.9913,2.9993,3.0306,3.01,3.0087,3.0648,3.0768,3.0982,3.1543,3.1698,3.1711,3.1711,3.1711,3.1711,3.1711,3.1711,3.1711,3.1711,3.1711,3.1711,3.1711,3.1711,3.1711,3.1711,3.1711,3.1711,3.1711,3.1684,3.1356,3.0835,3.0808,3.0648,3.04,3.0467,3.0728,2.1109,2.1315,2.1502,2.1502,2.1502,0.0,2.1472,2.1074,2.0753,2.0993,2.0842,2.0943,2.1878,2.2297,2.2701,2.3338,2.3877,2.4391,2.4904,2.5022,2.5216,2.564,2.5678,2.5678,2.5678,2.5678,2.5678,2.5678,2.5678,2.5678,2.5678,2.5944,2.6078,2.6078,2.6305,2.6386,2.6386,2.6386,2.6627,2.7135,2.7255,2.755,2.8018,2.8138,2.8179,2.8179,2.8179,2.8179,2.8179,2.8179,2.8179,2.8179,2.8179,2.8179,2.8179,2.8179,2.8179,2.8179,2.8179,2.8179,2.8179,2.8179,2.8179,2.8179,2.8179,2.8179,2.8245,2.8524,2.8858,2.9179,2.9419,2.97,2.9913,2.9913,2.9913,2.9913,2.9913,2.9913,2.994,2.9993,2.9953,3.0034,3.0426,3.0635,3.0915,3.1263,3.1517,3.1711,3.1711,3.1711,3.1711,3.1711,3.1711,3.1711,3.1711,3.1711,3.1711,3.1711,3.1711,3.1711,3.1711,3.1711,3.1711,3.1711,3.1436,3.1249,3.1142,3.0902,3.0648,3.0413,3.0835,3.1116,2.1296,2.1475,2.1622,2.177,2.1796,0.0,0.0,2.1347,2.108,2.108,2.092,2.0986,2.1648,2.1879,2.2203,2.2972,2.334,2.3759,2.4285,2.4723,2.5063,2.5291,2.5424,2.5518,2.5518,2.5518,2.5518,2.5518,2.5518,2.5518,2.5518,2.5651,2.5732,2.5732,2.6065,2.6212,2.6212,2.6319,2.6533,2.6827,2.6974,2.7201,2.7495,2.7684,2.7831,2.7965,2.7965,2.8045,2.8179,2.8179,2.8179,2.8179,2.8179,2.8179,2.8179,2.8179,2.8179,2.8179,2.8179,2.8179,2.8179,2.8179,2.8179,2.8179,2.8179,2.8179,2.8219,2.8379,2.8591,2.8855,2.9179,2.9486,2.974,2.9887,2.9913,2.9913,2.9913,2.9913,2.9913,2.9913,2.9913,3.0007,3.036,3.052,3.0675,3.0969,3.1129,3.1236,3.1236,3.1356,3.145,3.145,3.1583,3.1711,3.1711,3.1711,3.1711,3.1711,3.1711,3.1711,3.1711,3.1711,3.1711,3.1711,3.1383,3.1176,3.1176,3.1076,3.0929,3.0795,3.1089,3.1303,2.1582,2.1703,2.181,2.2004,2.2071,2.2004,0.0,0.0,0.0,2.1256,2.1189,2.1256,2.1462,2.1542,2.1836,2.2599,2.2773,2.3,2.3549,2.4298,2.477,2.4823,2.5037,2.5184,2.5184,2.5184,2.5197,2.5264,2.5264,2.5277,2.5306,2.5398,2.5424,2.5424,2.5757,2.5931,2.5998,2.6225,2.636,2.648,2.6707,2.6814,2.6921,2.7202,2.7429,2.7615,2.7669,2.7829,2.8098,2.8165,2.8179,2.8179,2.8179,2.8179,2.8179,2.8179,2.8179,2.8179,2.8179,2.8179,2.8179,2.8179,2.8179,2.8179,2.8179,2.8179,2.8179,2.8179,2.8406,2.8671,2.8921,2.9259,2.9553,2.9847,2.9913,2.9913,2.9913,2.9913,2.9913,2.9913,2.9913,2.9993,3.0279,3.0373,3.048,3.0675,3.0755,3.0795,3.0795,3.0996,3.1142,3.1142,3.1356,3.155,3.155,3.155,3.155,3.155,3.155,3.155,3.155,3.1604,3.161,3.1711,3.1436,3.1316,3.1316,3.1316,3.1276,3.1176,3.1289,3.1436,2.189,2.2124,2.2325,2.2365,2.2331,2.2365,2.2325,0.0,2.189,2.1596,0.0,2.1462,2.1203,0.0,0.0,2.2064,2.2298,2.2579,2.296,2.3287,2.3621,2.3924,2.3991,2.4004,2.4004,2.4004,2.4075,2.4329,2.4356,2.4462,2.4679,2.4983,2.5168,2.5168,2.5411,2.5692,2.5998,2.6024,2.6266,2.6734,2.6814,2.6961,2.7255,2.7296,2.7322,2.7376,2.7589,2.7722,2.7762,2.8072,2.8179,2.8179,2.8179,2.8179,2.8179,2.8179,2.8179,2.8179,2.8179,2.8179,2.8179,2.8179,2.8179,2.8179,2.8179,2.8179,2.8179,2.8179,2.8406,2.8671,2.8921,2.9259,2.9553,2.9847,2.9913,2.9913,2.9913,2.9913,2.9913,2.9913,2.9913,2.9927,2.9967,3.0181,3.0413,3.0453,3.0621,3.0795,3.0795,3.0822,3.0849,3.0849,3.0875,3.0889,3.0889,3.0889,3.0889,3.0889,3.0889,3.0889,3.0889,3.1142,3.1396,3.1711,3.1684,3.1623,3.1623,3.1623,3.149,3.1236,3.149,3.1684,2.2164,2.2325,2.2458,2.2632,2.2672,2.2632,2.2425,2.2325,2.2151,2.189,0.0,0.0,0.0,0.0,0.0,0.0,2.2205,2.2271,2.2565,2.2579,2.2726,2.3228,2.3589,2.3803,2.3803,2.3803,2.3857,2.3941,2.3991,2.4075,2.4332,2.4502,2.4649,2.4823,2.5104,2.5398,2.5692,2.5904,2.6198,2.6573,2.6573,2.664,2.68,2.68,2.6854,2.7028,2.7321,2.7549,2.7722,2.8058,2.8179,2.8179,2.8179,2.8179,2.8179,2.8179,2.8179,2.8179,2.8179,2.8179,2.8179,2.8179,2.8179,2.8179,2.8179,2.8179,2.8179,2.8179,2.8272,2.8486,2.8868,2.9081,2.9339,2.9806,2.9913,2.9913,2.9913,2.9913,2.9913,2.9913,2.9913,2.9913,2.9913,3.002,3.01,3.01,3.0207,3.0287,3.0287,3.0434,3.0587,3.0587,3.0688,3.0795,3.0795,3.0795,3.0795,3.0795,3.0795,3.0795,3.0795,3.1076,3.1289,3.141,3.1583,3.1711,3.1711,3.1711,3.161,3.149,3.161,3.1711,2.2458,2.2539,2.2592,2.284,2.2893,2.284,2.2592,2.2539,2.2458,2.2164,2.2111,0.0,0.0,0.0,2.2084,2.2378,0.0,2.2178,2.2358,2.2231,2.2231,2.2612,2.3121,2.3469,2.3549,2.3549,2.3549,2.3549,2.3643,2.3741,2.3955,2.4115,2.4302,2.4479,2.481,2.513,2.5504,2.5732,2.6026,2.6386,2.6386,2.6386,2.6386,2.6386,2.6507,2.672,2.7094,2.7429,2.7602,2.8031,2.8179,2.8179,2.8179,2.8179,2.8179,2.8179,2.8179,2.8179,2.8179,2.8179,2.8179,2.8179,2.8179,2.8179,2.8179,2.8179,2.8179,2.8179,2.8179,2.8326,2.8841,2.9001,2.9148,2.978,2.9913,2.9913,2.9913,2.9913,2.9913,2.9913,2.9913,2.9913,2.9913,2.9913,2.9913,2.9913,2.9913,2.9913,2.9913,3.01,3.0234,3.0234,3.0421,3.0555,3.0555,3.0555,3.0555,3.0555,3.0555,3.0621,3.0782,3.0996,3.1183,3.1343,3.1557,3.1711,3.1711,3.1711,3.1711,3.1711,3.1711,3.1711,2.28,2.288,2.288,2.2893,2.2893,2.2893,2.288,2.288,2.28,2.2472,2.2405,2.2311,2.2031,0.0,0.0,0.0,0.0,0.0,0.0,2.2371,2.2311,2.2044,2.2285,2.2579,2.2893,2.292,2.292,2.292,2.3166,2.3305,2.3319,2.3888,2.4209,2.4222,2.4466,2.4893,2.5504,2.5518,2.5812,2.6386,2.6386,2.6386,2.6386,2.6386,2.6386,2.644,2.7055,2.7309,2.7362,2.7951,2.8179,2.8179,2.8179,2.8179,2.8179,2.8179,2.8179,2.8179,2.8179,2.8179,2.8179,2.8179,2.8179,2.8179,2.8179,2.8179,2.8179,2.8179,2.8179,2.8326,2.8841,2.9001,2.9148,2.978,2.9913,2.9913,2.9913,2.9913,2.9913,2.9913,2.9913,2.9913,2.9913,2.9913,2.9913,2.9913,2.9913,2.9913,2.9913,2.9927,2.9927,2.9927,2.994,2.994,2.994,2.994,2.994,2.994,2.994,3.0207,3.0768,3.0795,3.1076,3.1684,3.1711,3.1711,3.1711,3.1711,3.1711,3.1711,3.1711,3.1711,2.2867,2.2893,2.2893,2.2893,2.2893,2.2947,2.3126,2.3166,2.3193,2.3287,2.3153,2.2958,2.2886,0.0,0.0,0.0,0.0,0.0,0.0,2.1964,2.1917,2.1977,2.2245,2.2539,2.2867,2.2686,2.2565,2.2565,2.2485,2.2605,2.2993,2.3241,2.3581,2.4182,2.4302,2.4716,2.5504,2.5518,2.5812,2.6386,2.6386,2.6386,2.6386,2.6386,2.6386,2.6426,2.7055,2.7309,2.7349,2.7938,2.8179,2.8179,2.8179,2.8179,2.8179,2.8179,2.8179,2.8179,2.8179,2.8179,2.8179,2.8179,2.8179,2.8179,2.8179,2.8179,2.8179,2.8179,2.8339,2.8537,2.8895,2.9148,2.9432,2.982,2.9913,2.9913,2.9913,2.9913,2.9913,2.9913,2.9913,2.9913,2.9913,2.9913,2.9913,2.9913,2.9913,2.9913,2.9913,2.9913,2.9913,2.9913,2.9913,2.9993,3.0194,3.0207,3.0207,3.0207,3.0207,3.0381,3.0782,3.1169,3.1604,3.1944,3.2193,3.2206,3.1957,3.1957,3.1851,3.1711,3.1711,3.1711,2.3188,2.3215,2.3215,2.3215,2.3215,2.3268,2.3434,2.3487,2.3541,2.3763,2.3527,2.3292,2.3292,0.0,0.0,0.0,0.0,0.0,0.0,2.1977,2.197,2.2124,2.2218,2.2378,2.2672,2.2445,2.2218,2.2124,2.2031,2.2184,2.2559,2.2786,2.3268,2.4022,2.4155,2.4623,2.5504,2.5518,2.5812,2.6386,2.6386,2.6386,2.6386,2.6386,2.6386,2.6426,2.7055,2.7309,2.7349,2.7938,2.8179,2.8179,2.8179,2.8179,2.8179,2.8179,2.8179,2.8179,2.8179,2.8179,2.8179,2.8179,2.8179,2.8179,2.8179,2.8179,2.8179,2.8179,2.8406,2.8671,2.8921,2.9259,2.9553,2.9847,2.9913,2.9913,2.9913,2.9913,2.9913,2.9913,2.9913,2.9913,2.9913,2.9913,2.9913,2.9913,2.9913,2.9913,2.9913,2.9913,2.9953,3.006,3.0167,3.0394,3.0841,3.0868,3.0868,3.0868,3.0868,3.1002,3.1249,3.1623,3.1957,3.2251,3.25,3.2447,3.2104,3.2104,3.1957,3.1711,3.1711,3.1711]},{"header":{"parameterUnit":"m.s-1","parameterCategory":1,"la1":30.6,"la2":29.2853,"lo1":-89.7004,"lo2":-87.6739,"dy":0.0162,"dx":0.0183,"nx":112,"ny":82,"refTime":"2023-09-27T00:00:00:Z","depth":0,"parameterNumber":3,"parameterNumberName":"V-component_of_WINDS"},"data":[0.0,0.0,0.0,0.0,0.0,0.0,0.0,0.0,0.0,0.0,0.0,0.0,0.0,0.0,0.0,0.0,0.0,0.0,0.0,0.0,0.0,0.0,0.0,0.0,0.0,0.0,0.0,0.0,0.0,0.0,0.0,0.0,0.0,0.0,0.0,0.0,0.0,0.0,0.0,0.0,0.0,0.0,0.0,0.0,0.0,0.0,0.0,0.0,0.0,0.0,0.0,0.0,0.0,0.0,0.0,0.0,0.0,0.0,0.0,0.0,0.0,0.0,0.0,0.0,0.0,0.0,0.0,0.0,0.0,0.0,0.0,0.0,0.0,0.0,0.0,0.0,0.0,0.0,0.0,0.0,0.0,0.0,0.0,0.0,0.0,0.0,0.0,0.0,0.0,0.0,3.4427,3.6151,3.8181,3.9394,3.9394,3.8516,3.7067,3.5045,0.0,0.0,0.0,0.0,0.0,0.0,0.0,0.0,0.0,0.0,0.0,0.0,0.0,0.0,0.0,0.0,0.0,0.0,0.0,0.0,0.0,0.0,0.0,0.0,0.0,0.0,0.0,0.0,0.0,0.0,0.0,0.0,0.0,0.0,0.0,0.0,0.0,0.0,0.0,0.0,0.0,0.0,0.0,0.0,0.0,0.0,0.0,0.0,0.0,0.0,0.0,0.0,0.0,0.0,0.0,0.0,0.0,0.0,0.0,0.0,0.0,0.0,0.0,0.0,0.0,0.0,0.0,0.0,0.0,0.0,0.0,0.0,0.0,0.0,0.0,0.0,0.0,0.0,0.0,0.0,0.0,0.0,0.0,0.0,0.0,0.0,0.0,0.0,0.0,0.0,0.0,0.0,0.0,0.0,0.0,0.0,0.0,0.0,0.0,0.0,0.0,0.0,0.0,0.0,3.5651,3.8549,3.9722,4.0302,4.0302,3.8969,3.7752,3.6763,0.0,0.0,0.0,0.0,0.0,0.0,0.0,0.0,0.0,0.0,0.0,0.0,0.0,0.0,0.0,0.0,0.0,0.0,0.0,0.0,0.0,0.0,0.0,0.0,0.0,0.0,0.0,0.0,0.0,0.0,0.0,0.0,0.0,0.0,0.0,0.0,0.0,0.0,0.0,0.0,0.0,0.0,0.0,0.0,0.0,0.0,0.0,0.0,0.0,0.0,0.0,0.0,0.0,0.0,0.0,0.0,0.0,0.0,0.0,0.0,0.0,0.0,0.0,0.0,0.0,0.0,0.0,0.0,0.0,0.0,0.0,0.0,0.0,0.0,0.0,0.0,0.0,0.0,0.0,0.0,0.0,0.0,0.0,0.0,0.0,0.0,0.0,0.0,0.0,0.0,0.0,0.0,0.0,0.0,0.0,0.0,0.0,0.0,0.0,0.0,0.0,0.0,0.0,3.5604,3.7589,3.956,4.0399,4.0846,4.0846,3.933,3.8059,3.7249,3.4966,0.0,0.0,0.0,0.0,0.0,0.0,0.0,0.0,0.0,0.0,0.0,0.0,0.0,0.0,0.0,0.0,0.0,0.0,0.0,0.0,0.0,0.0,0.0,0.0,0.0,0.0,0.0,0.0,0.0,0.0,0.0,0.0,0.0,0.0,0.0,0.0,0.0,0.0,0.0,0.0,0.0,0.0,0.0,0.0,0.0,0.0,0.0,0.0,0.0,0.0,0.0,0.0,0.0,0.0,0.0,0.0,0.0,0.0,0.0,0.0,0.0,0.0,0.0,0.0,0.0,0.0,0.0,0.0,0.0,0.0,0.0,0.0,0.0,0.0,0.0,0.0,0.0,0.0,0.0,0.0,0.0,0.0,0.0,0.0,0.0,0.0,0.0,0.0,0.0,0.0,0.0,0.0,0.0,0.0,0.0,0.0,0.0,0.0,0.0,0.0,0.0,0.0,3.7431,3.9074,4.0223,4.0839,4.1175,4.1175,3.9823,3.8567,3.7547,3.5562,0.0,0.0,0.0,0.0,0.0,0.0,0.0,0.0,0.0,0.0,0.0,0.0,0.0,0.0,0.0,0.0,0.0,0.0,0.0,0.0,0.0,0.0,0.0,0.0,0.0,0.0,0.0,0.0,0.0,0.0,0.0,0.0,0.0,0.0,0.0,0.0,0.0,0.0,0.0,0.0,0.0,0.0,0.0,0.0,0.0,0.0,0.0,0.0,0.0,0.0,0.0,0.0,0.0,0.0,0.0,0.0,0.0,0.0,0.0,0.0,0.0,0.0,0.0,0.0,0.0,0.0,0.0,0.0,0.0,0.0,0.0,0.0,0.0,0.0,0.0,0.0,0.0,0.0,0.0,0.0,0.0,0.0,0.0,0.0,0.0,0.0,0.0,0.0,0.0,0.0,0.0,0.0,0.0,0.0,0.0,0.0,0.0,0.0,0.0,0.0,0.0,0.0,3.8198,3.9394,4.0954,4.1289,4.138,4.138,4.0634,3.9527,3.8038,3.6863,0.0,0.0,0.0,0.0,0.0,0.0,0.0,0.0,0.0,0.0,0.0,0.0,0.0,0.0,0.0,0.0,0.0,0.0,0.0,0.0,0.0,0.0,0.0,0.0,0.0,0.0,0.0,0.0,0.0,0.0,0.0,0.0,0.0,0.0,0.0,0.0,0.0,0.0,0.0,0.0,0.0,0.0,0.0,0.0,0.0,0.0,0.0,0.0,0.0,0.0,0.0,0.0,0.0,0.0,0.0,0.0,0.0,0.0,0.0,0.0,0.0,0.0,0.0,0.0,0.0,0.0,0.0,0.0,0.0,0.0,0.0,0.0,0.0,0.0,0.0,0.0,0.0,0.0,0.0,0.0,0.0,0.0,0.0,0.0,0.0,0.0,0.0,0.0,0.0,0.0,0.0,0.0,0.0,0.0,0.0,0.0,0.0,0.0,0.0,0.0,0.0,0.0,3.9108,4.0443,4.1746,4.1917,4.1941,4.182,4.1181,4.0189,3.888,0.0,0.0,0.0,0.0,0.0,0.0,0.0,0.0,0.0,0.0,0.0,0.0,0.0,0.0,0.0,0.0,0.0,0.0,0.0,0.0,0.0,0.0,0.0,0.0,0.0,0.0,0.0,0.0,0.0,0.0,0.0,0.0,0.0,0.0,0.0,0.0,0.0,0.0,0.0,0.0,0.0,0.0,0.0,0.0,0.0,0.0,0.0,0.0,0.0,0.0,0.0,0.0,0.0,0.0,0.0,0.0,0.0,0.0,0.0,0.0,0.0,0.0,0.0,0.0,0.0,0.0,0.0,0.0,0.0,0.0,0.0,0.0,0.0,0.0,0.0,0.0,0.0,0.0,0.0,0.0,0.0,0.0,0.0,0.0,0.0,0.0,0.0,0.0,0.0,0.0,0.0,0.0,0.0,0.0,0.0,0.0,0.0,0.0,0.0,0.0,0.0,0.0,3.8481,3.9873,4.1129,4.2205,4.2328,4.2308,4.219,4.1726,4.0897,3.9615,0.0,0.0,0.0,0.0,0.0,0.0,0.0,0.0,0.0,0.0,0.0,0.0,0.0,0.0,0.0,0.0,0.0,0.0,0.0,0.0,0.0,0.0,0.0,0.0,0.0,0.0,0.0,0.0,0.0,0.0,0.0,0.0,0.0,0.0,0.0,0.0,0.0,0.0,0.0,0.0,0.0,0.0,0.0,0.0,0.0,0.0,0.0,0.0,0.0,0.0,0.0,0.0,0.0,0.0,0.0,0.0,0.0,0.0,0.0,0.0,0.0,0.0,0.0,0.0,0.0,0.0,0.0,0.0,0.0,0.0,0.0,0.0,0.0,0.0,0.0,0.0,0.0,0.0,0.0,0.0,0.0,0.0,0.0,0.0,0.0,0.0,0.0,0.0,0.0,0.0,0.0,0.0,0.0,0.0,0.0,0.0,0.0,0.0,0.0,0.0,0.0,0.0,3.9266,4.0385,4.134,4.2226,4.2379,4.2394,4.2394,4.2394,4.1729,0.0,0.0,0.0,0.0,0.0,0.0,0.0,0.0,0.0,0.0,0.0,0.0,0.0,0.0,0.0,0.0,0.0,0.0,0.0,0.0,0.0,0.0,0.0,0.0,0.0,0.0,0.0,0.0,0.0,0.0,0.0,0.0,0.0,0.0,0.0,0.0,0.0,0.0,0.0,0.0,0.0,0.0,0.0,0.0,0.0,0.0,0.0,0.0,0.0,0.0,0.0,0.0,0.0,0.0,0.0,0.0,0.0,0.0,0.0,0.0,0.0,0.0,0.0,0.0,0.0,0.0,0.0,0.0,0.0,0.0,0.0,0.0,0.0,0.0,0.0,0.0,0.0,0.0,0.0,0.0,0.0,0.0,0.0,0.0,0.0,0.0,0.0,0.0,0.0,0.0,0.0,0.0,0.0,0.0,0.0,0.0,0.0,0.0,0.0,0.0,0.0,0.0,0.0,4.0446,4.141,4.2163,4.2681,4.2729,4.272,4.2678,4.2668,4.1897,4.0097,0.0,0.0,0.0,0.0,0.0,0.0,0.0,0.0,0.0,0.0,0.0,0.0,0.0,0.0,0.0,0.0,0.0,0.0,0.0,0.0,0.0,0.0,0.0,0.0,0.0,0.0,0.0,0.0,0.0,0.0,0.0,0.0,0.0,0.0,0.0,0.0,0.0,0.0,0.0,0.0,0.0,0.0,0.0,0.0,0.0,0.0,0.0,0.0,0.0,0.0,0.0,0.0,0.0,0.0,0.0,0.0,0.0,0.0,0.0,0.0,0.0,0.0,0.0,0.0,0.0,0.0,0.0,0.0,0.0,0.0,0.0,0.0,0.0,0.0,0.0,0.0,0.0,0.0,0.0,0.0,0.0,0.0,0.0,0.0,0.0,0.0,0.0,0.0,0.0,0.0,0.0,0.0,0.0,0.0,0.0,0.0,0.0,0.0,0.0,0.0,0.0,0.0,4.0978,4.1948,4.2668,4.2873,4.2892,4.2863,4.2842,4.2833,4.2205,4.0735,0.0,0.0,0.0,0.0,0.0,0.0,0.0,0.0,0.0,0.0,0.0,0.0,0.0,0.0,0.0,0.0,0.0,0.0,0.0,0.0,0.0,0.0,0.0,0.0,0.0,0.0,0.0,0.0,0.0,0.0,0.0,0.0,0.0,0.0,0.0,0.0,0.0,0.0,0.0,0.0,0.0,0.0,0.0,0.0,0.0,0.0,0.0,0.0,0.0,0.0,0.0,0.0,0.0,0.0,0.0,0.0,0.0,0.0,0.0,0.0,0.0,0.0,0.0,0.0,0.0,0.0,0.0,0.0,0.0,0.0,0.0,0.0,0.0,0.0,0.0,0.0,0.0,0.0,0.0,0.0,0.0,0.0,0.0,0.0,0.0,0.0,0.0,0.0,0.0,0.0,0.0,0.0,0.0,0.0,0.0,0.0,0.0,0.0,0.0,0.0,0.0,0.0,4.1278,4.2266,4.2958,4.3099,4.3109,4.3073,4.3036,4.3,4.26,4.1665,0.0,0.0,0.0,0.0,0.0,0.0,0.0,0.0,0.0,0.0,0.0,0.0,0.0,0.0,0.0,0.0,0.0,0.0,0.0,0.0,0.0,0.0,0.0,0.0,0.0,0.0,0.0,0.0,0.0,0.0,0.0,0.0,0.0,0.0,0.0,0.0,0.0,0.0,0.0,0.0,0.0,0.0,0.0,0.0,0.0,0.0,0.0,0.0,0.0,0.0,0.0,0.0,0.0,0.0,0.0,0.0,0.0,0.0,0.0,0.0,3.3585,3.2476,0.0,0.0,0.0,0.0,0.0,0.0,0.0,0.0,0.0,0.0,0.0,0.0,0.0,0.0,0.0,0.0,0.0,0.0,0.0,0.0,0.0,0.0,0.0,0.0,0.0,0.0,0.0,0.0,0.0,0.0,0.0,0.0,0.0,0.0,0.0,0.0,0.0,0.0,0.0,0.0,4.2864,4.3466,4.4006,4.4719,4.4802,4.4512,4.3906,4.3833,4.3206,4.1702,4.1565,0.0,0.0,0.0,0.0,0.0,0.0,0.0,0.0,0.0,0.0,0.0,0.0,0.0,0.0,0.0,0.0,0.0,0.0,0.0,0.0,0.0,0.0,0.0,0.0,0.0,0.0,0.0,0.0,0.0,0.0,0.0,0.0,0.0,0.0,0.0,0.0,0.0,0.0,0.0,0.0,0.0,0.0,0.0,0.0,0.0,0.0,0.0,0.0,0.0,0.0,0.0,0.0,0.0,0.0,0.0,0.0,0.0,0.0,0.0,3.674,3.5244,0.0,0.0,0.0,0.0,0.0,0.0,0.0,0.0,0.0,0.0,0.0,0.0,0.0,0.0,0.0,0.0,0.0,0.0,0.0,0.0,0.0,0.0,0.0,0.0,0.0,0.0,0.0,0.0,0.0,0.0,0.0,0.0,0.0,0.0,0.0,0.0,0.0,0.0,0.0,0.0,4.3453,4.4211,4.4778,4.5263,4.5309,4.5128,4.4693,4.4693,4.4311,4.343,4.3394,0.0,0.0,0.0,0.0,0.0,0.0,0.0,0.0,0.0,0.0,0.0,0.0,0.0,0.0,0.0,0.0,0.0,0.0,0.0,0.0,0.0,0.0,0.0,0.0,0.0,0.0,0.0,0.0,0.0,0.0,0.0,0.0,0.0,0.0,0.0,0.0,0.0,0.0,0.0,0.0,0.0,0.0,0.0,0.0,0.0,0.0,0.0,0.0,0.0,0.0,0.0,0.0,0.0,4.2612,4.342,4.4029,4.4302,4.4418,4.426,4.0881,3.887,3.7934,3.7273,0.0,0.0,0.0,0.0,0.0,0.0,0.0,0.0,0.0,0.0,0.0,0.0,0.0,0.0,0.0,0.0,0.0,0.0,0.0,0.0,0.0,0.0,4.2194,4.3285,4.4034,4.3696,4.0763,0.0,0.0,0.0,0.0,0.0,0.0,0.0,0.0,0.0,0.0,0.0,4.4027,4.4921,4.5562,4.5707,4.5707,4.5671,4.5526,4.5526,4.5454,4.5309,4.5309,4.5309,0.0,0.0,0.0,0.0,0.0,0.0,0.0,0.0,0.0,0.0,0.0,0.0,0.0,0.0,0.0,0.0,0.0,0.0,0.0,0.0,0.0,0.0,0.0,0.0,0.0,0.0,0.0,0.0,0.0,0.0,0.0,0.0,3.2472,3.3424,0.0,0.0,0.0,0.0,0.0,0.0,0.0,0.0,0.0,0.0,0.0,0.0,0.0,4.0879,4.3126,4.3836,4.4672,4.5671,4.7618,4.866,4.8913,5.0189,5.0867,5.0848,4.9091,0.0,4.1116,4.0979,0.0,0.0,0.0,0.0,0.0,0.0,0.0,0.0,0.0,0.0,0.0,0.0,0.0,0.0,0.0,0.0,0.0,0.0,0.0,0.0,0.0,0.0,4.5397,4.6224,4.6688,4.6809,4.6334,4.49,4.3612,4.3383,4.3075,4.2809,0.0,0.0,0.0,0.0,0.0,0.0,4.5771,4.6158,4.6602,4.729,4.7363,4.7109,4.6395,4.6359,4.6033,4.5345,4.5309,4.5309,4.5309,4.5136,0.0,0.0,0.0,0.0,0.0,0.0,0.0,0.0,0.0,0.0,0.0,0.0,0.0,0.0,0.0,0.0,0.0,0.0,0.0,0.0,0.0,0.0,0.0,0.0,0.0,0.0,0.0,0.0,0.0,3.4038,3.4887,3.5683,3.6193,3.6328,0.0,0.0,0.0,0.0,0.0,0.0,0.0,0.0,0.0,4.3915,4.4349,4.5717,4.803,4.8317,4.9088,5.0351,5.129,5.2024,5.2639,5.328,5.3729,5.3918,5.3257,5.1392,4.8609,4.5678,4.4268,4.3877,0.0,0.0,0.0,0.0,4.4036,4.464,4.4762,4.487,4.4906,4.4906,0.0,0.0,0.0,0.0,0.0,0.0,0.0,4.5946,4.6845,4.725,4.777,4.92,4.96,4.9844,5.0381,4.9394,4.777,4.5603,4.5061,4.4789,4.4213,4.3965,0.0,0.0,0.0,4.6152,4.689,4.7889,4.8652,4.9003,4.9039,4.8713,4.7906,4.7833,4.7508,4.6721,4.6649,4.6649,4.6649,4.621,4.5926,0.0,0.0,0.0,0.0,0.0,0.0,0.0,0.0,0.0,0.0,0.0,0.0,0.0,0.0,0.0,0.0,0.0,0.0,0.0,0.0,0.0,0.0,0.0,0.0,0.0,0.0,0.0,0.0,3.6434,3.745,3.8379,3.9078,3.933,0.0,0.0,0.0,0.0,0.0,0.0,4.3988,4.5506,4.7037,4.8667,4.9427,5.0852,5.3052,5.3052,5.3775,5.5138,5.5312,5.5791,5.6473,5.6694,5.697,5.7182,5.7017,5.6595,5.5578,5.0432,4.8189,4.7925,4.7114,4.6882,4.7013,4.7451,4.809,4.8834,4.9199,4.9264,4.9184,4.9184,4.8413,4.738,4.6843,0.0,0.0,0.0,0.0,4.8571,4.967,5.002,5.0526,5.2134,5.2517,5.2744,5.3452,5.3061,5.1628,4.8225,4.7331,4.6913,4.6256,4.6023,0.0,4.6188,4.7197,4.7972,4.8178,4.9318,5.0101,5.0101,5.0101,4.9775,4.8956,4.892,4.8558,4.7761,4.7689,4.7689,4.7689,4.7109,4.6892,4.7109,0.0,0.0,0.0,0.0,0.0,0.0,0.0,0.0,0.0,0.0,0.0,0.0,0.0,0.0,0.0,0.0,0.0,0.0,0.0,0.0,0.0,0.0,0.0,0.0,0.0,0.0,0.0,0.0,0.0,4.1595,4.1814,0.0,0.0,0.0,0.0,4.4893,4.5858,4.7286,4.9493,5.0996,5.2604,5.4325,5.5088,5.6441,5.8393,5.8393,5.8908,5.9874,6.056,6.0947,6.0998,6.1917,6.2299,6.2296,6.1711,6.101,5.9916,5.4929,5.2446,5.1757,5.0949,5.0646,5.0756,5.179,5.2192,5.2422,5.3408,5.3284,5.2641,5.2641,5.1238,4.9595,4.9806,4.934,0.0,0.0,5.054,5.1645,5.322,5.379,5.414,5.5018,5.5291,5.5416,5.5453,5.5427,5.4558,5.1759,5.007,4.9029,4.8935,0.0,4.8204,4.8877,4.8993,4.9319,5.0072,5.013,5.0101,5.0101,5.0101,4.9775,4.8956,4.892,4.8558,4.7761,4.7689,4.7689,4.7689,4.7652,4.8015,4.8775,4.7978,0.0,0.0,0.0,0.0,0.0,0.0,0.0,0.0,0.0,0.0,0.0,0.0,0.0,0.0,0.0,0.0,0.0,0.0,0.0,0.0,0.0,0.0,0.0,0.0,0.0,0.0,0.0,0.0,4.4768,4.5389,0.0,4.6079,4.6286,4.71,4.8927,5.0368,5.1929,5.3679,5.5813,5.7535,5.8808,5.9639,6.0712,6.201,6.163,6.1604,6.195,6.2197,6.2386,6.2517,6.2864,6.3211,6.3484,6.3811,6.3589,6.2918,6.1135,5.8388,5.5228,5.4478,5.4237,5.4382,5.4821,5.5504,5.6257,5.6691,5.6798,5.6622,5.6151,5.4761,5.3415,5.4041,5.3675,5.3201,5.4002,5.4873,5.5695,5.6267,5.6541,5.6729,5.7022,5.713,5.7152,5.7152,5.6748,5.6091,5.5088,5.3635,5.2192,5.1135,5.0712,5.0388,5.0122,5.0456,5.0819,5.1111,5.1541,5.1813,5.171,5.1699,5.1375,5.0535,4.9981,4.9329,4.8521,4.7978,4.7689,4.7689,4.7689,4.7833,4.8123,4.7833,4.7833,0.0,0.0,0.0,0.0,0.0,0.0,0.0,0.0,0.0,0.0,0.0,0.0,0.0,0.0,0.0,0.0,0.0,0.0,0.0,0.0,0.0,0.0,0.0,0.0,0.0,4.5299,4.7265,4.9031,4.9927,5.0479,5.0755,5.0962,5.1824,5.3616,5.5133,5.6662,5.8203,6.0469,6.2099,6.291,6.3799,6.4631,6.5423,6.5038,6.49,6.5026,6.5026,6.5088,6.5217,6.5264,6.5463,6.5762,6.6074,6.5881,6.5305,6.5065,6.3052,6.001,5.8586,5.8085,5.8217,5.8605,5.911,5.9542,5.937,5.9463,5.9504,5.8799,5.7642,5.6656,5.7239,5.6861,5.6385,5.7178,5.7822,5.8345,5.8613,5.8745,5.8804,5.8804,5.8804,5.8731,5.8474,5.7985,5.7545,5.7251,5.5904,5.4473,5.3419,5.3135,5.2909,5.2349,5.2619,5.2872,5.2872,5.3302,5.3574,5.3506,5.3206,5.2677,5.1835,5.0739,4.9764,4.8956,4.8159,4.7689,4.7689,4.7689,4.7833,4.8087,4.8377,4.8496,4.8496,0.0,0.0,0.0,0.0,0.0,0.0,0.0,0.0,0.0,0.0,0.0,0.0,0.0,0.0,0.0,0.0,0.0,0.0,0.0,0.0,0.0,0.0,0.0,4.6755,4.9341,5.2099,5.4375,5.5272,5.6065,5.6874,5.6253,5.6736,5.8978,6.0099,6.1415,6.3049,6.4971,6.6196,6.657,6.75,6.8189,6.8654,6.8634,6.8842,6.9201,6.9201,6.9201,6.9216,6.9337,6.9411,6.939,6.8772,6.8027,6.7224,6.6472,6.618,6.5911,6.3162,6.211,6.2232,6.3117,6.2953,6.2179,6.1532,6.1315,6.1195,6.0554,5.9786,5.9139,5.9307,5.8756,5.829,5.9086,5.9331,5.9526,6.0297,6.0517,6.0529,6.0493,6.0481,6.026,5.9416,5.9233,5.9013,5.8217,5.6833,5.5732,5.5658,5.5658,5.5622,5.5585,5.5485,0.0,5.5407,5.5293,5.5224,5.5212,5.4416,5.3583,5.2795,5.1157,4.9811,4.9065,4.8196,4.7761,4.7797,4.7797,4.8159,4.8992,4.9764,5.0173,5.0173,0.0,0.0,0.0,0.0,0.0,0.0,0.0,0.0,0.0,0.0,0.0,0.0,0.0,0.0,0.0,0.0,0.0,0.0,0.0,0.0,0.0,4.8341,5.0479,4.9927,5.2444,5.5203,5.7478,5.8461,5.9219,5.9978,6.0532,6.1311,6.2488,6.3851,6.5091,6.6057,6.7565,6.8472,6.8742,6.92,6.9545,6.9813,6.95,6.939,6.9515,6.9515,6.9515,6.9515,6.9544,6.9617,6.9806,7.08,7.0484,6.9338,6.969,6.9178,6.7881,6.5086,6.443,6.494,6.453,6.3991,6.3427,6.3959,6.3791,6.3364,6.3769,6.2926,6.1862,6.2536,6.1741,6.0786,6.1582,6.2291,6.2805,6.3038,6.3503,6.3637,6.2426,6.2132,6.1765,6.037,6.0077,6.0003,5.9795,5.9391,5.851,5.6785,5.6455,5.6271,5.5695,5.5552,5.553,5.553,5.5507,5.5452,5.5361,5.4517,5.3857,5.3595,5.198,5.1115,5.1502,4.9644,4.9101,5.0271,4.9738,5.0101,5.1466,5.1719,5.1828,0.0,0.0,0.0,0.0,0.0,0.0,0.0,0.0,0.0,0.0,0.0,0.0,0.0,0.0,0.0,0.0,0.0,0.0,0.0,0.0,0.0,0.0,5.2341,5.4924,5.5849,5.7165,5.884,6.1116,6.2082,6.2912,6.3728,6.4414,6.5309,6.6571,6.764,6.8646,6.9548,7.0564,7.1184,7.1402,7.1363,7.1433,7.1623,7.1054,7.0749,7.0807,7.0807,7.0807,7.0807,7.0807,7.0887,7.101,7.1632,7.1602,7.1101,7.1233,7.094,7.0155,0.0,0.0,0.0,0.0,6.5557,6.4927,6.4835,6.4237,6.3613,6.4114,6.36,6.2903,6.3392,6.2879,6.2218,6.2683,6.316,6.3576,6.3576,6.3894,6.4004,6.3013,6.2793,6.2462,6.119,6.119,6.1288,6.097,6.0896,0.0,5.9061,5.8242,5.7508,5.6723,5.6613,5.6613,5.6613,5.6613,5.6579,5.6511,5.5958,5.5429,5.4985,5.3378,0.0,0.0,0.0,4.98,5.0753,5.0354,0.0,0.0,0.0,5.1658,5.2021,5.2066,0.0,0.0,5.179,5.1731,0.0,0.0,0.0,0.0,0.0,0.0,0.0,0.0,0.0,0.0,0.0,0.0,0.0,0.0,0.0,0.0,5.6735,5.9858,6.3063,6.2799,6.3019,6.4916,6.5849,6.6704,6.7676,6.7958,6.8817,7.0576,7.1123,7.1802,7.285,7.3418,0.0,0.0,0.0,7.3429,7.3653,7.2826,7.2512,7.2642,7.2642,7.2642,7.2642,7.2642,7.2642,7.2606,7.1857,7.1931,7.2459,7.1821,7.1931,7.2275,6.9926,6.8935,6.8678,6.8068,6.7333,6.6439,6.5118,0.0,0.0,6.3343,6.3306,6.3196,6.3123,6.3013,6.2939,6.2829,6.2866,6.2939,6.2939,6.3013,6.305,6.2976,6.2939,6.2719,6.1924,6.2291,6.2572,6.1851,6.1741,6.1716,6.163,6.0407,5.9233,5.851,5.84,5.84,5.84,5.8253,5.8143,5.8143,5.7856,0.0,5.6499,5.5045,5.3874,5.3118,5.1667,5.0725,5.0543,5.0616,5.075,5.092,5.092,5.1282,5.2007,5.2098,5.3244,5.5255,5.2862,5.22,0.0,0.0,0.0,0.0,0.0,0.0,0.0,0.0,0.0,0.0,0.0,0.0,0.0,0.0,0.0,5.8454,6.1692,6.4695,6.7482,6.8215,6.8366,6.8037,6.8679,6.9521,7.0519,7.0883,7.1307,7.19,7.2688,7.3221,7.3416,7.3962,7.4249,7.4316,7.4357,7.4428,7.4473,7.3787,7.3421,7.345,7.345,0.0,7.345,7.345,7.345,7.345,7.3303,7.2973,7.2532,7.3046,7.2936,7.2312,7.055,6.9082,6.7994,6.8495,6.8164,6.7517,6.7834,6.743,6.6746,6.6746,6.6292,6.5668,6.4995,6.4347,0.0,6.3013,6.3319,6.3833,6.3833,6.4347,6.4664,6.4016,6.3833,6.3613,6.2756,6.2683,6.2756,6.2609,6.2572,6.2352,6.1704,6.1337,6.108,6.0933,6.0896,6.0896,6.0896,5.9758,5.8976,5.8976,5.7672,5.6761,5.6591,5.6183,5.6137,5.6575,5.5701,5.4619,5.3296,5.3879,5.4768,5.5946,5.5983,5.6055,5.6237,5.6249,5.654,5.7036,5.5264,5.5216,0.0,0.0,0.0,0.0,0.0,0.0,0.0,0.0,0.0,0.0,0.0,5.07,5.2977,0.0,5.8784,6.2732,6.5465,6.7901,7.0183,7.1263,7.1455,7.0475,7.0702,7.1342,7.2418,7.2771,7.3278,7.4083,7.4659,7.5011,7.5192,7.555,7.5739,7.5739,7.5529,7.5385,7.5385,7.4653,7.4294,7.4294,7.4294,7.4294,7.4294,7.4294,7.4074,7.3722,7.3722,7.345,7.312,7.3538,7.323,7.2386,7.1174,7.0477,7.0036,6.9633,6.8972,6.8238,6.7834,6.7173,6.6512,6.6512,6.6219,6.5815,6.5398,6.5007,6.4604,6.415,6.4371,6.4714,6.4714,6.4714,6.4604,6.4213,6.3759,6.3319,6.2903,6.3453,6.404,6.404,6.4371,6.453,6.4127,6.3723,6.2879,6.1263,6.1006,6.1006,6.1006,6.0297,5.9783,5.9783,5.9381,5.8918,5.8444,5.7521,5.7011,5.7011,5.6245,5.5625,5.5224,5.5212,5.5542,5.6284,5.6685,5.6915,5.6915,5.7376,5.7838,5.8275,5.753,5.7337,0.0,0.0,0.0,0.0,0.0,0.0,0.0,4.7962,4.9962,5.0907,5.3046,5.5442,5.7752,6.022,6.3065,6.6719,6.8798,7.0557,7.2341,7.3305,7.3486,7.2616,7.2504,7.2914,7.3992,7.428,7.4867,7.6036,7.6309,7.6558,7.6834,7.7045,7.7139,7.7139,7.6604,7.635,7.635,7.5527,7.5124,7.5124,7.5124,7.5124,7.5124,7.5124,7.4771,7.4147,7.3832,7.3722,7.3722,7.3722,7.3303,7.2679,7.2004,7.2078,7.2312,7.0881,6.9816,6.8972,6.765,6.6659,6.5949,6.5802,6.5765,6.5729,6.5582,6.5508,6.5508,6.5325,6.5288,6.5288,6.5288,6.4824,6.431,6.431,6.3796,6.3306,6.3306,6.4334,6.5288,6.5288,6.5815,6.6256,6.6256,6.5742,6.4407,6.1728,6.1227,6.119,6.1337,6.1068,6.0933,6.1117,6.1557,6.152,6.0787,5.9408,5.8215,5.724,5.6717,5.6608,5.6936,5.6316,5.6037,5.6159,5.6791,5.7132,5.7132,5.7726,5.8456,5.9261,5.9222,5.8833,3.8744,3.9537,4.0745,4.1642,4.4009,4.6493,0.0,5.0755,5.3272,5.4685,5.7357,6.0168,6.2644,6.515,6.7796,7.0859,7.223,7.3449,7.4905,7.5209,7.5137,7.4776,7.4744,7.4958,7.5423,7.5669,7.6,7.6478,7.6822,7.7029,7.7077,7.7217,7.7295,7.7295,7.72,7.7179,7.7179,7.6387,7.5983,7.5983,7.5983,7.5983,7.5983,7.5983,7.5909,7.5763,7.4331,7.3722,7.3722,7.3722,7.3648,7.3575,7.345,7.3046,7.2386,7.149,7.0646,6.9926,6.9743,6.9155,6.8371,6.765,6.7444,6.7297,6.6586,6.6366,6.6219,6.5508,6.5288,6.5288,6.5288,6.5215,6.5191,6.5191,6.5068,6.5031,6.5031,6.5178,6.5288,6.5288,6.5362,6.5435,6.5435,6.5362,6.5178,6.4811,6.4127,6.3943,6.4664,6.3453,6.2829,6.3576,6.3062,6.2597,6.2523,6.2315,6.1581,6.0041,6.053,6.0273,5.8929,5.8782,5.9028,5.9627,5.9737,5.9774,5.9774,5.9152,5.9322,6.0212,5.9526,5.9515,4.0043,4.1507,4.3385,4.4919,4.7631,5.0508,5.3045,5.5636,5.8126,6.0184,6.2352,6.4488,6.6551,6.8698,7.0752,7.2533,7.3826,7.4869,7.5531,7.54,7.5099,7.4635,7.4234,7.424,7.4876,7.5429,7.5903,7.6161,7.6758,7.7139,7.7233,7.7295,7.7289,7.7289,7.7289,7.7289,7.7289,7.6959,7.6812,7.6812,7.6812,7.6812,7.6812,7.6812,7.6533,7.6019,7.4404,7.3722,7.367,7.3193,7.301,7.301,7.301,7.2789,7.2422,7.16,7.1087,7.0734,7.0257,6.9889,6.9522,6.9192,6.9096,6.9022,6.8678,6.8605,6.8421,6.7614,6.738,6.738,6.738,6.7063,6.6806,6.727,6.7026,6.6696,6.6696,6.7063,6.738,6.738,6.776,6.8091,6.8091,6.7724,6.738,6.738,6.5912,6.4934,6.5251,6.4701,6.4371,6.4751,6.4481,6.3857,6.2866,6.2793,6.2499,6.1838,6.1667,6.1741,6.2034,6.1545,6.1447,6.1728,6.2217,6.2473,6.2473,6.2607,6.2853,6.3233,6.2438,6.2218,4.2264,4.4128,4.6452,4.8813,5.1538,5.4541,5.8043,6.044,6.2579,6.4917,6.6456,6.7788,6.9168,7.0764,7.2224,7.3315,7.4583,7.5509,7.5931,7.5554,7.4934,7.4092,7.3379,7.3033,7.3203,7.4326,7.5286,7.5895,7.6496,7.6961,7.7273,7.7289,7.7289,7.7289,7.7289,7.7289,7.7289,7.7289,7.7289,7.7289,7.7289,7.7289,7.7289,7.7289,7.6848,7.6019,7.4625,7.3891,7.3648,7.2826,7.2496,7.2496,7.2496,7.2496,7.2422,7.1857,7.149,7.1233,7.0624,7.0293,7.011,7.011,7.011,7.011,7.011,7.011,6.9963,6.9376,6.9229,6.9229,6.9229,6.8788,6.8508,6.9082,6.8788,6.8361,6.8361,6.8825,6.9229,6.9229,6.9706,7.011,7.011,6.9633,6.9229,6.9229,6.776,6.6536,6.6316,6.6512,6.6536,6.6316,6.6096,6.5375,6.393,6.382,6.371,6.349,6.2952,6.3172,6.4383,6.3613,6.327,6.349,6.4127,6.442,6.442,6.4787,6.5068,6.5288,6.4457,6.4213,4.5602,4.7591,5.0047,5.2991,5.549,5.8307,6.2293,6.441,6.6092,6.7976,6.8963,6.9653,7.0165,7.0946,7.1991,7.356,7.454,7.5522,7.6611,7.6061,7.5067,7.3681,7.2818,7.178,7.0375,7.2263,7.4262,7.5968,7.6114,7.6481,7.7252,7.7289,7.7289,7.7289,7.7289,7.7289,7.7289,7.7289,7.7289,7.7289,7.7289,7.7289,7.7289,7.7289,7.6848,7.6056,7.5197,7.4441,7.3648,7.2826,7.2496,7.2496,7.2496,7.2496,7.2496,7.2459,7.1967,7.1307,7.127,7.077,7.011,7.011,7.011,7.011,7.011,7.011,7.0073,7.0073,7.0073,7.0073,7.0073,7.0036,7.0036,7.0073,7.0036,7.0036,7.0036,7.0036,7.0073,7.0073,7.0073,7.011,7.011,7.0073,7.0073,7.0073,7.0,6.9669,6.8898,6.9486,6.9669,6.8848,6.8091,6.7297,6.6439,6.6402,6.6035,6.5251,6.5178,6.5215,6.5251,6.4494,6.442,6.5215,6.5251,6.5251,6.5251,6.4494,6.453,6.5288,6.4457,6.453,4.916,5.185,5.4761,5.8149,6.1149,6.4066,6.7195,6.836,6.9189,7.062,7.0261,6.9614,6.9401,6.9705,7.0211,7.0947,7.2346,7.3605,7.4445,7.4443,7.372,7.2028,7.1252,7.0641,7.0146,7.1755,7.3281,7.4404,7.5506,7.6445,7.7252,7.7289,7.7289,7.7289,7.7289,7.7289,7.7289,7.7289,7.7289,7.7289,7.7289,7.7289,7.7289,7.7289,7.7142,7.6812,7.5491,7.4757,7.4404,7.3046,7.2496,7.2496,7.2496,7.2496,7.2496,7.2496,7.2349,7.2078,7.2078,7.1908,7.1688,7.1688,7.1688,7.1688,7.1688,7.1688,7.1578,7.1064,7.0903,7.0903,7.0903,7.0903,7.1013,7.1578,7.1688,7.1688,7.1688,7.1688,7.1688,7.1688,7.1688,7.1688,7.1688,7.1688,7.1688,7.1688,7.077,7.0,6.9743,6.9926,7.0,6.9743,6.9449,6.8765,6.7407,6.7797,6.776,6.6953,6.7393,6.7944,6.8458,6.7724,6.7173,6.688,6.6366,6.6109,6.6109,6.5815,6.6109,6.688,6.6072,6.5852,5.3302,5.6567,5.9931,6.33,6.6054,6.8541,7.095,7.1335,7.1215,7.1232,6.9725,6.8087,6.6954,6.68,6.7283,6.8481,7.0316,7.2194,7.3876,7.414,7.3663,7.2255,7.1403,7.0844,7.055,7.1725,7.2936,7.4037,7.5102,7.6151,7.7252,7.7289,7.7289,7.7289,7.7289,7.7436,7.7766,7.7766,7.7766,7.7766,7.7766,7.7582,7.7289,7.7289,7.7289,7.7252,7.5894,7.516,7.4793,7.3487,7.2753,7.2496,7.2496,7.2496,7.2496,7.2496,7.2496,7.2496,7.2496,7.2496,7.2496,7.2496,7.2496,7.2496,7.2496,7.2496,7.2386,7.1857,7.1711,7.1711,7.1711,7.1711,7.1857,7.2386,7.2496,7.2496,7.2496,7.2496,7.2496,7.2496,7.2496,7.2496,7.2496,7.2496,7.2496,7.2496,7.1615,7.0954,7.0954,7.0954,7.0844,7.055,7.055,7.0,6.8655,6.8752,6.8678,6.8164,6.8348,6.8825,6.9633,6.8898,6.8348,6.8128,6.732,6.7063,6.7357,6.7357,6.776,6.8545,6.8017,6.7797,5.803,6.1669,6.5373,6.8265,7.0098,7.164,7.345,7.3136,7.1905,6.9974,6.762,6.5238,6.3076,6.2585,6.3406,6.6087,6.8494,7.1218,7.4616,7.5084,7.48,7.4026,7.3147,7.2275,7.1505,7.2129,7.323,7.483,7.494,7.5637,7.7215,7.7289,7.7289,7.7289,7.7362,7.7766,7.8589,7.8626,7.8626,7.8589,7.8589,7.8148,7.7289,7.7289,7.7289,7.7252,7.6445,7.5689,7.4903,7.4037,7.323,7.2569,7.2532,7.2496,7.2496,7.2496,7.2496,7.2496,7.2496,7.2496,7.2496,7.2496,7.2496,7.2496,7.2496,7.2496,7.2496,7.2496,7.2496,7.2496,7.2496,7.2496,7.2496,7.2496,7.2496,7.2496,7.2496,7.2496,7.2496,7.2496,7.2496,7.2496,7.2496,7.2496,7.2496,7.2496,7.2496,7.2496,7.2496,7.2496,7.2202,7.1454,7.1344,7.105,7.022,6.9486,6.9045,6.8972,6.8274,6.8251,6.9009,6.8238,6.8164,6.8972,6.8178,6.8128,6.8885,6.8885,6.9302,7.011,7.011,7.011,6.3602,6.6543,6.9299,7.2325,7.3379,7.3811,7.4397,7.26,7.0201,6.8007,6.5162,6.2327,6.0018,6.0078,6.0936,6.239,6.5689,6.8716,7.0726,7.3068,7.427,7.3347,7.3465,7.355,7.3329,7.3376,7.4074,7.5689,7.5799,7.6225,7.7252,7.7289,7.7289,7.7289,7.7913,7.8369,7.8589,7.9176,7.9176,7.8589,7.8589,7.8148,7.7289,7.7289,7.7289,7.7252,7.6445,7.5983,7.5689,7.4258,7.356,7.334,7.2716,7.2496,7.2496,7.2496,7.2496,7.2496,7.2496,7.2496,7.2496,7.2496,7.2496,7.2496,7.2496,7.2496,7.2496,7.2496,7.2496,7.2496,7.2496,7.2496,7.2496,7.2496,7.2496,7.2496,7.2496,7.2496,7.2496,7.2496,7.2496,7.2496,7.2496,7.2496,7.2496,7.2496,7.2496,7.2496,7.2496,7.2496,7.2422,7.2224,7.2188,7.1872,7.105,7.1358,7.1064,6.9853,7.0146,7.0463,7.0683,6.9926,6.9559,6.9779,6.9009,6.8715,6.8885,6.8885,6.9302,7.011,7.011,7.011,6.7578,7.0404,7.2853,7.4536,7.4956,7.4618,7.329,7.083,6.7933,6.4965,6.1769,5.8978,5.7264,5.7322,5.8429,6.0805,6.4333,6.7801,7.0782,7.335,7.4875,7.4682,7.4948,7.5115,7.5057,7.4933,7.5522,7.7099,7.6533,7.6607,7.7803,7.7876,7.8023,7.8405,7.8883,7.9286,7.9653,8.0461,8.0461,7.9653,7.9286,7.8699,7.7839,7.7472,7.7289,7.7289,7.6812,7.6423,7.6019,7.5139,7.4331,7.367,7.3193,7.2826,7.2496,7.2496,7.2496,7.2496,7.2496,7.2496,7.2496,7.2496,7.2496,7.2496,7.2496,7.2496,7.2496,7.2496,7.2496,7.2496,7.2496,7.2496,7.2496,7.2496,7.2496,7.2496,7.2496,7.2496,7.2496,7.2496,7.2496,7.2496,7.2496,7.2496,7.2496,7.2496,7.2496,7.2496,7.2496,7.2496,7.2496,7.2496,7.2826,7.2826,7.2386,7.2789,7.2496,7.1211,7.1578,7.1674,7.1307,7.0866,7.0624,7.0624,6.9853,6.9596,6.9949,7.033,7.0697,7.1174,7.1505,7.1505,7.062,7.3448,7.5755,7.5652,7.5402,7.4284,7.1148,6.8247,6.5159,6.134,5.8029,5.5577,5.4825,5.4862,5.6273,6.021,6.3702,6.754,7.2122,7.4306,7.5782,7.656,7.6716,7.672,7.6604,7.6671,7.7244,7.8525,7.7356,7.7231,7.8662,7.8772,7.914,7.9926,7.9963,8.0367,8.1158,8.1856,8.1782,8.1012,8.0277,7.9486,7.8552,7.7803,7.7472,7.7472,7.7362,7.6959,7.6423,7.6203,7.5285,7.4001,7.3891,7.3377,7.2679,7.2679,7.2606,7.2496,7.2496,7.2496,7.2496,7.2496,7.2496,7.2496,7.2496,7.2496,7.2496,7.2496,7.2496,7.2496,7.2496,7.2569,7.2642,7.2532,7.2679,7.2753,7.2569,7.2496,7.2496,7.2496,7.2606,7.2679,7.2679,7.2753,7.2789,7.2679,7.2679,7.2606,7.2496,7.2496,7.2496,7.2496,7.312,7.356,7.367,7.3722,7.3377,7.2716,7.2679,7.2349,7.1637,7.1637,7.1674,7.1784,7.1101,7.1101,7.1784,7.2481,7.2826,7.2826,7.3413,7.334,7.3458,7.5352,7.6837,7.681,7.5274,7.2899,6.9645,6.5413,6.1229,5.7833,5.5057,5.32,5.3042,5.4082,5.5902,5.8687,6.2439,6.6042,6.8939,7.2492,7.5055,7.5872,7.7033,7.7735,7.7721,7.8116,7.8489,7.8753,7.8997,7.9302,7.9596,7.9596,7.9947,8.0755,8.0791,8.1195,8.1966,8.2113,8.1782,8.1012,8.0865,8.0021,7.8589,7.8442,7.8369,7.8332,7.7619,7.7619,7.8075,7.668,7.5946,7.5616,7.4955,7.4221,7.3487,7.3487,7.3083,7.2496,7.2496,7.2496,7.2496,7.2496,7.2496,7.2496,7.2496,7.2496,7.2496,7.2496,7.2496,7.2496,7.2496,7.2973,7.3303,7.2679,7.3523,7.4133,7.2789,7.2496,7.2496,7.2496,7.3046,7.3487,7.3487,7.4037,7.4258,7.3597,7.3487,7.323,7.2606,7.2496,7.2496,7.2496,7.2606,7.2973,7.3648,7.3722,7.3648,7.3487,7.3487,7.3413,7.3303,7.3266,7.3597,7.4243,7.4133,7.4133,7.428,7.4426,7.4463,7.4463,7.3927,7.3634,7.4797,7.6469,7.7398,7.6135,7.393,7.1032,6.6896,6.2476,5.8475,5.5567,5.3051,5.1565,5.2457,5.3237,5.4825,5.8167,6.1436,6.4705,6.8048,7.1663,7.4426,7.5652,7.7181,7.8285,7.8658,7.881,7.9221,7.9977,8.0262,8.0424,8.0424,8.0844,8.1248,8.1599,8.1636,8.1819,8.2186,8.2186,8.2003,8.1636,8.1195,8.0608,7.9837,7.9396,7.9213,7.9192,7.8772,7.8846,7.914,7.8369,7.7781,7.7378,7.6974,7.6056,7.4955,7.4955,7.4184,7.312,7.312,7.2863,7.2496,7.2496,7.2496,7.2496,7.2496,7.2496,7.2606,7.301,7.3413,7.3854,7.4258,7.4992,7.5491,7.5087,7.527,7.5322,7.4551,7.3707,7.3266,7.367,7.3707,7.3817,7.4258,7.4647,7.4757,7.4368,7.3964,7.3575,7.3156,7.312,7.2973,7.2532,7.2863,7.3266,7.3685,7.4074,7.4331,7.4331,7.4331,7.4331,7.4331,7.4331,7.4515,7.4903,7.4903,7.4903,7.4903,7.5307,7.5307,7.4903,7.4918,7.4478,7.5057,7.6618,7.725,7.5132,7.2481,6.9088,6.4185,5.9913,5.6209,5.3571,5.1342,5.0367,5.2048,5.2494,5.3831,5.7573,6.0248,6.3182,6.6933,7.0437,7.3274,7.5057,7.6915,7.8383,7.9272,7.9335,7.9874,8.1165,8.1271,8.1269,8.1269,8.1856,8.2186,8.2186,8.2186,8.2186,8.2186,8.2186,8.2186,8.2186,8.1562,8.1158,8.0975,8.0351,8.0073,8.0036,7.989,7.989,8.0036,7.989,7.9449,7.8846,7.8846,7.7818,7.635,7.635,7.5359,7.3964,7.3964,7.3523,7.301,7.301,7.2789,7.2496,7.2496,7.2606,7.2936,7.3744,7.4551,7.5344,7.6166,7.6959,7.7619,7.7803,7.7069,7.6423,7.6607,7.5506,7.4661,7.527,7.5065,7.4955,7.5579,7.5821,7.5909,7.5711,7.5139,7.4661,7.4515,7.4478,7.4221,7.3597,7.378,7.4037,7.4184,7.4661,7.4977,7.516,7.516,7.516,7.516,7.5307,7.5417,7.5417,7.5417,7.5417,7.5417,7.6056,7.6041,7.5417,7.5909,7.5432,7.4054,7.5355,7.5801,7.4834,7.1626,6.7453,6.255,5.8205,5.4342,5.1193,4.9707,4.9522,5.1193,5.2122,5.346,5.6097,5.8539,6.1065,6.3665,6.7491,7.0908,7.3348,7.5763,7.7807,7.934,7.9999,8.0689,8.1409,8.1849,8.2076,8.2076,8.215,8.2186,8.2186,8.2186,8.2186,8.2186,8.2186,8.2186,8.2186,8.2113,8.1709,8.1012,8.0938,8.0901,8.0865,8.011,8.0204,8.0828,8.0094,7.9779,7.9706,7.9706,7.8662,7.7179,7.7179,7.6188,7.4793,7.4793,7.472,7.4683,7.4683,7.3692,7.2496,7.2496,7.301,7.3744,7.4551,7.5359,7.6166,7.6995,7.7839,7.8662,7.9412,7.8369,7.7399,7.8185,7.7619,7.6995,7.7069,7.7656,7.8148,7.8259,7.8862,7.9119,7.8369,7.8185,7.7855,7.7069,7.6959,7.6959,7.6885,7.5637,7.5102,7.5836,7.5285,7.5197,7.5946,7.5983,7.5983,7.5983,7.6702,7.7069,7.7069,7.7069,7.7069,7.7069,7.7142,7.7142,7.7069,7.6423,7.6019,7.1688,7.3707,7.4635,7.2852,7.0054,6.6376,6.0916,5.6905,5.3487,5.0711,4.9485,4.941,5.1082,5.1676,5.2679,5.5122,5.7165,5.9319,6.1808,6.5671,6.8976,7.0958,7.4227,7.699,7.8625,7.9805,8.1118,8.2629,8.3309,8.3434,8.2957,8.2443,8.2186,8.2186,8.2186,8.2186,8.2186,8.2186,8.2186,8.2186,8.2186,8.2039,8.1709,8.1709,8.1709,8.1709,8.1379,8.1415,8.1709,8.1379,8.1248,8.1195,8.0718,7.9837,7.8736,7.8259,7.7047,7.5616,7.5616,7.5616,7.5616,7.5616,7.5542,7.5307,7.4808,7.5249,7.6041,7.69,7.7708,7.8516,7.9307,8.0131,8.0828,8.1158,7.9984,7.8883,7.9265,7.7892,7.6702,7.7215,7.7179,7.7268,7.7729,7.806,7.8369,7.8552,7.8148,7.7876,7.8075,7.8075,7.8075,7.8075,7.7032,7.6261,7.613,7.5799,7.5763,7.6093,7.6093,7.6313,7.6812,7.7142,7.7289,7.7289,7.7289,7.7289,7.7289,7.7289,7.7289,7.7289,7.6959,7.6555,6.8679,7.092,7.2035,7.0276,6.7825,6.4482,5.917,5.5652,5.2754,5.0256,4.9485,4.9707,5.1119,5.1602,5.2382,5.4342,5.605,5.7843,5.985,6.3628,6.6971,6.9088,7.2741,7.6024,7.8439,8.0392,8.2203,8.3903,8.4412,8.4242,8.3454,8.2884,8.2443,8.2186,8.2186,8.2186,8.2186,8.2186,8.2186,8.2186,8.2186,8.2186,8.2186,8.2186,8.2186,8.2186,8.2186,8.2186,8.2186,8.2186,8.2039,8.1782,8.1232,8.0351,7.9376,7.8809,7.7708,7.6497,7.6754,7.6827,7.6864,7.7121,7.7745,7.828,7.7708,7.7635,7.7839,7.8699,7.9706,8.0661,8.1195,8.1782,8.215,8.1893,8.1158,8.0514,8.0514,7.9323,7.8516,7.9307,7.8794,7.8442,7.9014,7.8904,7.894,7.958,7.914,7.8977,7.958,7.9653,7.9653,7.9653,7.914,7.8332,7.7268,7.6754,7.6445,7.6445,7.624,7.635,7.6922,7.7179,7.7289,7.7289,7.7289,7.7289,7.7289,7.7289,7.7289,7.7289,7.7289,7.6885,6.5039,6.6748,6.7379,6.7342,6.4853,6.1373,5.7249,5.4388,5.1899,4.941,4.9559,5.0367,5.1231,5.2048,5.2865,5.3673,5.5206,5.6617,5.7435,6.1065,6.4853,6.8122,7.1403,7.502,7.9108,8.214,8.421,8.5023,8.4772,8.4242,8.3454,8.3381,8.303,8.2223,8.2186,8.2186,8.2186,8.2186,8.2186,8.2186,8.2186,8.2186,8.2186,8.2186,8.2186,8.2186,8.2186,8.2186,8.2186,8.2186,8.1746,8.1012,8.1012,8.0021,7.8589,7.8589,7.8023,7.7399,7.8259,7.8552,7.8699,7.9522,8.0314,8.0975,8.0938,7.9837,7.8736,7.9559,8.0954,8.2186,8.2186,8.2186,8.2003,8.1195,8.1599,8.2186,8.2186,8.2774,8.3564,8.4389,8.3858,8.3344,8.3344,8.27,8.215,8.215,8.215,8.215,8.215,8.215,8.215,8.215,8.215,8.1489,7.989,7.8259,7.7289,7.7289,7.6533,7.6093,7.613,7.6885,7.7289,7.7289,7.7289,7.7289,7.7289,7.7289,7.7289,7.7289,7.7289,7.6885,6.0062,6.2068,6.2996,6.2402,6.1065,5.8799,5.4713,5.2754,5.1231,4.9299,4.9559,5.0376,5.1231,5.2048,5.3042,5.4416,5.5577,5.6952,5.8873,6.1696,6.4593,6.7342,7.2555,7.7324,8.0854,8.334,8.506,8.5872,8.6133,8.5673,8.4278,8.4242,8.3618,8.2223,8.2186,8.2186,8.2186,8.2186,8.2186,8.2186,8.2186,8.2186,8.2186,8.2186,8.2186,8.2186,8.2186,8.2186,8.215,8.1599,8.1232,8.0901,7.98,7.9066,7.8516,7.7913,7.7913,7.8222,7.8516,7.9323,8.0277,8.0534,8.1158,8.1819,8.1819,8.1452,8.1122,8.1395,8.1835,8.2186,8.2186,8.2186,8.215,8.1893,8.2003,8.2186,8.2186,8.2406,8.2663,8.292,8.2737,8.2406,8.184,8.1562,8.1379,8.1379,8.1379,8.1562,8.2113,8.2186,8.2186,8.2186,8.2186,8.1782,8.0718,7.9617,7.8772,7.8222,7.7399,7.6922,7.6922,7.7179,7.7289,7.7289,7.7289,7.7289,7.7289,7.7289,7.7289,7.7289,7.7289,7.7179,5.4973,5.7127,5.8205,5.735,5.6756,5.5577,5.2382,5.1045,5.0265,4.9522,5.0005,5.0859,5.1714,5.2531,5.3497,5.4787,5.5716,5.7063,5.9133,6.1845,6.5188,6.9546,7.4747,7.9293,8.26,8.4312,8.5641,8.6701,8.6715,8.6072,8.4682,8.4315,8.3544,8.2223,8.2186,8.2186,8.2186,8.2186,8.2186,8.2186,8.2186,8.2186,8.2186,8.2186,8.2186,8.2186,8.2186,8.2186,0.0,8.1342,8.0828,8.0424,7.9103,7.8589,7.8516,7.8002,7.8332,7.9103,7.9396,8.0167,8.1048,8.1342,8.1782,8.215,8.1819,8.1966,8.2186,8.2186,8.2186,8.2186,8.2186,8.2186,8.2113,8.1819,8.2223,8.2663,8.2663,8.3141,8.3654,8.3948,8.3765,8.3398,8.2884,8.2296,8.1913,8.1913,8.1913,8.2113,8.259,8.292,8.2994,8.27,8.2663,8.2333,8.1525,8.044,7.9596,7.9066,7.7949,7.7289,7.7289,7.7289,7.7289,7.7289,7.7289,7.7289,7.7289,7.7289,7.7289,7.7289,7.7289,7.7289,0.0,5.2197,5.3264,5.2531,5.2345,5.1899,5.0293,4.9327,0.0,4.9847,5.0748,5.1639,5.2457,5.3311,5.4156,5.4973,5.5837,5.6989,5.865,6.1845,6.6685,7.3831,7.7547,8.078,8.4072,8.4997,8.5974,8.7292,8.6594,8.5638,8.4572,8.3821,8.3014,8.215,8.2113,8.215,8.2186,8.2186,8.2186,8.2186,8.2186,8.2186,8.2186,8.2186,8.2186,8.2186,8.2186,8.215,8.2039,8.1269,8.0424,7.9633,7.8809,7.8552,7.8589,7.8589,7.9155,8.0,8.0755,8.1048,8.1232,8.1966,8.2186,8.2039,8.1305,8.1599,8.2186,8.2186,8.2186,8.2186,8.2186,8.2186,8.2003,8.1269,8.2317,8.3491,8.3491,8.4756,8.6114,8.6831,8.6407,8.5857,8.58,8.4572,8.3564,8.3491,8.3491,8.3491,8.3491,8.4132,8.4278,8.3491,8.3381,8.3067,8.226,8.0734,7.9816,7.9816,7.8206,7.7289,7.7289,7.7289,7.7289,7.7289,7.7289,7.7289,7.7289,7.7289,7.7289,7.7289,7.7289,7.7289,4.629,0.0,5.0005,4.9819,4.9782,4.9522,0.0,4.811,4.8221,4.9039,5.0376,5.1639,5.2457,5.3747,5.501,5.5874,5.6692,5.8029,6.0285,6.5039,7.0054,7.4946,7.7881,8.078,8.4072,8.4997,8.5715,8.6516,8.6263,8.5381,8.3765,8.3491,8.2757,8.1342,8.1269,8.1562,8.2186,8.2186,8.2186,8.2186,8.2186,8.2186,8.2186,8.2186,8.2186,8.2186,8.2186,8.1856,8.1232,8.0388,7.9633,7.8809,7.7949,7.7986,7.8589,7.8589,7.9507,8.0755,8.0938,8.1415,8.1929,8.215,8.2186,8.215,8.1966,8.2039,8.2186,8.2186,8.2186,8.2186,8.2186,8.2186,8.215,8.1966,8.3141,8.4315,8.4315,8.56,8.6757,8.6941,8.6831,8.6518,8.5911,8.549,8.5013,8.4425,8.4315,8.4315,8.4315,8.4499,8.4278,8.3491,8.3381,8.3067,8.226,8.0734,7.9816,7.9816,7.8206,7.7289,7.7289,7.7289,7.7289,7.7289,7.7289,7.7289,7.7289,7.7289,7.7289,7.7289,7.7289,7.7289,4.5064,4.6513,4.7813,4.7813,4.8073,4.8259,4.7813,4.7999,4.8593,4.9819,5.1045,5.2197,5.3014,5.4156,5.527,5.6172,5.7276,5.943,6.3442,6.7948,7.2369,7.6469,7.8773,8.1211,8.4109,8.4626,8.5064,8.5704,8.5267,8.4535,8.3471,8.2684,8.1876,8.1048,8.0645,8.0828,8.1636,8.1636,8.1819,8.2186,8.2186,8.2186,8.2186,8.2186,8.2003,8.1636,8.1636,8.1195,8.0424,8.0,7.9559,7.9103,7.8626,7.8956,7.9653,7.9286,7.9947,8.1012,8.1012,8.1525,8.215,8.1782,8.1893,8.2113,8.1746,8.1893,8.2186,8.2186,8.2186,8.2186,8.2186,8.2186,8.2296,8.2663,8.3691,8.4682,8.5086,8.6114,8.6978,8.6978,8.6978,8.6885,8.6444,8.604,8.5637,8.5233,8.5159,8.5159,8.5159,8.549,8.538,8.4609,8.4499,8.4022,8.2847,8.1599,8.0587,7.9853,7.8589,7.7729,7.7326,7.7289,7.7289,7.7289,7.7289,7.7289,7.7289,7.7289,7.7289,7.7289,7.7289,7.7289,4.5233,4.6133,4.6884,4.6884,4.7478,4.8073,4.8073,4.8593,4.9522,5.1082,5.2048,5.2865,5.3831,5.475,5.5679,5.6692,5.8539,6.1622,6.6748,7.0289,7.3868,7.7844,7.9739,8.1657,8.4116,8.4218,8.4308,8.4859,8.4161,8.3521,8.3067,8.1729,8.0901,8.0645,7.9947,7.9947,8.0645,8.0755,8.1158,8.1835,8.1966,8.1929,8.1835,8.1966,8.1562,8.0828,8.0828,8.0351,7.9633,7.9743,7.9743,7.9633,7.9633,8.0094,8.0718,7.9926,8.0204,8.1012,8.1158,8.1636,8.2076,8.1415,8.1636,8.2076,8.1379,8.1672,8.2186,8.2186,8.2186,8.2186,8.2186,8.2186,8.2406,8.3197,8.4022,8.4829,8.5654,8.6444,8.6978,8.6978,8.6978,8.6978,8.6978,8.6444,8.5967,8.5967,8.5967,8.5967,8.5967,8.6591,8.6701,8.5894,8.58,8.5196,8.3711,8.2847,8.1746,8.0257,7.9286,7.8405,7.7546,7.7362,7.7289,7.7289,7.7289,7.7289,7.7289,7.7289,7.7289,7.7289,7.7289,7.7289,4.5914,4.7308,4.8519,4.8519,4.915,4.9736,4.9736,4.981,5.0182,5.1193,5.2048,5.3051,5.4527,5.6087,5.761,5.9096,6.2513,6.5745,6.8011,7.1143,7.4463,7.7881,7.9739,8.1613,8.4002,8.4157,8.4055,8.3924,8.3802,8.3006,8.1452,8.1122,8.0388,7.8993,7.8846,7.8846,7.8956,7.9633,8.0036,8.0183,8.0865,8.0828,8.0183,8.0865,8.0755,8.0,8.0,7.9522,7.8846,7.9522,7.9412,7.8772,7.8772,7.9302,7.989,7.9066,7.9727,8.1122,8.1782,8.2113,8.2186,8.2039,8.2113,8.2186,8.2039,8.2113,8.2186,8.2186,8.2186,8.2186,8.2186,8.2186,8.2406,8.3197,8.4022,8.4829,8.5654,8.6444,8.6978,8.6978,8.6978,8.6978,8.6978,8.6904,8.6811,8.6811,8.6811,8.6811,8.6811,8.6904,8.6701,8.5894,8.58,8.5416,8.4499,8.3691,8.281,8.1893,8.044,7.9265,7.8442,7.7693,7.7289,7.7289,7.7289,7.7289,7.7289,7.7289,7.7289,7.7289,7.7289,7.7289,4.6066,4.7858,4.9608,5.0107,5.0525,5.0822,5.0822,5.1491,5.2187,5.2596,5.372,5.4834,5.5577,5.7063,5.9096,6.2068,6.5262,6.8122,7.0215,7.2939,7.5763,7.8625,7.9914,8.1348,8.329,8.3306,8.3134,8.3012,8.2548,8.1863,8.1048,8.0167,7.936,7.8626,7.8148,7.7876,7.7876,7.8243,7.8883,7.9816,8.0167,8.0183,7.9816,8.0167,7.991,7.9155,7.9155,7.8662,7.7949,7.8809,7.8919,7.8626,7.9066,7.9486,7.9779,7.9376,7.9743,8.0461,8.1269,8.1819,8.2186,8.2186,8.2186,8.2186,8.2186,8.2186,8.2186,8.2186,8.2186,8.2296,8.2737,8.2847,8.3177,8.4389,8.4976,8.5453,8.6261,8.6738,8.6978,8.6978,8.6978,8.6978,8.6978,8.6978,8.6978,8.6978,8.6978,8.6978,8.6978,8.6978,8.6885,8.6481,8.6444,8.6114,8.5306,8.4903,8.3801,8.1672,8.044,7.9633,7.9265,7.8442,7.7986,7.7986,7.7546,7.7289,7.7289,7.7289,7.7289,7.7289,7.7289,7.7289,4.6294,4.8224,5.0185,5.1111,5.1788,5.2234,5.2234,5.3487,5.4676,5.4676,5.5837,5.6905,5.706,5.8916,6.1589,6.5325,6.8011,7.0363,7.2456,7.4686,7.6865,7.8903,7.9791,8.0852,8.2414,8.2138,8.1929,8.2097,8.1255,8.0645,8.0461,7.9286,7.8516,7.8295,7.7656,7.7289,7.7289,7.7289,7.7949,7.9213,7.9412,7.9412,7.9213,7.9449,7.9066,7.8295,7.8295,7.7913,7.7362,7.8259,7.8589,7.8662,7.9302,7.9522,7.9559,7.9743,7.9926,8.022,8.1012,8.1672,8.2186,8.2186,8.2186,8.2186,8.2186,8.2186,8.2223,8.2443,8.248,8.2627,8.3234,8.3528,8.4058,8.5453,8.58,8.6004,8.6848,8.6978,8.6978,8.6978,8.6978,8.6978,8.6978,8.6978,8.6978,8.6978,8.6978,8.6978,8.6978,8.6978,8.6978,8.6978,8.6978,8.6664,8.5857,8.5654,8.4389,8.1746,8.0645,8.0073,8.0073,7.9302,7.8772,7.8589,7.7949,7.7509,7.7289,7.7289,7.7289,7.7289,7.7289,7.7289,4.7012,4.8532,5.0111,5.0914,5.2945,5.475,5.475,5.6013,5.7249,5.7249,5.7907,5.873,5.9329,6.269,6.6257,6.8915,7.1441,7.3385,7.4314,7.5912,7.7269,7.8006,7.8881,7.9971,8.1449,8.0727,8.0493,8.1213,8.0409,7.9559,7.8809,7.8662,7.8222,7.7436,7.7326,7.7289,7.7289,7.7289,7.7362,7.7509,7.8295,7.8259,7.7509,7.8332,7.8222,7.7399,7.7399,7.7362,7.7362,7.8259,7.8589,7.8589,7.8662,7.8699,7.8772,7.9522,8.0277,8.1048,8.1819,8.215,8.2186,8.2186,8.2186,8.2186,8.2186,8.2186,8.237,8.3087,8.3308,8.3344,8.3381,8.3948,8.4719,8.56,8.58,8.6004,8.6848,8.6978,8.6978,8.6978,8.6978,8.6978,8.6978,8.6978,8.6978,8.6978,8.6978,8.6978,8.6978,8.6978,8.6978,8.6978,8.6978,8.6664,8.5857,8.5123,8.4278,8.3271,8.1766,8.0901,8.0901,8.0131,7.9376,7.8589,7.8552,7.8112,7.7289,7.7289,7.7289,7.7289,7.7289,7.7289,4.7196,4.8873,5.0607,5.0987,5.3356,5.5552,5.5552,5.7244,5.9094,6.0082,6.0933,6.1758,6.2581,6.4385,6.6716,6.9829,7.2347,7.4367,7.5662,7.681,7.7795,7.8551,7.8906,7.952,8.0606,8.0254,8.0109,8.044,7.9601,7.8919,7.8626,7.8112,7.7656,7.7326,7.7289,7.7289,7.7289,7.7289,7.7289,7.7289,7.7619,7.7619,7.7326,7.7656,7.7619,7.7289,7.7289,7.7289,7.7326,7.7656,7.7803,7.7803,7.7803,7.8112,7.8699,7.9522,8.0314,8.1122,8.1929,8.2186,8.2186,8.2186,8.2186,8.2186,8.2186,8.2186,8.237,8.3161,8.3748,8.4278,8.4756,8.5123,8.5563,8.6371,8.6554,8.6628,8.6904,8.6978,8.6978,8.6978,8.6978,8.6978,8.6978,8.6978,8.6978,8.6978,8.6978,8.6978,8.6978,8.6978,8.6978,8.6978,8.6978,8.6867,8.6591,8.5343,8.4462,8.4168,8.2627,8.1746,8.1746,8.0975,8.0388,8.0094,7.9103,7.8442,7.8112,7.7546,7.7289,7.7289,7.7289,7.7289,4.7887,4.9258,5.0694,5.1593,5.3806,5.606,5.7081,5.8906,6.0808,6.2409,6.3787,6.4968,6.5964,6.6667,6.8131,7.1344,7.3397,7.5147,7.6749,7.7495,7.8064,7.8559,7.8677,7.8988,7.9756,7.9479,7.9336,7.9593,7.874,7.8185,7.8185,7.7619,7.7289,7.7289,7.7289,7.7289,7.7289,7.7289,7.7289,7.7289,7.7289,7.7289,7.7289,7.7289,7.7289,7.7289,7.7289,7.7289,7.7289,7.7289,7.7289,7.7289,7.7289,7.7839,7.8699,7.9522,8.0314,8.1122,8.1929,8.2186,8.2186,8.2186,8.2186,8.2186,8.2186,8.2186,8.2406,8.3471,8.4168,8.4829,8.5894,8.6187,8.6334,8.6867,8.6978,8.6978,8.6978,8.6978,8.6978,8.6978,8.6978,8.6978,8.6978,8.6978,8.6978,8.6978,8.6978,8.6978,8.6978,8.6978,8.6978,8.6978,8.6978,8.6978,8.6978,8.5527,8.4609,8.4609,8.3104,8.2186,8.2186,8.1672,8.1269,8.1012,7.991,7.9103,7.8589,7.7986,7.7582,7.7289,7.7289,7.7289,4.9239,4.9679,5.0218,5.2698,5.4485,5.6466,5.9685,6.1235,6.2506,6.4119,6.6306,6.826,6.9319,6.9964,7.1199,7.3959,7.495,7.5959,7.7562,7.7914,7.7957,7.7798,7.7914,7.8239,7.8906,7.8152,7.7952,7.8725,7.7858,7.7289,7.7289,7.7289,7.7289,7.7289,7.7289,7.7289,7.7289,7.7289,7.7289,7.7289,7.7289,7.7289,7.7289,7.7289,7.7289,7.7289,7.7289,7.7289,7.7289,7.7289,7.7289,7.7289,7.7289,7.7839,7.8699,7.9486,8.0277,8.1122,8.1893,8.2186,8.2186,8.2186,8.2186,8.2186,8.2186,8.2186,8.2553,8.4168,8.4609,8.4976,8.6574,8.6978,8.6978,8.6978,8.6978,8.6978,8.6978,8.6978,8.6978,8.6978,8.6978,8.6978,8.6978,8.6978,8.6978,8.6978,8.6978,8.6978,8.6978,8.6978,8.6978,8.6978,8.6978,8.6978,8.6978,8.5527,8.4609,8.4609,8.3104,8.2186,8.2186,8.2186,8.1819,8.1048,8.1012,8.0241,7.8626,7.8589,7.8148,7.7326,7.7289,7.7289,4.9553,5.1001,5.2505,5.3144,5.58,5.8662,6.0064,6.2414,6.5257,6.8553,6.9812,7.0441,7.084,7.0951,7.1668,7.3706,7.508,7.6309,7.7481,7.7688,7.7703,7.7658,7.7791,7.7894,7.8005,7.7761,7.7694,7.7952,7.7564,7.7289,7.7289,7.7289,7.7289,7.7289,7.7289,7.7289,7.7289,7.7289,7.7289,7.7289,7.7289,7.7289,7.7289,7.7289,7.7289,7.7289,7.7289,7.7289,7.7289,7.7289,7.7289,7.7289,7.7289,7.7839,7.8626,7.8883,7.9486,8.0183,8.044,8.0865,8.1379,8.1379,8.1746,8.2186,8.2186,8.2186,8.2553,8.4168,8.4609,8.4976,8.6574,8.6978,8.6978,8.6978,8.6978,8.6978,8.6978,8.6978,8.6978,8.6978,8.6978,8.6978,8.6978,8.6978,8.6978,8.6978,8.6978,8.6978,8.6978,8.6978,8.6978,8.6978,8.6978,8.6775,8.6187,8.5196,8.4352,8.3785,8.2774,8.2186,8.2186,8.2186,8.2076,8.1856,8.1305,8.0791,8.0277,7.914,7.8479,7.8222,7.7582,7.7289,5.0522,5.2082,5.3689,5.457,5.7365,6.0647,6.3564,6.5778,6.8091,7.116,7.2298,7.2781,7.2902,7.2802,7.3185,7.4683,7.5632,7.6559,7.7458,7.7628,7.7673,7.7673,7.7762,7.7762,7.7599,7.762,7.759,7.7478,7.7387,7.7289,7.7289,7.7289,7.7289,7.7289,7.7289,7.7289,7.7289,7.7289,7.7289,7.7289,7.7289,7.7289,7.7289,7.7289,7.7289,7.7289,7.7289,7.7289,7.7289,7.7289,7.7289,7.7289,7.7289,7.7619,7.8148,7.8479,7.8919,7.9376,7.9706,8.011,8.0571,8.0901,8.1342,8.1782,8.2113,8.2186,8.2553,8.4168,8.4609,8.4976,8.6574,8.6978,8.6978,8.6978,8.6978,8.6978,8.6978,8.6978,8.6978,8.6978,8.6978,8.6978,8.6978,8.6978,8.6978,8.6978,8.6978,8.6978,8.6978,8.6978,8.6867,8.6554,8.6518,8.6334,8.582,8.5049,8.4535,8.4352,8.3287,8.27,8.27,8.237,8.2186,8.2186,8.1709,8.1342,8.1012,8.0021,7.9396,7.9082,7.8222,7.7803,5.1917,5.3061,5.4322,5.6747,5.9241,6.2757,6.8939,7.0381,7.0881,7.2496,7.4001,7.5058,7.5183,7.5081,7.5315,7.6199,7.6427,7.6722,7.751,7.7703,7.7791,7.7791,7.7791,7.7732,7.7605,7.7554,7.7493,7.7289,7.7289,7.7289,7.7289,7.7289,7.7289,7.7289,7.7289,7.7289,7.7289,7.7289,7.7289,7.7289,7.7289,7.7289,7.7289,7.7289,7.7289,7.7289,7.7289,7.7289,7.7289,7.7289,7.7289,7.7289,7.7289,7.7289,7.7399,7.8185,7.8479,7.8589,7.9339,7.9633,7.9816,8.0645,8.0938,8.1158,8.1966,8.2186,8.2517,8.4058,8.4535,8.4939,8.65,8.6941,8.6978,8.6978,8.6978,8.6978,8.6978,8.6978,8.6978,8.6978,8.6978,8.6978,8.6978,8.6978,8.6978,8.6978,8.6978,8.6978,8.6978,8.6978,8.6701,8.5894,8.5857,8.5874,8.571,8.5086,8.4976,8.5637,8.4242,8.3381,8.3381,8.2627,8.2186,8.2186,8.2186,8.1819,8.1122,8.1048,8.0608,7.989,7.9066,7.8662,5.2749,5.4835,5.6863,5.8615,6.2192,6.6431,7.1071,7.2545,7.3377,7.4992,7.5616,7.5851,7.5881,7.5851,7.5924,7.6138,7.6689,7.7212,7.7554,7.7614,7.7628,7.7628,7.7628,7.7569,7.7387,7.7372,7.7356,7.7289,7.7289,7.7289,7.7289,7.7289,7.7289,7.7289,7.7289,7.7289,7.7289,7.7289,7.7289,7.7289,7.7289,7.7289,7.7289,7.7289,7.7289,7.7289,7.7289,7.7289,7.7289,7.7289,7.7289,7.7289,7.7289,7.7289,7.7326,7.7509,7.7582,7.7582,7.7766,7.8295,7.8993,7.9816,8.0498,8.1158,8.1966,8.2186,8.2406,8.3381,8.4115,8.4829,8.5783,8.6518,8.6978,8.6978,8.6978,8.6978,8.6978,8.6978,8.6978,8.6978,8.6978,8.6978,8.6978,8.6978,8.6978,8.6978,8.6978,8.6978,8.6978,8.6978,8.6701,8.5894,8.6371,8.6224,8.4976,8.527,8.5343,8.4903,8.3931,8.3381,8.3381,8.2627,8.2186,8.2186,8.2186,8.2113,8.1929,8.1305,8.0901,8.0718,7.9926,7.9192,5.3598,5.5648,5.8095,6.1687,6.5238,6.8736,7.207,7.3629,7.4742,7.5978,7.6469,7.6665,7.6665,7.6665,7.6665,7.6665,7.7093,7.7478,7.7605,7.762,7.762,7.762,7.7508,7.7417,7.7326,7.7289,7.7289,7.7289,7.7289,7.7289,7.7289,7.7289,7.7289,7.7289,7.7289,7.7289,7.7289,7.7289,7.7289,7.7289,7.7289,7.7289,7.7289,7.7289,7.7289,7.7289,7.7289,7.7289,7.7289,7.7289,7.7289,7.7289,7.7289,7.7289,7.7289,7.7289,7.7289,7.7289,7.7289,7.7582,7.8112,7.8956,7.9764,8.0571,8.1379,8.1893,8.237,8.3161,8.3711,8.4315,8.549,8.6114,8.6518,8.6904,8.6978,8.6978,8.6978,8.6978,8.6978,8.6978,8.6978,8.6978,8.6978,8.6978,8.6978,8.6978,8.6978,8.6978,8.6978,8.6978,8.6701,8.5894,8.6187,8.6077,8.5233,8.5563,8.5783,8.5747,8.4629,8.3968,8.3968,8.2847,8.2186,8.2186,8.2186,8.2186,8.2186,8.1782,8.1562,8.1562,8.0755,7.9947,5.44,5.6467,5.932,6.4556,6.7592,6.998,7.2469,7.3992,7.519,7.6214,7.6912,7.7289,7.7289,7.7289,7.7289,7.7289,7.7448,7.7539,7.7539,7.7539,7.7539,7.7539,7.7402,7.7289,7.7289,7.7289,7.7289,7.7289,7.7289,7.7289,7.7289,7.7289,7.7289,7.7289,7.7289,7.7289,7.7289,7.7289,7.7289,7.7289,7.7289,7.7289,7.7289,7.7289,7.7289,7.7289,7.7289,7.7289,7.7289,7.7289,7.7289,7.7289,7.7289,7.7289,7.7289,7.7289,7.7289,7.7289,7.7289,7.7289,7.7436,7.8332,7.9029,7.9779,8.0718,8.1452,8.215,8.2994,8.3271,8.3711,8.5049,8.56,8.5967,8.6628,8.6904,8.6978,8.6978,8.6978,8.6978,8.6978,8.6978,8.6978,8.6978,8.6978,8.6978,8.6978,8.6978,8.6978,8.6978,8.6978,8.6701,8.5894,8.593,8.593,8.58,8.593,8.6224,8.6775,8.5416,8.4535,8.4389,8.2994,8.2186,8.2186,8.2186,8.2186,8.2186,8.2186,8.2186,8.2186,8.1525,8.0681,5.5064,5.858,6.2259,6.5278,6.7691,6.998,7.259,7.3619,7.4556,7.6234,7.695,7.7289,7.7289,7.7289,7.7289,7.7289,7.7304,7.7356,7.7356,7.7356,7.7356,7.7356,7.7341,7.7289,7.7289,7.7289,7.7289,7.7289,7.7289,7.7289,7.7289,7.7289,7.7289,7.7289,7.7289,7.7289,7.7289,7.7289,7.7289,7.7289,7.7289,7.7289,7.7289,7.7289,7.7289,7.7289,7.7289,7.7289,7.7289,7.7289,7.7289,7.7289,7.7289,7.7289,7.7289,7.7289,7.7289,7.7289,7.7289,7.7289,7.7436,7.8332,7.8662,7.9029,8.0534,8.1085,8.1342,8.2113,8.2884,8.3454,8.3638,8.4756,8.5837,8.593,8.6481,8.6978,8.6978,8.6978,8.6978,8.6978,8.6978,8.6978,8.6978,8.6978,8.6978,8.6978,8.6978,8.6978,8.6978,8.6978,8.6701,8.5894,8.6407,8.6554,8.5874,8.6444,8.6591,8.6004,8.5086,8.4278,8.3601,8.27,8.2186,8.2186,8.2186,8.2186,8.2186,8.2186,8.2186,8.2186,8.2076,8.1248,5.5839,5.8965,6.2145,6.4675,6.7098,6.9371,7.1437,7.2738,7.3873,7.5111,7.5843,7.6531,7.7414,7.7524,7.7463,7.7463,7.7387,7.7289,7.7289,7.7289,7.7289,7.7289,7.7289,7.7289,7.7289,7.7289,7.7289,7.7289,7.7289,7.7289,7.7289,7.7289,7.7289,7.7289,7.7289,7.7289,7.7289,7.7289,7.7289,7.7289,7.7289,7.7289,7.7289,7.7289,7.7289,7.7289,7.7289,7.7289,7.7289,7.7289,7.7289,7.7289,7.7289,7.7289,7.7289,7.7289,7.7289,7.7289,7.7289,7.7289,7.7362,7.7766,7.8222,7.8736,7.9433,8.0277,8.1085,8.1415,8.2113,8.2847,8.3271,8.3911,8.4682,8.56,8.6077,8.6444,8.6904,8.6978,8.6978,8.6978,8.6978,8.6978,8.6978,8.6978,8.6978,8.6978,8.6978,8.6978,8.6978,8.6978,8.6885,8.6518,8.6811,8.6885,8.6518,8.6794,8.6664,8.5874,8.5049,8.4242,8.3418,8.2627,8.2186,8.2186,8.2186,8.2186,8.2186,8.2186,8.2186,8.2186,8.2186,8.1562,5.6116,5.85,6.097,6.3431,6.5811,6.8048,6.9868,7.1474,7.2865,7.3906,7.4686,7.5587,7.7035,7.729,7.7311,7.7311,7.7286,7.7289,7.7289,7.7289,7.7289,7.7289,7.7289,7.7289,7.7289,7.7289,7.7289,7.7289,7.7289,7.7215,7.6995,7.6995,7.6885,7.6702,7.6885,7.6995,7.6995,7.7215,7.7289,7.7289,7.7289,7.7289,7.7289,7.7289,7.7289,7.7289,7.7289,7.7289,7.7289,7.7289,7.7289,7.7289,7.7289,7.7289,7.7289,7.7289,7.7289,7.7289,7.7289,7.7289,7.7289,7.7289,7.7729,7.8295,7.8516,7.958,8.0755,8.0938,8.1562,8.2333,8.2957,8.3234,8.3711,8.4903,8.549,8.6004,8.6848,8.6978,8.6978,8.6978,8.6848,8.6701,8.6701,8.6554,8.6481,8.6664,8.6701,8.6775,8.6978,8.6978,8.6978,8.6978,8.6978,8.6978,8.6978,8.6978,8.6664,8.5874,8.5233,8.4535,8.3748,8.3141,8.281,8.281,8.281,8.259,8.2186,8.2186,8.2186,8.2186,8.2186,8.1782,5.5612,5.727,5.9302,6.1726,6.3659,6.5633,6.8085,6.9768,7.1335,7.3086,7.3996,7.4745,7.571,7.623,7.6464,7.6464,7.6918,7.7289,7.7289,7.7289,7.7289,7.7289,7.7289,7.7289,7.7289,7.7289,7.7289,7.7289,7.7289,7.6959,7.6203,7.6166,7.5799,7.505,7.5763,7.6166,7.6166,7.6922,7.7289,7.7289,7.7289,7.7289,7.7289,7.7289,7.7289,7.7289,7.7289,7.7289,7.7289,7.7289,7.7289,7.7289,7.7289,7.7289,7.7289,7.7289,7.7289,7.7289,7.7289,7.7289,7.7289,7.7289,7.7326,7.7509,7.8369,7.9176,8.0036,8.0791,8.1562,8.2186,8.226,8.2847,8.3418,8.3491,8.4682,8.6004,8.6848,8.6978,8.6978,8.6978,8.6371,8.5857,8.5857,8.5233,8.4976,8.5747,8.5857,8.6151,8.6904,8.6978,8.6978,8.6978,8.6978,8.6978,8.6978,8.6978,8.6664,8.5874,8.5747,8.538,8.4572,8.4499,8.4499,8.4499,8.4499,8.3728,8.2186,8.2186,8.2186,8.2186,8.2186,8.1782,5.5467,5.6985,5.8703,6.0148,6.2211,6.4278,6.5807,6.7789,6.962,7.0796,7.2071,7.3097,7.341,7.4723,7.5763,7.5763,7.5765,7.5747,7.5747,7.5747,7.5747,7.5747,7.5747,7.5747,7.5747,7.5747,7.5747,7.5747,7.5747,7.5637,7.5344,7.5322,7.5197,7.4903,7.516,7.5322,7.5322,7.613,7.6518,7.6533,7.7069,7.7289,7.7289,7.7289,7.7289,7.7289,7.7289,7.7289,7.7289,7.7289,7.7289,7.7289,7.7289,7.7289,7.7289,7.7289,7.7289,7.7289,7.7289,7.7289,7.7289,7.7289,7.7289,7.7362,7.7656,7.8736,7.9853,8.0131,8.1158,8.2186,8.2186,8.2406,8.2774,8.3271,8.4242,8.5233,8.604,8.6628,8.6831,8.6334,8.6004,8.5637,8.5123,8.5233,8.5453,8.5747,8.6224,8.6664,8.6941,8.6978,8.6978,8.6978,8.6978,8.6978,8.6978,8.6978,8.6664,8.5874,8.58,8.5416,8.4646,8.4609,8.4609,8.4609,8.4609,8.4058,8.2994,8.2994,8.27,8.2186,8.2186,8.2039,5.5794,5.6875,5.809,5.9249,6.0828,6.2507,6.3993,6.5835,6.7628,6.9001,7.04,7.1441,7.1662,7.3034,7.4363,7.4959,7.5013,7.4992,7.4992,7.4992,7.4926,7.4918,7.4903,7.4903,7.4903,7.4903,7.4903,7.4903,7.4903,7.4793,7.4515,7.4515,7.4515,7.4515,7.4515,7.461,7.4903,7.5417,7.5689,7.5726,7.6518,7.6885,7.6922,7.7179,7.7289,7.7289,7.7289,7.7289,7.7289,7.7289,7.7289,7.7289,7.7289,7.7289,7.7289,7.7289,7.7289,7.7289,7.7289,7.7289,7.7289,7.7289,7.7289,7.7289,7.7289,7.8295,7.9449,7.9706,8.0755,8.1856,8.2113,8.2186,8.2406,8.3197,8.3821,8.4425,8.5233,8.582,8.6114,8.5857,8.5343,8.4903,8.4646,8.4829,8.5159,8.5727,8.6261,8.6701,8.6978,8.6978,8.6978,8.6978,8.6978,8.6978,8.6978,8.6978,8.6775,8.6224,8.6187,8.5967,8.5453,8.5416,8.5416,8.5416,8.5416,8.5013,8.4205,8.3638,8.3124,8.259,8.2333,8.2333,0.0,0.0,0.0,5.8963,5.9496,6.0237,6.2729,6.3975,6.5319,6.7838,6.9013,6.9793,7.0496,7.1168,7.221,7.3986,7.469,7.5043,7.5043,7.5043,7.4985,7.486,7.483,7.483,7.483,7.483,7.483,7.483,7.483,7.4478,7.3707,7.367,7.367,7.367,7.367,7.4037,7.483,7.483,7.4867,7.4903,7.5726,7.613,7.6166,7.6922,7.7289,7.7289,7.7289,7.7289,7.7289,7.7289,7.7289,7.7289,7.7289,7.7289,7.7289,7.7289,7.7289,7.7289,7.7289,7.7289,7.7289,7.7289,7.7289,7.7289,7.7289,7.7913,7.8772,7.9559,8.0351,8.1195,8.2003,8.2186,8.2406,8.3161,8.3344,8.3564,8.4389,8.4535,8.4756,8.5563,8.4462,8.3638,8.4425,8.3931,8.3968,8.5563,8.582,8.6114,8.6904,8.6978,8.6978,8.6978,8.6978,8.6978,8.6978,8.6978,8.6978,8.6978,8.6978,8.6978,8.6978,8.6978,8.6978,8.6978,8.6978,8.6591,8.58,8.4205,8.3418,8.3381,8.259,8.2663,5.6737,0.0,0.0,0.0,0.0,0.0,6.0458,6.1806,6.3245,6.454,6.602,6.7492,6.8729,6.9514,7.0336,7.1387,7.259,7.3372,7.3372,7.3372,7.3315,7.3171,7.3156,7.3156,7.3156,7.3156,7.3156,7.3156,7.3156,7.3083,7.2826,7.2826,7.2826,7.2826,7.2826,7.2936,7.3156,7.3744,7.4331,7.4903,7.5726,7.6423,7.6995,7.7215,7.7289,7.7289,7.7289,7.7289,7.7289,7.7289,7.7289,7.7289,7.7289,7.7289,7.7289,7.7289,7.7289,7.7289,7.7289,7.7289,7.7289,7.7289,7.7289,7.7289,7.7289,7.7913,7.8662,7.8883,7.9947,8.1195,8.2003,8.2186,8.226,8.248,8.2517,8.2737,8.3564,8.3287,8.3104,8.3911,8.3711,8.3454,8.3675,8.4022,8.4609,8.5637,8.6297,8.6775,8.6978,8.6978,8.6978,8.6978,8.6978,8.6978,8.6978,8.6978,8.6978,8.6978,8.6978,8.6978,8.6978,8.6978,8.6978,8.6978,8.6978,8.6591,8.58,8.4756,8.3968,8.3381,8.3161,8.3197,5.7299,5.7629,5.802,5.8088,0.0,0.0,5.9411,6.0302,6.1368,6.2561,6.3667,6.4864,6.6359,6.7219,6.809,6.9223,7.0434,7.1434,7.2083,7.2488,7.2653,7.251,7.2496,7.2496,7.2496,7.2496,7.2496,7.2496,7.2496,7.2496,7.2496,7.2496,7.2496,7.2496,7.2496,7.2496,7.2496,7.2973,7.3413,7.3913,7.505,7.5821,7.6335,7.6995,7.7289,7.7289,7.7289,7.7289,7.7289,7.7289,7.7289,7.7289,7.7289,7.7289,7.7289,7.7289,7.7289,7.7289,7.7289,7.7289,7.7289,7.7289,7.7289,7.7289,7.7289,7.7656,7.8148,7.8516,7.9764,8.1122,8.1562,8.1929,8.2186,8.2186,8.2186,8.2333,8.281,8.2517,8.2443,8.3234,8.3124,8.3104,8.3785,8.4278,8.4976,8.6114,8.6701,8.6978,8.6978,8.6978,8.6978,8.6978,8.6978,8.6978,8.6978,8.6978,8.6978,8.6978,8.6978,8.6978,8.6978,8.6978,8.6978,8.6978,8.6978,8.6444,8.5306,8.4829,8.4205,8.3381,8.3381,8.3748,5.7997,5.807,5.8143,5.8143,5.8143,0.0,5.9175,5.932,5.9734,6.1362,6.1717,6.2211,6.3739,6.4672,6.5727,6.7224,6.8231,6.9409,7.114,7.1987,7.2395,7.2253,7.2239,7.2239,7.2239,7.2239,7.2239,7.2239,7.2239,7.2239,7.2239,7.2312,7.2386,7.2386,7.2459,7.2496,7.2496,7.2496,7.2606,7.2789,7.4206,7.4977,7.5234,7.6665,7.7289,7.7289,7.7289,7.7289,7.7289,7.7289,7.7289,7.7289,7.7289,7.7289,7.7289,7.7289,7.7289,7.7289,7.7289,7.7289,7.7289,7.7289,7.7289,7.7289,7.7289,7.7289,7.7472,7.8369,7.969,8.0901,8.0975,8.1599,8.2186,8.2186,8.2186,8.2186,8.2186,8.2186,8.2406,8.3124,8.27,8.2663,8.4205,8.4535,8.5123,8.6664,8.6941,8.6978,8.6978,8.6978,8.6978,8.6978,8.6978,8.6978,8.6978,8.6978,8.6978,8.6978,8.6978,8.6978,8.6978,8.6978,8.6978,8.6978,8.6904,8.6151,8.4719,8.4646,8.4205,8.3381,8.3564,8.4425,5.7997,5.8462,5.8976,5.8976,5.8976,0.0,5.9195,5.8798,5.8705,5.9697,5.9998,6.0501,6.1995,6.2965,6.3775,6.4668,6.6051,6.7817,7.0206,7.0661,7.0717,7.0564,7.055,7.055,7.055,7.055,7.055,7.055,7.055,7.055,7.055,7.116,7.1527,7.1527,7.2151,7.2496,7.2496,7.2496,7.3156,7.4426,7.4757,7.5564,7.6848,7.7179,7.7289,7.7289,7.7289,7.7289,7.7289,7.7289,7.7289,7.7289,7.7289,7.7289,7.7289,7.7289,7.7289,7.7289,7.7289,7.7289,7.7289,7.7289,7.7289,7.7289,7.7289,7.7289,7.7472,7.8369,7.9286,8.0167,8.0828,8.1599,8.2186,8.2186,8.2186,8.2186,8.2186,8.2186,8.226,8.2406,8.2296,8.2517,8.3454,8.4168,8.4939,8.5894,8.6591,8.6978,8.6978,8.6978,8.6978,8.6978,8.6978,8.6978,8.6978,8.6978,8.6978,8.6978,8.6978,8.6978,8.6978,8.6978,8.6978,8.6978,8.6371,8.5857,8.5563,8.4903,8.4205,8.3418,8.4719,8.549,5.851,5.8902,5.9306,5.971,5.9783,0.0,0.0,5.8949,5.8713,5.8713,5.877,5.9161,6.0294,6.0833,6.163,6.3221,6.4127,6.5388,6.7523,6.886,6.9568,6.9486,6.9853,7.011,7.011,7.011,7.011,7.011,7.011,7.011,7.011,7.0477,7.0697,7.0697,7.149,7.1894,7.1894,7.2312,7.2899,7.3707,7.4111,7.4735,7.5542,7.5931,7.6335,7.6702,7.6702,7.6922,7.7289,7.7289,7.7289,7.7289,7.7289,7.7289,7.7289,7.7289,7.7289,7.7289,7.7289,7.7289,7.7289,7.7289,7.7289,7.7289,7.7289,7.7289,7.7399,7.7839,7.8552,7.9412,8.0167,8.1012,8.1709,8.2113,8.2186,8.2186,8.2186,8.2186,8.2186,8.2186,8.2186,8.2443,8.3271,8.3711,8.4278,8.5086,8.5527,8.582,8.582,8.6151,8.6407,8.6407,8.6775,8.6978,8.6978,8.6978,8.6978,8.6978,8.6978,8.6978,8.6978,8.6978,8.6978,8.6978,8.6224,8.58,8.58,8.538,8.4976,8.4609,8.5416,8.6004,5.9196,5.9526,5.982,6.0456,6.0639,6.0456,0.0,0.0,0.0,5.84,5.8217,5.84,5.8866,5.9086,5.9893,6.1985,6.2462,6.3086,6.4591,6.6646,6.8054,6.8201,6.8788,6.9192,6.9192,6.9192,6.9229,6.9412,6.9412,6.9449,6.9646,6.9779,6.9853,6.9853,7.0646,7.1123,7.1307,7.1931,7.2422,7.2753,7.3377,7.3795,7.3964,7.461,7.5234,7.5873,7.6019,7.646,7.7069,7.7252,7.7289,7.7289,7.7289,7.7289,7.7289,7.7289,7.7289,7.7289,7.7289,7.7289,7.7289,7.7289,7.7289,7.7289,7.7289,7.7289,7.7289,7.7289,7.7913,7.8772,7.9596,8.0388,8.1195,8.2003,8.2186,8.2186,8.2186,8.2186,8.2186,8.2186,8.2186,8.2406,8.3051,8.3308,8.3601,8.4278,8.4499,8.4609,8.4609,8.5159,8.5563,8.5563,8.6151,8.6537,8.6537,8.6537,8.6537,8.6537,8.6537,8.6537,8.6537,8.6684,8.6848,8.6978,8.6371,8.604,8.604,8.604,8.593,8.58,8.5967,8.6371,6.004,6.0786,6.1337,6.1447,6.1459,6.1447,6.1337,0.0,6.004,5.9233,0.0,5.8866,5.8253,0.0,0.0,6.0517,6.1263,6.2034,6.2976,6.398,6.4897,6.5618,6.5802,6.5839,6.5839,6.5839,6.6145,6.6843,6.6916,6.721,6.7921,6.8641,6.9032,6.9032,6.9816,7.0587,7.1307,7.138,7.2165,7.3575,7.367,7.4074,7.4757,7.4867,7.494,7.5087,7.5799,7.6166,7.6276,7.6995,7.7289,7.7289,7.7289,7.7289,7.7289,7.7289,7.7289,7.7289,7.7289,7.7289,7.7289,7.7289,7.7289,7.7289,7.7289,7.7289,7.7289,7.7289,7.7913,7.8772,7.9596,8.0388,8.1195,8.2003,8.2186,8.2186,8.2186,8.2186,8.2186,8.2186,8.2186,8.2223,8.2333,8.292,8.3418,8.3528,8.4132,8.4609,8.4609,8.4682,8.4756,8.4756,8.4829,8.4866,8.4866,8.4866,8.4866,8.4866,8.4866,8.4866,8.4866,8.5563,8.6261,8.6978,8.6904,8.6885,8.6885,8.6885,8.6518,8.582,8.6518,8.6904,6.0896,6.1337,6.1704,6.2181,6.2291,6.2181,6.1716,6.1337,6.086,6.004,0.0,0.0,0.0,0.0,0.0,0.0,6.1006,6.119,6.1998,6.2034,6.2438,6.371,6.4701,6.5288,6.5288,6.5288,6.5435,6.5778,6.5802,6.6145,6.6966,6.732,6.7724,6.8201,6.8972,6.9779,7.0587,7.105,7.1857,7.301,7.301,7.3193,7.3509,7.3509,7.378,7.4258,7.5065,7.5689,7.6166,7.6959,7.7289,7.7289,7.7289,7.7289,7.7289,7.7289,7.7289,7.7289,7.7289,7.7289,7.7289,7.7289,7.7289,7.7289,7.7289,7.7289,7.7289,7.7289,7.7546,7.8133,7.9449,8.0036,8.0608,8.1893,8.2186,8.2186,8.2186,8.2186,8.2186,8.2186,8.2186,8.2186,8.2186,8.248,8.27,8.27,8.2994,8.3214,8.3214,8.3618,8.3895,8.3895,8.4315,8.4609,8.4609,8.4609,8.4609,8.4609,8.4609,8.4609,8.4609,8.538,8.5967,8.6297,8.6775,8.6978,8.6978,8.6978,8.6848,8.6518,8.6848,8.6978,6.1704,6.1924,6.2071,6.2646,6.2793,6.2646,6.2071,6.1924,6.1704,6.0896,6.075,0.0,0.0,0.0,6.0676,6.1484,0.0,6.0933,6.1533,6.108,6.108,6.2022,6.3417,6.4371,6.4591,6.4591,6.4591,6.4591,6.4848,6.5228,6.5815,6.6256,6.6769,6.737,6.8164,6.9045,7.0073,7.0697,7.1505,7.2496,7.2496,7.2496,7.2496,7.2496,7.2826,7.3413,7.4441,7.5234,7.5836,7.6885,7.7289,7.7289,7.7289,7.7289,7.7289,7.7289,7.7289,7.7289,7.7289,7.7289,7.7289,7.7289,7.7289,7.7289,7.7289,7.7289,7.7289,7.7289,7.7289,7.7693,7.9376,7.9816,8.022,8.1819,8.2186,8.2186,8.2186,8.2186,8.2186,8.2186,8.2186,8.2186,8.2186,8.2186,8.2186,8.2186,8.2186,8.2186,8.2186,8.27,8.3067,8.3067,8.3581,8.3948,8.3948,8.3948,8.3948,8.3948,8.3948,8.4132,8.4572,8.5159,8.5673,8.6114,8.6701,8.6978,8.6978,8.6978,8.6978,8.6978,8.6978,8.6978,6.2536,6.2756,6.2756,6.2793,6.2793,6.2793,6.2756,6.2756,6.2536,6.1741,6.1557,6.13,6.0529,0.0,0.0,0.0,0.0,0.0,0.0,6.1569,6.13,6.0566,6.1227,6.2034,6.2793,6.2866,6.2866,6.2866,6.3649,6.4139,6.4176,6.5632,6.6512,6.6549,6.7333,6.8508,7.0073,7.011,7.0917,7.2496,7.2496,7.2496,7.2496,7.2496,7.2496,7.2642,7.4206,7.4903,7.505,7.6665,7.7289,7.7289,7.7289,7.7289,7.7289,7.7289,7.7289,7.7289,7.7289,7.7289,7.7289,7.7289,7.7289,7.7289,7.7289,7.7289,7.7289,7.7289,7.7289,7.7693,7.9376,7.9816,8.022,8.1819,8.2186,8.2186,8.2186,8.2186,8.2186,8.2186,8.2186,8.2186,8.2186,8.2186,8.2186,8.2186,8.2186,8.2186,8.2186,8.2223,8.2223,8.2223,8.226,8.226,8.226,8.226,8.226,8.226,8.226,8.2994,8.4535,8.4609,8.538,8.6904,8.6978,8.6978,8.6978,8.6978,8.6978,8.6978,8.6978,8.6978,6.2719,6.2793,6.2793,6.2793,6.2793,6.2939,6.3539,6.3649,6.3723,6.398,6.3613,6.3185,6.2879,0.0,0.0,0.0,0.0,0.0,0.0,6.0346,6.0114,6.0382,6.1117,6.1924,6.2719,6.2328,6.1998,6.1998,6.1777,6.2108,6.3172,6.3747,6.4787,6.6439,6.6769,6.7907,7.0073,7.011,7.0917,7.2496,7.2496,7.2496,7.2496,7.2496,7.2496,7.2606,7.4206,7.4903,7.5014,7.6628,7.7289,7.7289,7.7289,7.7289,7.7289,7.7289,7.7289,7.7289,7.7289,7.7289,7.7289,7.7289,7.7289,7.7289,7.7289,7.7289,7.7289,7.7289,7.7729,7.8405,7.9522,8.022,8.0865,8.1929,8.2186,8.2186,8.2186,8.2186,8.2186,8.2186,8.2186,8.2186,8.2186,8.2186,8.2186,8.2186,8.2186,8.2186,8.2186,8.2186,8.2186,8.2186,8.2186,8.2406,8.2957,8.2994,8.2994,8.2994,8.2994,8.3471,8.4572,8.5637,8.6684,8.7766,8.8299,8.8335,8.7802,8.7802,8.7509,8.6978,8.6978,8.6978,6.36,6.3673,6.3673,6.3673,6.3673,6.382,6.4383,6.453,6.4677,6.5178,6.464,6.4103,6.4103,0.0,0.0,0.0,0.0,0.0,0.0,6.0382,6.026,6.0786,6.1043,6.1484,6.2291,6.1667,6.1043,6.0786,6.0529,6.0848,6.1875,6.2499,6.382,6.5999,6.6366,6.765,7.0073,7.011,7.0917,7.2496,7.2496,7.2496,7.2496,7.2496,7.2496,7.2606,7.4206,7.4903,7.5014,7.6628,7.7289,7.7289,7.7289,7.7289,7.7289,7.7289,7.7289,7.7289,7.7289,7.7289,7.7289,7.7289,7.7289,7.7289,7.7289,7.7289,7.7289,7.7289,7.7913,7.8772,7.9596,8.0388,8.1195,8.2003,8.2186,8.2186,8.2186,8.2186,8.2186,8.2186,8.2186,8.2186,8.2186,8.2186,8.2186,8.2186,8.2186,8.2186,8.2186,8.2186,8.2296,8.259,8.2884,8.3508,8.4592,8.4665,8.4665,8.4665,8.4665,8.5032,8.5857,8.6885,8.7802,8.861,8.9143,8.8996,8.8206,8.8206,8.7802,8.6978,8.6978,8.6978]}]]